     2.10           OBSERVATION DATA    G (GPS)             RINEX VERSION / TYPE
teqc 2002Mar18 WCDA Data collecting20030804 00:06:45UTC     PGM / RUN BY / DATE
Solaris 2.7|Ultra 2|cc SC5.0|=+-|*Sparc                     COMMENT
teqc 2002Mar18 WCDA Data collecting20030804 00:06:38UTC     COMMENT
teqc 2002Mar18 WCDA Data collecting20030804 00:06:30UTC     COMMENT
teqc 2002Mar18 WCDA Data collecting20030803 01:05:12UTC     COMMENT
BIT 2 OF LLI FLAGS DATA COLLECTED UNDER A/S CONDITION       COMMENT
holb WCDA-ACP 927005 Holberg BC Canada                      MARKER NAME
40130M001                                                   MARKER NUMBER
PGC-WCDA GEOL. SURV. CANADA                                 OBSERVER / AGENCY
30199 LEICA CRS1000 9.00 4.42 1.26 1.20                     REC # / TYPE / VERS
00724 00023LEIAT504 SCIS                                    ANT # / TYPE
 -2503040.4240 -3188233.3250  4908701.5430                  APPROX POSITION XYZ
        0.1000        0.0000        0.0000                  ANTENNA: DELTA H/E/N
     1     1                                                WAVELENGTH FACT L1/2
     7    C1    P1    P2    L1    L2    S1    S2            # / TYPES OF OBSERV
    30.0000                                                 INTERVAL
STATION INFORMATION EFFECTIVE FROM: 2002/05/15 15:27:00     COMMENT
TO: CURRENT DATE (above)                                    COMMENT
BIT 2 OF LLI FLAGS (+4) DATA COLLECTED UNDER 'AS' CONDITION COMMENT
L1 PHASE CENTRE 0.110m ABOVE ARP                            COMMENT
L2 PHASE CENTRE 0.128m ABOVE ARP                            COMMENT
where ARP is the Antenna Reference Point for HI measurement COMMENT
SCIGN dome installed on antenna                             COMMENT
No RF skirt used;                                           COMMENT
CONTACT gps@pgc.nrcan.gc.ca FOR ADDITIONAL INFORMATION      COMMENT
SNR is mapped to RINEX snr flag value [2-9]                 COMMENT
L1 & L2: 25-27 dBHz = 2, ..., 49-55 dBHz = 9                COMMENT
  2003     8     3     0     0   30.0000000     GPS         TIME OF FIRST OBS
                                                            END OF HEADER
 03  8  3  0  0 30.0000000  0 10G24G 4G16G27G13G 8G 3G 1G20G 2
  24246074.4324                   24246068.3264  127413978.73645  99283637.64644
        36.0004         34.0004
  24909269.3084                                  130899093.21244
        35.0004
  22673927.7084                   22673918.9844  119152322.12847  92845942.15246
        42.0004         40.0004
  21883608.3644                   21883600.4284  114999179.88248  89609744.27847
        47.0004         44.0004
  20191986.6874                   20191977.0574  106109634.28448  82682819.42348
        48.0004         47.0004
  24029522.3754                   24029516.4054  126276005.93445  98396859.85144
        38.0004         34.0004
  24689743.1274                                  129745484.78044
        35.0004
  20894872.3944                   20894864.1824  109803331.04149  85561028.94748
        50.0004         46.0004
  24468336.2024                                  128581972.09845
        37.0004
  22095682.9194                   22095675.0664  116113636.50448  90478128.28147
        48.0004         44.0004
 03  8  3  0  1  0.0000000  0 10G24G 4G16G27G13G 8G 3G 1G20G 2
  24252943.2384                   24252937.1784  127450074.24545  99311763.94444
        38.0004         34.0004
  24925531.8374                                  130984553.06444
        35.0004
  22686461.6374                   22686452.9004  119218188.31147  92897266.44246
        43.0004         40.0004
  21871166.7714                   21871158.8374  114933798.99848  89558798.16947
        47.0004         44.0004
  20191007.4074                   20190997.7774  106104488.19449  82678809.49748
        49.0004         47.0004
  24009877.9594                   24009871.9614  126172774.27345  98316419.70144
        38.0004         34.0004
  24674012.4214                                  129662819.61445
        36.0004
  20904293.5534                   20904285.3564  109852839.56449  85599607.01948
        49.0004         46.0004
  24490814.8244                                  128700097.30445
        36.0004
  22101388.6214                   22101380.7534  116143620.10748  90501492.11547
        48.0004         44.0004
 03  8  3  0  1 30.0000000  0 10G24G 4G16G27G13G 8G 3G 1G20G 2
  24259873.0414                   24259866.9834  127486490.54545  99340140.27744
        37.0004         34.0004
  24941796.8484                                  131070025.83444
        35.0004
  22699053.4854                   22699044.7634  119284358.73247  92948827.76446
        43.0004         40.0004
  21858742.2734                   21858734.3254  114868508.00548  89507922.12047
        46.0004         43.0004
  20190081.0984                   20190071.4814  106099620.40848  82675016.40748
        48.0004         47.0004
  23990226.4384                   23990220.3614  126069505.70545  98235950.93544
        38.0004         34.0004
  24658289.6464                                  129580196.31144
        34.0004
  20913753.4654                   20913745.2684  109902551.67949  85638343.71548
        49.0004         46.0004
  24513275.8274                                  128818130.23545
        36.0004
  22107150.6074                   22107142.7384  116173899.61048  90525086.54347
        48.0004         44.0004
 03  8  3  0  2  0.0000000  0 10G24G 4G16G27G13G 8G 3G 1G20G 2
  24266893.4464                   24266887.3854  127523382.83445  99368887.46144
        37.0004         34.0004
  24958093.3534                                  131155665.61244
        35.0004
  22711732.7524                   22711724.0304  119350988.47447  93000746.99346
        42.0004         39.0004
  21846364.8974                   21846356.9514  114803464.51848  89457238.90447
        47.0004         44.0004
  20189237.7834                   20189228.1664  106095188.82048  82671563.23648
        48.0004         47.0004
  23970598.0944                   23970592.0034  125966358.31245  98155576.40244
        38.0004         35.0004
  24642604.8174                                  129497774.79144
        34.0004
  20923281.9054                   20923273.7234  109952623.90749  85677361.02248
        49.0004         46.0004
  24535748.4984                                  128936225.04245
        36.0004
  22112998.6114                   22112990.7424  116204631.01748  90549033.07947
        48.0004         44.0004
 03  8  3  0  2 30.0000000  0 10G24G 4G16G27G13G 8G 3G 1G20G 2
  24274003.5774                   24273997.4734  127560746.69945  99398002.14444
        37.0004         35.0004
  24974421.0474                                  131241476.34954
        35.0004
  22724498.5224                   22724489.8164  119418072.98847  93053020.63146
        42.0004         39.0004
  21834034.2574                   21834026.2964  114738666.69048  89406747.12247
        48.0004         44.0004
  20188477.1434                   20188467.5284  106091191.63048  82668448.54848
        48.0004         47.0004
  23950992.5094                   23950986.4094  125863330.77045  98075295.33444
        38.0004         35.0004
  24626959.7624                                  129415555.90644
        34.0004
  20932878.3704                   20932870.1874  110003053.66849  85716656.93748
        49.0004         46.0004
  24558232.2814                                  129054377.05745
        36.0004
  22118931.9284                   22118924.0464  116235810.74648  90573328.97047
        48.0004         44.0004
 03  8  3  0  3  0.0000000  0 10G24G 4G16G27G13G 8G 3G 1G20G 2
  24281173.9334                   24281167.8304  127598427.17445  99427363.55944
        38.0004         35.0004
  24990749.6124                                  131327283.47545
        36.0004
  22737321.1914                   22737312.5384  119485456.56947  93105527.28246
        42.0004         40.0004
  21821721.3194                   21821713.3474  114673961.83048  89356327.77847
        46.0004         44.0004
  20187770.1094                   20187760.4804  106087476.14448  82665553.36948
        48.0004         47.0004
  23931380.7864                   23931374.6324  125760270.96645  97994989.13544
        38.0004         35.0004
  24611323.2374                                  129333389.16544
        35.0004
  20942513.6274                   20942505.4474  110053687.16248  85756111.58948
        48.0004         46.0004
  24580697.1074                                  129172430.51244
        35.0004
  22124921.1654                   22124913.2704  116267284.33448  90597853.84147
        48.0004         44.0004
 03  8  3  0  3 30.0000000  0 10G24G 4G16G27G13G 8G 3G 1G20G 2
  24288492.5964                   24288486.4814  127636886.94745  99457332.20944
        37.0004         35.0004
  25007166.8774                                  131413557.46844
        35.0004
  22750288.7374                   22750280.1274  119553601.35847  93158627.07846
        43.0004         39.0004
  21809514.5164                   21809506.5444  114609814.77348  89306343.08647
        47.0004         44.0004
  20187205.1724                   20187195.5434  106084507.37748  82663240.04648
        48.0004         47.0004
  23911851.5794                   23911845.3834  125657644.48046  97915020.50144
        39.0004         35.0004
  24595787.2394                                  129251742.25745
        36.0004
  20952275.9204                   20952267.7394  110104988.35949  85796086.54248
        49.0004         46.0004
  24603231.1194                                  129290847.35944
        35.0004
  22131054.4914                   22131046.5974  116299515.18248  90622968.79047
        48.0004         44.0004
 03  8  3  0  4  0.0000000  0 10G24G 4G16G27G13G 8G 3G 1G20G 2
  24295871.2494                   24295865.1064  127675662.08945  99487546.63444
        38.0004         34.0004
  25023584.8664                                  131499833.02445
        36.0004
  22763312.7154                   22763304.0764  119622042.76047  93211958.03346
        43.0004         39.0004
  21797326.0044                   21797318.0194  114545763.83448  89256433.30047
        47.0004         44.0004
  20186694.4944                   20186684.8674  106081823.74648  82661148.91148
        48.0004         47.0004
  23892317.0074                   23892310.7974  125554989.98446  97835030.07444
        39.0004         34.0004
  24580261.4134                                  129170155.67944
        33.0004
  20962077.2274                   20962069.0714  110156494.57249  85836221.23648
        49.0004         46.0004
  24625745.9114                                  129409162.64044
        35.0004
  22137243.7134                   22137235.8194  116332039.70148  90648312.55747
        48.0004         44.0004
 03  8  3  0  4 30.0000000  0 10G24G 4G16G27G13G 8G 3G 1G20G 2
  24303368.2304                   24303362.1174  127715058.68145  99518245.20344
        38.0004         34.0004
  25040061.2034                                  131586415.44544
        35.0004
  22776451.4054                   22776442.7544  119691086.85547  93265758.59946
        43.0004         39.0004
  21785214.5574                   21785206.5564  114482117.87648  89206839.07347
        47.0004         44.0004
  20186296.8554                   20186287.2294  106079734.13948  82659520.65048
        48.0004         47.0004
  23872836.0354                   23872829.7964  125452617.16145  97755259.13244
        38.0004         35.0004
  24564806.3944                                  129088940.75445
        37.0004
  20971976.1264                   20971967.9564  110208513.57649  85876755.51648
        49.0004         46.0004
  24648299.5674                                  129527682.34144
        35.0004
  22143547.2574                   22143539.3614  116365165.04648  90674124.50647
        48.0004         44.0004
 03  8  3  0  5  0.0000000  0 10G24G 4G16G27G13G 8G 3G 1G20G 2
  24310924.0064                   24310917.9494  127754764.67545  99549184.94644
        37.0004         34.0004
  25056536.1984                                  131672987.50155
        36.0004
  22789645.2714                   22789636.6194  119760420.96847  93319785.14646
        42.0004         39.0004
  21773121.2044                   21773113.2044  114418567.06648  89157319.00447
        47.0004         44.0004
  20185953.3524                   20185943.7264  106077929.08348  82658114.12548
        48.0004         47.0004
  23853349.7454                   23853343.4654  125350216.63946  97675466.67744
        39.0004         35.0004
  24549364.1454                                  129007790.75344
        35.0004
  20981913.5054                   20981905.3474  110260734.85249  85917447.40748
        49.0004         46.0004
  24670832.6664                                  129646093.94744
        35.0004
  22149905.8934                   22149897.9974  116398579.90448  90700162.05847
        47.0004         44.0004
 03  8  3  0  5 30.0000000  0 11G24G 4G16G27G13G 8G 3G 1G20G 2G10
  24318567.8604                   24318561.8014  127794933.33445  99580485.17944
        37.0004         34.0004
  25073038.7594                                  131759709.42344
        35.0004
  22802923.4474                   22802914.7814  119830198.12847  93374156.94046
        42.0004         39.0004
  21761075.6524                   21761067.6384  114355267.26248  89107994.49047
        47.0004         44.0004
  20185693.5824                   20185683.9674  106076563.98048  82657050.39648
        47.0004         47.0004
  23833888.0344                   23833881.7414  125247944.97246  97595774.54444
        39.0004         35.0004
  24533964.0544                                  128926863.66345
        36.0004
  20991918.8654                   20991910.7084  110313313.31348  85958417.62548
        48.0004         46.0004
  24693374.2554                                  129764550.10944
        34.0004
  22156348.8724                   22156340.9884  116432438.05448  90726545.02947
        48.0004         44.0004
  25112397.5404                                  131966539.65054
        34.0004
 03  8  3  0  6  0.0000000  0 11G24G 4G16G27G13G 8G 3G 1G20G 2G10
  24326292.8254                                                   99612142.99544
        34.0004
  25089568.3064                                  131846572.09144
        35.0004
  22816285.1314                   22816276.4634  119900413.93647  93428870.47946
        42.0004         39.0004
  21749077.4804                   21749069.4534  114292216.56848  89058864.11547
        47.0004         44.0004
  20185517.2894                   20185507.6624  106075637.55848  82656328.51848
        48.0004         47.0004
  23814450.5984                   23814444.2754  125145800.93045  97516181.86944
        38.0004         35.0004
  24518606.7944                                  128846160.34345
        36.0004
  21001991.6714                   21001983.5294  110366246.20548  85999664.01648
        48.0004         46.0004
  24715923.3204                                  129883046.06144
        34.0004
  22162875.5594                   22162867.6884  116466735.96248  90753270.64947
        47.0004         44.0004
  25092720.4174                                  131863134.91744
        34.0004
 03  8  3  0  6 30.0000000  0 11G24G 4G16G27G13G 8G 3G 1G20G 2G10
  24334117.5674                                                  127876650.10055
        38.0004
  25106124.4784                                  131933574.67345
        36.0004
  22829730.2164                   22829721.5334  119971068.08447  93483925.60746
        43.0004         39.0004
  21737127.2864                   21737119.2584  114229417.99848  89009930.18648
        46.0004         45.0004
  20185424.9984                   20185415.3714  106075152.56348  82655950.60148
        47.0004         47.0004
  23795038.1244                   23795031.7614  125043788.07046  97436691.43344
        39.0004         35.0004
  24503293.3624                                  128765686.34245
        37.0004
  21012132.2874                   21012124.1444  110419535.43649  86041188.07748
        49.0004         46.0004
  24738479.9014                                  130001581.82144
        34.0004
  22169486.1304                   22169478.2734  116501474.74748  90780339.82947
        48.0004         44.0004
  25073082.6154                                  131759938.44644
        33.0004
 03  8  3  0  7  0.0000000  0 11G24G 4G16G27G13G 8G 3G 1G20G 2G10
  24342023.0844                                                  127918194.12045
        38.0004
  25122706.7174                                  132020714.67745
        36.0004
  22843258.3724                   22843249.6984  120042158.96247  93539321.05746
        42.0004         39.0004
  21725225.2194                   21725217.1794  114166872.27748  88961193.28847
        47.0004         44.0004
  20185416.9214                   20185407.2954  106075110.11748  82655917.53348
        48.0004         47.0004
  23775650.8364                   23775644.4884  124941907.74345  97357304.29244
        38.0004         35.0004
  24488023.8324                                  128685445.04445
        36.0004
  21022340.6894                   21022332.5464  110473180.95248  86082989.77748
        48.0004         46.0004
  24761043.8364                                  130120154.97244
        34.0004
  22176180.4294                   22176172.5714  116536653.52648  90807751.85947
        48.0004         44.0004
  25053485.1134                                  131656953.50844
        33.0004
 03  8  3  0  7 30.0000000  0 11G24G 4G16G27G13G 8G 3G 1G20G 2G10
  24349985.4874                                                  127960036.08045
        37.0004
  25139284.3404                                  132107831.48445
        36.0004
  22856839.1494                   22856830.4784  120113526.42947  93594932.07946
        43.0004         39.0004
  21713341.4134                   21713333.3734  114104422.57848  88912531.21647
        47.0004         44.0004
  20185463.1704                   20185453.5454  106075353.16048  82656106.92048
        48.0004         47.0004
  23756259.0634                   23756252.6854  124840003.54146  97277898.47544
        39.0004         35.0004
  24472768.8024                                  128605281.63045
        37.0004
  21032586.8154                   21032578.6854  110527024.70949  86124945.94348
        49.0004         46.0004
  24783584.4754                                  130238605.76544
        34.0004
  22182928.2194                   22182920.3734  116572113.40248  90835382.91847
        48.0004         44.0004
  25033898.5214                                  131554025.01944
        33.0004
 03  8  3  0  8  0.0000000  0 10G 4G16G27G13G 8G 3G 1G20G 2G10
  25155945.4724                                  132195386.13645
        36.0004
  22870560.4714                   22870551.8004  120185632.27547  93651118.41346
        42.0004         39.0004
  21701564.2344                   21701556.1804  114042533.27448  88864305.82747
        47.0004         44.0004
  20185652.1714                   20185642.5464  106076346.36448  82656880.84448
        48.0004         47.0004
  23736951.1834                   23736944.7804  124738540.56846  97198836.58244
        39.0004         35.0004
  24457618.1334                                  128525663.38945
        37.0004
  21042958.8824                   21042950.7644  110581530.22648  86167417.74848
        48.0004         46.0004
  24806189.8644                                  130357395.82544
        34.0004
  22189817.5754                   22189809.7454  116608317.21148  90863593.68147
        48.0004         44.0004
  25014411.1844                                  131451619.74744
        34.0004
 03  8  3  0  8 30.0000000  0 11G24G 4G16G27G13G 8G 3G 1G20G 2G10
  24366255.8504                                  128045536.79055
        37.0004
  25172602.0084                                  132282915.38845
        36.0004
  22884334.2234                   22884325.5524  120258013.70547  93707519.49946
        42.0004         39.0004
  21689806.2584                   21689798.1924  113980744.62848  88816158.83147
        47.0004         44.0004
  20185896.4304                   20185886.8074  106077629.95248  82657881.05548
        48.0004         47.0004
  23717640.0034                   23717633.5834  124637059.82145  97119760.71045
        38.0004         36.0004
  24442483.9014                                  128446132.77645
        37.0004
  21053369.2084                   21053361.0904  110636236.86049  86210046.29248
        49.0004         46.0004
  24828771.4454                                  130476062.39744
        34.0004
  22196760.6774                   22196752.8484  116644803.39648  90892024.46647
        48.0004         44.0004
  24994936.5904                                  131349279.94044
        34.0004
 03  8  3  0  9  0.0000000  0 11G24G 4G16G27G13G 8G 3G 1G20G 2G10
  24374504.4634                                  128088882.54645
        37.0004
  25189281.2964                                  132370566.32544
        35.0004
  22898188.6064                   22898179.9264  120330818.60547  93764250.53146
        42.0004         39.0004
  21678096.0484                   21678087.9684  113919207.18648  88768207.61248
        47.0004         45.0004
  20186224.6154                   20186214.9934  106079354.57948  82659224.92048
        48.0004         47.0004
  23698354.1614                   23698347.7154  124535712.28646  97040788.68045
        39.0004         36.0004
  24427395.2864                                  128366843.19345
        36.0004
  21063846.3044                   21063838.1714  110691294.24248  86252948.12548
        48.0004         46.0004
  24851357.2214                                  130594753.01444
        34.0004
  22203785.8534                   22203778.0224  116681720.88248  90920791.31747
        47.0004         44.0004
  24975503.3854                                  131247158.88244
        33.0004
 03  8  3  0  9 30.0000000  0 11G24G 4G16G27G13G 8G 3G 1G20G 2G10
  24382866.8214                                  128132827.03145
        37.0004
  25206012.9414                                  132458490.83745
        36.0004
  22912152.5054                   22912143.8284  120404199.26547  93821430.25046
        42.0004         39.0004
  21666463.1994                   21666455.1204  113858076.34048  88720573.22847
        47.0004         44.0004
  20186666.2754                   20186656.6534  106081675.58248  82661033.50748
        48.0004         47.0004
  23679123.3594                   23679116.8694  124434654.23945  96962042.26745
        38.0004         36.0004
  24412382.6984                                  128287952.63545
        36.0004
  21074419.4984                   21074411.3674  110746856.75448  86296243.59348
        48.0004         45.0004
  24873977.2404                                  130713620.20244
        34.0004
  22210922.2904                   22210914.4754  116719223.11248  90950013.83447
        47.0004         44.0004
  24956141.7894                                  131145413.76144
        33.0004
 03  8  3  0 10  0.0000000  0 11G24G 4G16G27G13G 8G 3G 1G20G 2G10
  24391284.2224                                  128177060.20945
        37.0004
  25222737.3834                                  132546378.00144
        35.0004
  22926166.9744                   22926158.2974  120477845.60547  93878816.97246
        42.0004         39.0004
  21654849.2684                   21654841.1884  113797044.84748  88673016.24547
        47.0004         44.0004
  20187162.9894                   20187153.3814  106084285.82848  82663067.46348
        48.0004         47.0004
  23659889.2514                   23659882.7514  124333578.63646  96883282.14445
        39.0004         36.0004
  24397388.5134                                  128209156.28645
        37.0004
  21085030.1214                   21085022.0014  110802615.95448  86339692.30648
        48.0004         46.0004
  24896571.6434                                  130832353.53244
        34.0004
  22218111.1934                   22218103.3774  116757000.98748  90979451.12547
        48.0004         44.0004
  24936793.8524                                  131043739.60244
        33.0004
 03  8  3  0 10 30.0000000  0 11G24G 4G16G27G13G 8G 3G 1G20G 2G10
  24399786.4984                                  128221743.72255
        38.0004
  25239484.5254                                  132634384.19944
        35.0004
  22940261.8704                   22940253.2034  120551914.72547  93936533.13145
        42.0004         38.0004
  21643284.6304                   21643276.5514  113736272.32548  88625661.05148
        47.0004         45.0004
  20187745.1024                   20187735.4824  106087344.85448  82665451.13148
        48.0004         47.0004
  23640682.3984                   23640675.8824  124232646.19246  96804633.53645
        39.0004         36.0004
  24382442.4924                                  128130616.42044
        35.0004
  21095708.4124                   21095700.2924  110858730.75148  86383418.12348
        48.0004         46.0004
  24919170.5714                                  130951110.38544
        35.0004
  22225382.6014                   22225374.7844  116795212.49448  91009226.32047
        47.0004         44.0004
  24917490.0614                                  130942298.24644
        34.0004
 03  8  3  0 11  0.0000000  0 11G24G 4G16G27G13G 8G 3G 1G20G 2G10
  24408372.7494                                  128266866.09045
        38.0004
  25256253.3404                                  132722505.35645
        36.0004
  22954436.4974                   22954427.8574  120626402.82646  93994575.78346
        41.0004         39.0004
  21631769.1284                   21631761.0324  113675758.07748  88578507.11347
        47.0004         44.0004
  20188412.5024                   20188402.8944  106090852.06348  82668184.01148
        48.0004         47.0004
  23621502.6314                   23621496.0874  124131856.52346  96726096.29745
        39.0004         36.0004
  24367546.1574                                  128052334.58945
        37.0004
  21106454.0434                   21106445.9524  110915199.29749  86427419.55248
        49.0004         46.0004
  24941773.0874                                  131069886.46944
        35.0004
  22232735.9894                   22232728.1734  116833854.74648  91039337.15647
        48.0004         44.0004
  24898231.0364                                  130841090.94944
        34.0004
 03  8  3  0 11 30.0000000  0 11G24G 4G16G27G13G 8G 3G 1G20G 2G10
  24417042.1044                   24417037.6164  128312425.10645  99983689.55654
        37.0004         35.0004
  25273042.7954                                  132810734.47544
        35.0004
  22968689.6664                   22968681.0134  120701303.73747  94052940.13646
        42.0004         39.0004
  21620302.1374                   21620294.0404  113615498.75848  88531551.82448
        47.0004         45.0004
  20189164.5564                   20189154.9354  106094804.13548  82671263.55448
        48.0004         47.0004
  23602349.6234                   23602343.0524  124031206.84746  96647668.00645
        39.0004         37.0004
  24352697.9534                                  127974310.24744
        35.0004
  21117266.2014                   21117258.0974  110972017.51149  86471693.47948
        49.0004         45.0004
  24964377.9884                                  131188675.90144
        35.0004
  22240170.3824                   22240162.5804  116872922.74748  91069779.75047
        48.0004         44.0004
  24879016.1834                                  130740116.58844
        34.0004
 03  8  3  0 12  0.0000000  0 11G24G 4G16G27G13G 8G 3G 1G20G 2G10
  24425795.0904                   24425789.9904  128358421.66945 100019531.00444
        38.0004         33.0004
  25289852.8804                                  132899071.37844
        35.0004
  22983021.4884                   22983012.8494  120776617.72047  94111626.29345
        42.0004         38.0004
  21608884.2484                   21608876.1664  113555497.53748  88484797.66448
        47.0004         45.0004
  20190001.8924                   20189992.2714  106099204.36348  82674692.30348
        48.0004         47.0004
  23583223.9674                   23583217.3684  123930701.22346  96569352.02845
        39.0004         37.0004
  24337900.6464                                  127896549.06445
        37.0004
  21128145.2704                   21128137.1784  111029187.40648  86516241.43648
        48.0004         45.0004
  24986985.5064                                  131307478.58744
        35.0004
  22247686.0404                   22247678.2514  116912417.79848  91100555.10447
        48.0004         44.0004
  24859846.9694                                  130639380.68944
        35.0004
 03  8  3  0 12 30.0000000  0 11G24G 4G16G27G13G 8G 3G 1G20G 2G10
  24434602.1054                   24434596.6244  128404701.97245 100055593.57344
        37.0004         34.0004
  25306654.0344                                  132987361.35244
        33.0004
  22997402.5624                   22997393.9244  120852190.58647  94170514.20646
        42.0004         39.0004
  21597486.7434                   21597478.6484  113495603.24248  88438126.79648
        47.0004         45.0004
  20190895.7074                   20190886.1004  106103901.39348  82678352.32248
        48.0004         47.0004
  23564097.0364                   23564090.4234  123830188.89646  96491030.82445
        40.0004         37.0004
  24323125.1114                                  127818902.10145
        36.0004
  21139062.3134                   21139054.2064  111086556.78749  86560944.84048
        49.0004         46.0004
  25009566.3684                                  131426140.81744
        35.0004
  22255253.8654                   22255246.0594  116952186.98448  91131544.07447
        48.0004         44.0004
  24840694.5444                                  130538734.58244
        35.0004
 03  8  3  0 13  0.0000000  0 11G24G 4G16G27G13G 8G 3G 1G20G 2G10
  24443520.3364                   24443514.6514  128451567.53045 100092112.15044
        38.0004         35.0004
  25323503.3174                                  133075905.05744
        33.0004
  23011890.1834                   23011881.5994  120928323.42147  94229838.43945
        42.0004         38.0004
  21586167.4364                   21586159.3414  113436120.00548  88391776.25048
        48.0004         45.0004
  20191903.8774                   20191894.2694  106109199.42548  82682480.67048
        48.0004         47.0004
  23545026.8274                   23545020.1894  123729974.64646  96412941.90245
        39.0004         36.0004
  24308429.7134                                  127741676.57745
        38.0004
  21150074.9874                   21150066.8954  111144428.72049  86606039.83448
        49.0004         45.0004
  25032177.7944                                  131544963.66544
        35.0004
  22262931.3384                   22262923.5324  116992532.37948  91162982.04347
        47.0004         44.0004
  24821617.6174                                  130438484.27744
        35.0004
 03  8  3  0 13 30.0000000  0 11G24G 4G16G27G13G 8G 3G 1G20G 2G10
  24452549.3224                   24452543.5744  128499014.66945 100129083.89444
        37.0004         34.0004
  25340400.3274                                  133164698.31844
        34.0004
  23026483.6454                   23026475.0774  121005012.70747  94289596.35545
        42.0004         38.0004
  21574926.1764                   21574918.0534  113377046.85148  88345745.24547
        47.0004         44.0004
  20193026.2504                   20193016.6304  106115097.47448  82687076.54948
        48.0004         47.0004
  23526013.2494                   23526006.5824  123630058.05846  96335084.92345
        39.0004         36.0004
  24293814.5474                                  127664855.73555
        36.0004
  21161182.9374                   21161174.8584  111202801.38948  86651525.02448
        48.0004         46.0004
  25054819.0824                                  131663943.49544
        35.0004
  22270717.9294                   22270710.1114  117033451.12648  91194866.78047
        48.0004         44.0004
  24802616.1214                                  130338631.05544
        35.0004
 03  8  3  0 14  0.0000000  0 11G24G 4G16G27G13G 8G 3G 1G20G 2G10
  24461630.2454                   24461624.3694  128546735.24645 100166268.79344
        38.0004         35.0004
  25357285.7964                                  133253432.05544
        35.0004
  23041124.3064                   23041115.7414  121081949.77746  94349547.30045
        41.0004         38.0004
  21563704.8104                   21563696.6884  113318078.29548  88299795.75248
        47.0004         45.0004
  20194204.6464                   20194195.0264  106121289.98448  82691901.88348
        48.0004         47.0004
  23506998.3774                   23506991.6534  123530134.54246  96257222.53045
        40.0004         37.0004
  24279221.8254                                  127588172.65445
        38.0004
  21172327.8684                   21172319.8044  111261368.33848  86697161.59148
        48.0004         45.0004
  25077431.4674                                  131782771.76045
        36.0004
  22278555.1464                   22278547.3304  117074635.85448  91226958.75747
        47.0004         44.0004
  24783632.4594                                  130238871.79944
        35.0004
 03  8  3  0 14 30.0000000  0 11G24G 4G16G27G13G 8G 3G 1G20G 2G10
  24470791.5214                   24470785.5774  128594878.26245 100203782.84844
        37.0004         35.0004
  25374187.9764                                  133342253.92644
        34.0004
  23055840.3954                   23055831.8314  121159283.28547  94409807.16645
        42.0004         38.0004
  21552532.1554                   21552524.0064  113259365.59748  88254045.61448
        47.0004         45.0004
  20195467.9264                   20195458.3054  106127928.63149  82697074.86548
        49.0004         47.0004
  23488011.1314                   23488004.4044  123430356.01546  96179473.04545
        40.0004         36.0004
  24264682.1894                                  127511763.60145
        36.0004
  21183538.3544                   21183530.3044  111320279.77548  86743066.59048
        48.0004         45.0004
  25100043.3824                                  131901596.85944
        35.0004
  22286471.4294                   22286463.6004  117116236.20348  91259374.62247
        48.0004         43.0004
  24764696.0194                                  130139360.00845
        36.0004
 03  8  3  0 15  0.0000000  0 11G24G 4G16G27G13G 8G 3G 1G20G 2G10
  24480062.9514                   24480057.1124  128643599.58045 100241747.42044
        36.0004         34.0004
  25391136.6954                                  133431319.72944
        34.0004
  23070661.6014                   23070653.0494  121237168.80747  94470497.07445
        42.0004         38.0004
  21541438.3954                   21541430.2594  113201067.68448  88208618.69848
        48.0004         45.0004
  20196846.2454                   20196836.6224  106135171.81048  82702718.90348
        48.0004         47.0004
  23469081.7084                   23469074.9684  123330881.66646  96101960.66745
        40.0004         37.0004
  24250223.9714                                  127435789.15145
        36.0004
  21194844.3904                   21194836.3404  111379693.39648  86789362.91348
        48.0004         45.0004
  25122684.4354                                  132020574.64544
        35.0004
  22294496.6474                   22294488.8334  117158408.88548  91292236.42247
        47.0004         44.0004
  24745837.1914                                  130040256.63644
        35.0004
 03  8  3  0 15 30.0000000  0 10G24G16G27G13G 8G 3G 1G20G 2G10
  24489385.0994                   24489379.3324  128692587.79845 100279920.03844
        36.0004         33.0004
  23085528.5174                   23085519.9534  121315294.98147  94531374.62345
        42.0004         38.0004
  21530364.8144                   21530356.6654  113142875.68548  88163274.30848
        47.0004         45.0004
  20198280.8674                   20198271.2584  106142710.86248  82708593.49748
        48.0004         47.0004
  23450151.5594                   23450144.7914  123231403.49946  96024445.32245
        40.0004         37.0004
  24235791.0124                                  127359943.37545
        36.0004
  21206187.0554                   21206179.0064  111439299.44048  86835809.17548
        48.0004         45.0004
  25145294.9154                                  132139393.77045
        36.0004
  22302571.6624                   22302563.8344  117200843.31248  91325302.20147
        47.0004         44.0004
  24726997.8774                                  129941255.43944
        35.0004
 03  8  3  0 16  0.0000000  0 10G24G16G27G13G 8G 3G 1G20G 2G10
  24498786.9284                                  128741993.68045
        37.0004
  23100469.8954                   23100461.3174  121393812.32647  94592556.95245
        42.0004         38.0004
  21519340.5814                   21519332.4294  113084943.07448  88118132.03048
        48.0004         45.0004
  20199801.0144                   20199791.3924  106150699.22449  82714818.19248
        49.0004         47.0004
  23431250.0104                   23431243.2584  123132075.50146  95947046.95145
        40.0004         37.0004
  24221412.2704                                  127284382.39245
        36.0004
  21217595.3504                   21217587.3144  111499250.37548  86882524.16348
        48.0004         46.0004
  25167904.0764                                  132258204.64945
        36.0004
  22310725.3144                   22310717.4884  117243691.04548  91358690.05447
        48.0004         44.0004
  24708207.2894                                  129842511.97944
        35.0004
 03  8  3  0 16 30.0000000  0 10G24G16G27G13G 8G 3G 1G20G 2G10
  24508268.2574                                  128791820.02745
        36.0004
  23115486.1304                   23115477.5914  121472723.10946  94654045.83245
        41.0004         38.0004
  21508366.7324                   21508358.5674  113027275.17248  88073196.02448
        48.0004         45.0004
  20201407.6344                   20201398.0234  106159142.13348  82721397.07948
        48.0004         47.0004
  23412378.1414                   23412371.3474  123032903.65846  95869770.31845
        41.0004         37.0004
  24207089.0494                                  127209113.98145
        37.0004
  21229070.0754                   21229062.0254  111559550.46148  86929511.24848
        48.0004         45.0004
  25190512.0924                                  132377009.95244
        34.0004
  22318958.3044                   22318950.4784  117286955.63548  91392402.70647
        48.0004         44.0004
  24689467.7494                                  129744034.03344
        35.0004
 03  8  3  0 17  0.0000000  0 10G24G16G27G13G 8G 3G 1G20G 2G10
  24517828.2824                                  128842058.54945
        36.0004
  23130575.5874                   23130567.0194  121552018.87046  94715834.76845
        41.0004         38.0004
  21497442.1884                   21497434.0384  112969866.37048  88028461.90448
        47.0004         45.0004
  20203099.6564                   20203090.0454  106168033.76648  82728325.62548
        48.0004         47.0004
  23393535.1184                   23393528.2964  122933882.96746  95792611.36545
        41.0004         38.0004
  24192821.0324                                  127134135.17045
        36.0004
  21240609.9664                   21240601.9434  111620192.93348  86976765.09548
        48.0004         45.0004
  25213117.3794                                  132495800.91344
        35.0004
  22327269.1294                   22327261.3134  117330629.31348  91426434.12747
        47.0004         44.0004
  24670777.6334                                  129645817.81344
        35.0004
 03  8  3  0 17 30.0000000  0 10G24G16G27G13G 8G 3G 1G20G 2G10
  24527467.2844                                  128892711.78045
        37.0004
  23145738.9034                   23145730.3474  121631702.25547  94777925.62445
        42.0004         38.0004
  21486568.0134                   21486559.8624  112912722.25648  87983934.03548
        48.0004         45.0004
  20204878.1564                   20204868.5464  106177379.84548  82735608.28848
        48.0004         47.0004
  23374722.0674                   23374715.2214  122835019.97046  95715575.33945
        41.0004         37.0004
  24178609.8244                                  127059451.95855
        37.0004
  21252215.9144                   21252207.8914  111681182.54048  87024289.44948
        48.0004         45.0004
  25235720.3284                                  132614580.58644
        34.0004
  22335658.5134                   22335650.6854  117374715.76248  91460787.19947
        47.0004         44.0004
  24652139.0194                                  129547871.54844
        34.0004
 03  8  3  0 18  0.0000000  0 10G24G16G27G13G 8G 3G 1G20G 2G10
  24537184.7234                                  128943774.83055
        36.0004
  23160975.4864                   23160966.9444  121711770.79346  94840316.62845
        41.0004         38.0004
  21475744.3364                   21475736.1734  112855843.45048  87939612.90048
        48.0004         45.0004
  20206743.2354                   20206733.6104  106187180.90548  82743245.47848
        48.0004         47.0004
  23355939.1714                   23355932.2994  122736315.37046  95638662.72745
        40.0004         37.0004
  24164455.7434                                  126985071.32245
        38.0004
  21263887.8144                   21263879.7924  111742518.72548  87072083.87248
        48.0004         45.0004
  25258320.9804                                  132733346.62644
        35.0004
  22344126.1784                   22344118.3624  117419213.57848  91495460.79947
        48.0004         43.0004
  24633552.3014                                  129450197.93644
        35.0004
 03  8  3  0 18 30.0000000  0 10G24G16G27G13G 8G 3G 1G20G 2G10
  24546979.5294                                  128995245.88545
        36.0004
  23176283.7414                   23176275.2224  121792216.40046  94903001.52945
        40.0004         38.0004
  21464970.1604                   21464961.9964  112799224.83648  87895494.50848
        48.0004         45.0004
  20208693.8964                   20208684.2714  106197431.69748  82751233.10948
        48.0004         47.0004
  23337185.6084                   23337178.6944  122637765.04546  95561870.35145
        41.0004         38.0004
  24150358.1234                                  126910989.01445
        37.0004
  21275624.4704                   21275616.4474  111804195.26748  87120143.51348
        48.0004         45.0004
  25280917.3414                                  132852091.11944
        35.0004
  22352670.8054                   22352663.0024  117464115.89748  91530449.60947
        47.0004         44.0004
  24615017.0564                                  129352794.25144
        35.0004
 03  8  3  0 19  0.0000000  0 10G24G16G27G13G 8G 3G 1G20G 2G10
  24556851.0364                                  129047120.44245
        37.0004
  23191663.5484                   23191655.0524  121873037.89546  94965979.29945
        41.0004         38.0004
  21454245.7674                   21454237.5904  112742867.89748  87851580.04748
        48.0004         45.0004
  20210730.4344                   20210720.8124  106208133.71548  82759572.33848
        48.0004         47.0004
  23318461.7764                   23318454.8214  122539371.01646  95485199.78245
        40.0004         38.0004
  24136318.1604                                  126837208.94945
        37.0004
  21287426.0284                   21287418.0084  111866212.81348  87168468.86948
        48.0004         45.0004
  25303509.6674                                  132970812.77744
        35.0004
  22361292.3034                   22361284.5134  117509422.17748  91565753.19347
        47.0004         44.0004
  24596533.7914                                  129255664.35244
        35.0004
 03  8  3  0 19 30.0000000  0  9G24G16G27G13G 8G 3G 1G 2G10
  24566799.1274                                  129099397.38945
        37.0004
  23207114.5884                   23207106.1174  121954233.53146  95029248.57845
        41.0004         38.0004
  21443571.4514                   21443563.2604  112686773.98348  87807870.51048
        47.0004         45.0004
  20212852.9964                   20212843.3714  106219287.91348  82768263.92848
        48.0004         47.0004
  23299768.1004                   23299761.1014  122441135.33946  95408652.56145
        40.0004         38.0004
  24122336.3824                                  126763734.64745
        37.0004
  21299292.4984                   21299284.4904  111928571.46848  87217060.00648
        47.0004         45.0004
  22369990.5634                   22369982.7604  117555131.71848  91601370.99947
        47.0004         44.0004
  24578103.3664                                  129158811.69144
        35.0004
 03  8  3  0 20  0.0000000  0  9G24G16G27G13G 8G 3G 1G 2G10
  24576822.8854                                  129152075.34355
        38.0004
  23222636.3804                   23222627.9214  122035800.91546  95092807.52345
        40.0004         38.0004
  21432947.2334                   21432939.0544  112630943.53148  87764366.29148
        47.0004         45.0004
  20215061.7764                   20215052.1534  106230895.07249  82777308.45748
        49.0004         47.0004
  23281104.7864                   23281097.7864  122343059.21146  95332229.65645
        41.0004         38.0004
  24108413.1924                                  126690569.35545
        37.0004
  21311223.7814                   21311215.7754  111991270.72348  87265916.55948
        47.0004         45.0004
  22378765.2754                   22378757.4594  117601243.13848  91637301.98647
        48.0004         44.0004
  24559726.0514                                  129062238.99544
        35.0004
 03  8  3  0 20 30.0000000  0  9G24G16G27G13G 8G 3G 1G 2G10
  24586922.9134                                  129205149.53345
        37.0004
  23238228.2744                   23238219.8104  122117736.74546  95156653.57645
        40.0004         38.0004
  21422373.1614                   21422364.9824  112575376.40948  87721067.23248
        47.0004         45.0004
  20217356.6664                   20217347.0414  106242954.86048  82786705.70148
        48.0004         47.0004
  23262471.8264                   23262464.8114  122245142.84346  95255931.30145
        41.0004         38.0004
  24094549.4804                                  126617715.24245
        37.0004
  21323219.6684                   21323211.6764  112054309.47348  87315037.64448
        48.0004         45.0004
  22387616.0564                   22387608.2404  117647754.24448  91673544.39247
        47.0004         44.0004
  24541402.3624                                  128965948.42645
        36.0004
 03  8  3  0 21  0.0000000  0  9G24G16G27G13G 8G 3G 1G 2G10
  24597097.4594                                  129258617.32145
        36.0004
  23253889.6024                   23253881.1524  122200037.70446  95220784.21645
        41.0004         38.0004
  21411849.0314                   21411840.8384  112520071.85648  87677972.81048
        48.0004         45.0004
  20219737.4804                   20219727.8544  106255466.18749  82796454.79548
        49.0004         47.0004
  23243869.3674                   23243862.3384  122147386.39046  95179757.47345
        41.0004         38.0004
  24080745.5454                                  126545174.13645
        37.0004
  21335279.7854                   21335271.7924  112117685.75448  87364421.74148
        48.0004         45.0004
  22396542.3654                   22396534.5504  117694662.25348  91710096.07747
        47.0004         43.0004
  24523133.1634                                  128869941.57345
        36.0004
 03  8  3  0 21 30.0000000  0  9G24G16G27G13G 8G 3G 1G 2G10
  24607318.2674                                  129312327.59445
        36.0004
  23269591.5904                   23269583.1674  122282552.08146  95285081.09345
        40.0004         37.0004
  21401346.6274                   21401338.4484  112464881.35148  87634967.21648
        47.0004         45.0004
  20222175.9484                   20222166.3244  106268280.35848  82806439.86148
        48.0004         47.0004
  23225269.0974                   23225262.0524  122049641.74846  95103592.91045
        40.0004         38.0004
  24066972.9944                                  126472800.01645
        37.0004
  21347375.6734                   21347367.6784  112181250.01048  87413952.30848
        48.0004         45.0004
  22405515.5584                   22405507.7424  117741816.69948  91746839.79847
        47.0004         44.0004
  24504889.5434                                  128774072.13845
        36.0004
 03  8  3  0 22  0.0000000  0  9G24G16G27G13G 8G 3G 1G 2G10
  24617642.8604                                  129366587.07055
        36.0004
  23285391.4334                   23285383.0374  122365580.88246  95349778.85745
        40.0004         37.0004
  21390923.7414                   21390915.5644  112410108.77748  87592287.30848
        48.0004         46.0004
  20224729.8784                   20224720.2524  106281701.34948  82816897.76848
        48.0004         47.0004
  23206729.1024                   23206722.0154  121952213.60146  95027674.93345
        41.0004         38.0004
  24053291.6284                                  126400901.32955
        38.0004
  21359564.9464                   21359556.9634  112245305.07348  87463865.33148
        48.0004         45.0004
  22414593.1094                   22414585.2814  117789519.49148  91784010.80047
        47.0004         43.0004
  24486730.5174                                  128678646.18845
        36.0004
 03  8  3  0 22 30.0000000  0  9G24G16G27G13G 8G 3G 1G 2G10
  24628070.0364                                  129421383.68945
        36.0004
  23301289.2304                   23301280.8694  122449124.05246  95414877.31945
        41.0004         38.0004
  21380580.9524                   21380572.7634  112355757.05548  87549935.33148
        47.0004         45.0004
  20227399.8754                   20227390.2504  106295732.34148  82827831.02648
        48.0004         47.0004
  23188250.0114                   23188242.9154  121855105.57546  94952006.41845
        41.0004         38.0004
  24039700.2574                                  126329479.62745
        37.0004
  21371847.9984                   21371840.0174  112309852.82248  87514162.25748
        47.0004         45.0004
  22423775.1864                   22423767.3574  117837771.56648  91821609.80447
        47.0004         44.0004
  24468657.2494                                  128583660.27755
        36.0004
 03  8  3  0 23  0.0000000  0  9G24G16G27G13G 8G 3G 1G 2G10
  24638541.7574                                  129476413.13845
        37.0004
  23317225.7464                   23317217.3684  122532870.94946  95480134.62045
        40.0004         37.0004
  21370259.6514                   21370251.4344  112301518.31548  87507671.40048
        48.0004         45.0004
  20230127.2424                   20230117.6174  106310064.75348  82838999.13848
        48.0004         47.0004
  23169773.3744                   23169766.2494  121758010.44246  94876347.93645
        41.0004         38.0004
  24026141.7234                   24026137.7784  126258231.42746  98383026.06454
        39.0004         35.0004
  21384166.0174                   21384158.0364  112374584.38748  87564602.42548
        47.0004         45.0004
  22433002.8594                   22432995.0144  117886263.25148  91859395.51947
        47.0004         44.0004
  24450610.9964                                  128488827.01145
        37.0004
 03  8  3  0 23 30.0000000  0  9G24G16G27G13G 8G 3G 1G 2G10
  24649086.1634                   24649080.3844  129531827.36545 100933857.46354
        37.0004         34.0004
  23333229.8694                   23333221.5024  122616973.05646  95545668.68645
        40.0004         37.0004
  21359989.3494                   21359981.1334  112247547.51448  87465616.23748
        48.0004         45.0004
  20232941.4344                   20232931.8094  106324853.43348  82850522.78448
        48.0004         47.0004
  23151328.7294                   23151321.5754  121661083.43046  94800820.45645
        41.0004         38.0004
  24012646.5294                   24012640.2504  126187313.64045  98327765.50544
        37.0004         34.0004
  21396548.2054                   21396540.2384  112439653.09948  87615305.28448
        48.0004         45.0004
  22442305.1224                   22442297.2784  117935146.91448  91897486.67147
        47.0004         44.0004
  24432621.9614                                  128394293.99345
        36.0004
 03  8  3  0 24  0.0000000  0  9G24G16G27G13G 8G 3G 1G 2G10
  24659703.5294                   24659697.4164  129587620.37745 100977332.43444
        36.0004         33.0004
  23349300.4314                   23349292.0674  122701424.36746  95611474.89945
        40.0004         37.0004
  21349769.3734                   21349761.1424  112193841.23748  87423767.20548
        48.0004         46.0004
  20235841.7774                   20235832.1364  106340094.83548  82862399.20348
        48.0004         47.0004
  23132915.5784                   23132908.4104  121564322.03946  94725422.06145
        41.0004         38.0004
  23999213.8244                   23999207.2014  126116725.67546  98272761.97844
        39.0004         35.0004
  21408993.7484                   21408985.7814  112505054.86848  87666267.70048
        47.0004         45.0004
  22451681.0114                   22451673.1544  117984417.47948  91935879.31847
        46.0004         44.0004
  24414689.7074                                  128300060.42545
        37.0004
 03  8  3  0 24 30.0000000  0  9G24G16G27G13G 8G 3G 1G 2G10
  24670392.6684                                  129643792.24545
        36.0004
  23365437.4824                   23365429.1594  122786224.95946  95677553.21845
        39.0004         38.0004
  21339600.3074                   21339592.0754  112140402.56348  87382126.70348
        48.0004         46.0004
  20238828.8454                   20238819.2194  106355791.98448  82874630.74348
        48.0004         47.0004
  23114534.7244                   23114527.5544  121467730.18746  94650155.71546
        40.0004         39.0004
  23985845.1924                   23985838.2684  126046473.16345  98218019.87244
        38.0004         34.0004
  21421503.0744                   21421495.1204  112570791.75648  87717491.22848
        48.0004         45.0004
  22461130.7494                   22461122.8914  118034076.18948  91974574.41047
        47.0004         44.0004
  24396815.6244                                  128206131.61045
        36.0004
 03  8  3  0 25  0.0000000  0  9G24G16G27G13G 8G 3G 1G 2G10
  24681182.7834                                  129700495.55545
        37.0004
  23381670.0684                   23381661.7704  122871527.77246  95744022.92445
        40.0004         36.0004
  21329511.8254                   21329503.5814  112087387.23048  87340816.06648
        47.0004         45.0004
  20241932.2984                   20241922.6724  106372100.67848  82887338.80548
        48.0004         47.0004
  23096215.8084                   23096208.5694  121371464.01247  94575143.22045
        42.0004         38.0004
  23972570.4124                   23972563.5474  125976714.35245  98163662.29444
        37.0004         34.0004
  21434105.5734                   21434097.6054  112637018.27548  87769096.30048
        48.0004         45.0004
  22470683.5884                   22470675.7564  118084276.69648  92013691.67047
        47.0004         43.0004
  24379029.4954                                  128112660.56355
        36.0004
 03  8  3  0 25 30.0000000  0  9G24G16G27G13G 8G 3G 1G 2G10
  24692015.0014                                  129757418.61945
        36.0004
  23397938.8324                   23397930.5494  122957020.57746  95810640.66445
        40.0004         37.0004
  21319445.0744                   21319436.8294  112034486.15748  87299594.46348
        48.0004         45.0004
  20245093.1834                   20245083.5434  106388711.24048  82900282.10348
        48.0004         47.0004
  23077900.2224                   23077892.9994  121275215.14646  94500144.14845
        41.0004         38.0004
  23959331.2094                   23959324.4454  125907142.62045  98109450.63744
        38.0004         34.0004
  21446742.2084                   21446734.2404  112703424.17548  87820841.14247
        48.0004         44.0004
  22480280.3024                   22480272.4564  118134707.83048  92052988.67747
        47.0004         43.0004
  24361272.7734                                  128019349.60855
        36.0004
 03  8  3  0 26  0.0000000  0  8G16G27G13G 8G 3G 1G 2G10
  23414272.9804                   23414264.7264  123042856.85746  95877526.01345
        40.0004         37.0004
  21309429.7704                   21309421.5524  111981855.44548  87258583.51648
        48.0004         46.0004
  20248341.2314                   20248331.5904  106405779.84848  82913582.31548
        48.0004         47.0004
  23059617.8064                   23059610.6134  121179140.52446  94425280.83546
        41.0004         39.0004
  23946157.8814                   23946151.0714  125837916.62545  98055508.43244
        38.0004         35.0004
  21459442.5104                   21459434.5434  112770164.65148  87872846.70148
        47.0004         45.0004
  22489950.2734                   22489942.4544  118185523.81048  92092585.51447
        47.0004         43.0004
  24343576.5604                                  127926354.50745
        36.0004
 03  8  3  0 26 30.0000000  0  9G24G16G27G13G 8G 3G 1G 2G10
  24713893.0044                                  129872383.61655
        36.0004
  23430672.9034                   23430664.6494  123129038.78546  95944680.70745
        40.0004         37.0004
  21299466.9504                   21299458.7054  111929500.46948  87217787.44748
        48.0004         45.0004
  20251677.3974                   20251667.7594  106423311.52248  82927243.37048
        48.0004         47.0004
  23041369.6244                   23041362.3884  121083245.99547  94350557.90446
        42.0004         39.0004
  23933051.7534                   23933044.9204  125769043.71045  98001841.24944
        38.0004         34.0004
  21472207.2524                   21472199.2994  112837243.75848  87925116.11547
        47.0004         44.0004
  22499694.0124                   22499686.1934  118236727.44048  92132484.43647
        47.0004         43.0004
  24325941.3094                                  127833681.19645
        36.0004
 03  8  3  0 27  0.0000000  0  9G24G16G27G13G 8G 3G 1G 2G10
  24724937.2574                                  129930421.55544
        35.0004
  23447136.7914                   23447128.5274  123215557.09946  96012097.59745
        40.0004         37.0004
  21289555.3434                   21289547.0964  111877414.74848  87177201.19348
        48.0004         45.0004
  20255100.4414                   20255090.8024  106441299.73549  82941260.15648
        49.0004         47.0004
  23023154.6684                   23023147.4084  120987525.88047  94275970.85546
        42.0004         39.0004
  23920012.1884                   23920005.3114  125700520.27045  97948446.41944
        37.0004         35.0004
  21485035.0034                   21485027.0364  112904653.98348  87977643.55348
        47.0004         45.0004
  22509509.9374                   22509502.1144  118288310.53448  92172679.05347
        47.0004         43.0004
  24308366.3474                                  127741326.02445
        36.0004
 03  8  3  0 27 30.0000000  0  9G24G16G27G13G 8G 3G 1G 2G10
  24736050.1934                                  129988820.11545
        37.0004
  23463663.7104                   23463655.4614  123302406.27046  96079772.19545
        40.0004         37.0004
  21279694.5504                   21279686.3064  111825595.93448  87136822.90448
        47.0004         46.0004
  20258609.8554                   20258600.2294  106459741.83149  82955630.61148
        49.0004         47.0004
  23004972.5064                   23004965.1914  120891978.28447  94201518.27946
        42.0004         39.0004
  23907039.0514                   23907032.1794  125632346.22545  97895323.79844
        38.0004         35.0004
  21497925.0774                   21497917.1254  112972391.71848  88030426.18948
        48.0004         45.0004
  22519397.2504                   22519389.4284  118340268.65448  92213165.89047
        47.0004         43.0004
  24290851.6804                                  127649283.89155
        36.0004
 03  8  3  0 28  0.0000000  0  9G24G16G27G13G 8G 3G 1G 2G10
  24747232.6474                                  130047582.93445
        37.0004
  23480254.1554                   23480245.9054  123389589.64546  96147707.28745
        40.0004         37.0004
  21269885.7254                   21269877.4784  111774050.27348  87096657.45748
        48.0004         45.0004
  20262206.7614                   20262197.1224  106478643.70349  82970359.35148
        49.0004         47.0004
  22986824.5314                   22986817.2164  120796610.15947  94127205.48146
        42.0004         39.0004
  23894134.0714                   23894127.1864  125564530.34845  97842480.32344
        38.0004         35.0004
  21510878.4564                   21510870.5034  113040462.11948  88083468.04647
        47.0004         44.0004
  22529356.7094                   22529348.8854  118392605.96548  92253948.19847
        46.0004         43.0004
  24273399.9494                   24273393.9014  127557573.11545  99395482.24154
        36.0004         34.0004
 03  8  3  0 28 30.0000000  0  9G24G16G27G13G 8G 3G 1G 2G10
  24758483.4114                                  130106706.91054
        35.0004
  23496907.4784                   23496899.2594  123477103.38746  96215899.80045
        40.0004         37.0004
  21260128.6954                   21260120.4364  111722776.79448  87056704.12648
        48.0004         45.0004
  20265890.9754                   20265881.3354  106498004.37649  82985445.58548
        49.0004         48.0004
  22968710.6454                   22968703.3154  120701421.29347  94053032.39646
        42.0004         39.0004
  23881297.5354                   23881290.6674  125497074.01746  97789916.98644
        39.0004         35.0004
  21523894.7534                   21523886.7874  113108863.15948  88136767.55247
        47.0004         44.0004
  22539387.7864                   22539379.9764  118445319.57048  92295023.71847
        46.0004         43.0004
  24256010.4824                   24256004.2484  127466190.28445  99324274.89544
        36.0004         34.0004
 03  8  3  0 29  0.0000000  0 10G24G31G16G27G13G 8G 3G 1G 2G10
  24769801.6084                                  130166185.56345
        37.0004
  24712584.6434                                  129865515.82054
        33.0004
  23513622.7604                   23513614.5564  123564942.59646  96284345.90045
        40.0004         36.0004
  21250423.1164                   21250414.8574  111671773.63248  87016961.40048
        48.0004         45.0004
  20269662.0634                   20269652.4234  106517821.58049  83000887.56148
        49.0004         47.0004
  22950630.6194                   22950623.2764  120606410.36547  93978997.97046
        42.0004         39.0004
  23868529.6164                   23868522.7024  125429977.90445  97737634.30144
        38.0004         34.0004
  21536973.3934                   21536965.4284  113177591.81648  88190322.33647
        48.0004         44.0004
  22549489.6994                   22549481.8904  118498405.47748  92336389.36547
        47.0004         43.0004
  24238683.5914                                  127375135.73145
        37.0004
 03  8  3  0 29 30.0000000  0 10G24G31G16G27G13G 8G 3G 1G 2G10
  24781187.2224                                  130226017.80345
        36.0004
  24693505.0714                                  129765253.74044
        34.0004
  23530399.6124                   23530391.4914  123653105.36245  96353044.07845
        38.0004         36.0004
  21240769.1744                   21240760.9144  111621041.95048  86977430.24448
        48.0004         46.0004
  20273520.1964                   20273510.5554  106538096.26848  83016686.02748
        48.0004         47.0004
  22932584.8204                   22932577.4514  120511579.23847  93905103.64846
        42.0004         39.0004
  23855830.7064                   23855823.8024  125363245.17945  97685634.86844
        38.0004         35.0004
  21550114.3654                   21550106.4144  113246648.09248  88244132.41548
        48.0004         45.0004
  22559662.2944                   22559654.4984  118551862.76248  92378044.37047
        47.0004         43.0004
  24221419.6324                                  127284412.70545
        37.0004
 03  8  3  0 30  0.0000000  0 10G24G31G16G27G13G 8G 3G 1G 2G10
  24792639.7194                                  130286201.02044
        35.0004
  24674439.9014                                  129665065.53644
        34.0004
  23547237.6014                   23547229.4954  123741589.21846  96421992.45545
        40.0004         36.0004
  21231166.9284                   21231158.6684  111570581.93448  86938110.77748
        48.0004         45.0004
  20277465.3944                   20277455.7534  106558828.36048  83032840.89448
        48.0004         47.0004
  22914573.4224                   22914566.0424  120416928.82947  93831350.12446
        42.0004         39.0004
  23843201.5314                   23843194.6804  125296878.73245  97633920.78644
        38.0004         35.0004
  21563317.5294                   21563309.5644  113316031.12448  88298197.10847
        47.0004         44.0004
  22569905.1914                   22569897.3814  118605689.55148  92419987.32647
        46.0004         44.0004
  24204219.3874                                  127194024.24245
        37.0004
 03  8  3  0 30 30.0000000  0  9G24G31G16G27G13G 8G 3G 1G 2
  24804158.5444                                  130346734.29044
        35.0004
  24655389.3054                                  129564956.10144
        33.0004
  23564136.4194                   23564128.3394  123830393.23146  96491190.39645
        40.0004         36.0004
  21221616.8214                   21221608.5604  111520395.84448  86899004.74348
        48.0004         45.0004
  20281498.0094                   20281488.3694  106580019.89448  83049353.78148
        48.0004         47.0004
  22896596.9464                   22896589.5514  120322461.93747  93757739.58846
        42.0004         39.0004
  23830643.0464                   23830636.1854  125230883.32245  97582495.78544
        38.0004         35.0004
  21576583.0604                   21576575.0954  113385741.77048  88352517.05547
        47.0004         44.0004
  22580218.4454                   22580210.6524  118659886.00748  92462218.32047
        46.0004         43.0004
 03  8  3  0 31  0.0000000  0 10G24G31G16G27G13G 8G 3G 1G 2G10
  24815743.8524                                  130407615.36944
        35.0004
  24636354.2744                                  129464928.84044
        33.0004
  23581095.7414                   23581087.6704  123919515.06946  96560635.95844
        39.0004         35.0004
  21212118.9204                   21212110.6594  111470484.16349  86860112.55148
        49.0004         45.0004
  20285618.1094                   20285608.4814  106601671.22949  83066224.95148
        49.0004         47.0004
  22878655.6104                   22878648.2044  120228179.76947  93684273.01846
        43.0004         40.0004
  23818155.5774                   23818148.6644  125165261.35346  97531361.85044
        39.0004         35.0004
  21589910.8184                   21589902.8684  113455779.48848  88407091.86947
        47.0004         44.0004
  22590601.7594                   22590593.9644  118714450.56148  92504736.12347
        47.0004         43.0004
  24170012.7444                                  127014278.30655
        37.0004
 03  8  3  0 31 30.0000000  0 10G24G31G16G27G13G 8G 3G 1G 2G10
  24827393.7184                                  130468834.26845
        36.0004
  24617334.7974                                  129364979.37444
        35.0004
  23598113.6354                   23598105.6174  124008944.64346  96630321.29345
        39.0004         36.0004
  21202671.8824                   21202663.6084  111420839.70648  86821428.58248
        48.0004         46.0004
  20289824.2734                   20289814.6454  106623774.76749  83083448.48948
        49.0004         47.0004
  22860748.2134                   22860740.7904  120134075.94747  93610945.40546
        43.0004         39.0004
  23805738.3614                   23805731.4494  125100008.44246  97480515.42944
        39.0004         35.0004
  21603299.2244                   21603291.2614  113526136.03848  88461915.16347
        48.0004         44.0004
  22601053.3384                   22601045.5294  118769374.04148  92547533.65747
        47.0004         43.0004
  24153005.6824                                  126924906.65545
        36.0004
 03  8  3  0 32  0.0000000  0 10G24G31G16G27G13G 8G 3G 1G 2G10
  24839108.5744                                  130530396.75444
        35.0004
  24598332.1894                                  129265119.37144
        34.0004
  23615191.1894                   23615183.1864  124098687.67346  96700250.89945
        39.0004         36.0004
  21193277.3784                   21193269.1044  111371471.38148  86782959.78248
        48.0004         46.0004
  20294118.1034                   20294108.4764  106646338.99649  83101031.00948
        49.0004         47.0004
  22842876.5804                   22842869.1694  120040160.00547  93537764.16646
        42.0004         40.0004
  23793393.4094                   23793386.4934  125035135.71946  97429965.33844
        39.0004         35.0004
  21616749.7734                   21616741.8374  113596819.08748  88516992.83347
        47.0004         44.0004
  22611574.5484                   22611566.7394  118824663.31548  92590616.19347
        46.0004         43.0004
  24136064.7014                                  126835882.82345
        37.0004
 03  8  3  0 32 30.0000000  0 10G24G31G16G27G13G 8G 3G 1G 2G10
  24850888.2484                                  130592297.48144
        34.0004
  24579346.3244                                  129165349.35244
        32.0004
  23632327.4884                   23632319.4784  124188739.27846  96770420.89745
        39.0004         36.0004
  21183935.0014                   21183926.7294  111322376.85749  86744704.32048
        49.0004         46.0004
  20298499.1694                   20298489.5424  106669361.65349  83118970.74248
        49.0004         47.0004
  22825040.3814                   22825032.9734  119946430.21247  93464727.98546
        43.0004         40.0004
  23781120.9224                   23781114.0074  124970643.55145  97379711.74444
        38.0004         35.0004
  21630261.7964                   21630253.8744  113667825.12148  88572322.17947
        47.0004         44.0004
  22622164.4894                   22622156.7054  118880313.82948  92633980.21047
        46.0004         43.0004
  24119189.9874                                  126747196.85355
        37.0004
 03  8  3  0 33  0.0000000  0 10G24G31G16G27G13G 8G 3G 1G 2G10
  24862731.1144                                  130654532.16254
        34.0004
  24560378.2954                                  129065672.81244
        35.0004
  23649522.0304                   23649513.9964  124279097.08346  96840829.57644
        39.0004         35.0004
  21174644.8544                   21174636.5694  111273556.87048  86706662.79148
        48.0004         46.0004
  20302967.4644                   20302957.8374  106692842.76548  83137267.72448
        48.0004         47.0004
  22807239.8174                   22807232.4074  119852887.74247  93391837.76846
        42.0004         40.0004
  23768921.3934                   23768914.4954  124906534.78045  97329756.90744
        38.0004         35.0004
  21643835.1484                   21643827.2124  113739153.50348  88627902.73147
        47.0004         44.0004
  22632822.9324                   22632815.1504  118936324.26348  92677624.69847
        46.0004         43.0004
  24102382.3574                                  126658871.72345
        37.0004
 03  8  3  0 33 30.0000000  0 10G24G31G16G27G13G 8G 3G 1G 2G10
  24874637.7174                                  130717101.84444
        35.0004
  24541428.5004                                  128966092.84444
        34.0004
  23666774.2764                   23666766.2434  124369758.31246  96911474.70545
        39.0004         36.0004
  21165406.9694                   21165398.6834  111225011.57948  86668835.31848
        48.0004         46.0004
  20307523.0254                   20307513.4134  106716782.33849  83155921.92348
        49.0004         47.0004
  22789475.1244                   22789467.6994  119759533.77347  93319094.44846
        42.0004         40.0004
  23756795.2584                   23756788.3584  124842811.76045  97280102.65545
        38.0004         36.0004
  21657469.6624                   21657461.7404  113810803.29548  88683733.71647
        47.0004         44.0004
  22643549.5294                   22643541.7474  118992692.84748  92721548.25547
        47.0004         43.0004
  24085642.0444                                  126570900.16445
        38.0004
 03  8  3  0 34  0.0000000  0 10G24G31G16G27G13G 8G 3G 1G 2G10
  24886607.5634                                  130780001.12144
        34.0004
  24522497.8414                                  128866611.74344
        34.0004
  23684083.5914                   23684075.5564  124460719.37246  96982353.45045
        39.0004         36.0004
  21156221.2794                   21156212.9794  111176740.44949  86631221.45948
        49.0004         46.0004
  20312165.6374                   20312156.0384  106741179.49149  83174932.69448
        49.0004         47.0004
  22771746.3374                   22771738.8974  119666368.43447  93246498.09246
        43.0004         40.0004
  23744742.9294                   23744736.0044  124779476.40646  97230750.46745
        39.0004         36.0004
  21671165.0164                   21671157.1094  113882772.80648  88739813.83747
        47.0004         44.0004
  22654343.7394                   22654335.9714  119049416.86548  92765748.79947
        47.0004         43.0004
  24068969.1434                                  126483283.85245
        37.0004
 03  8  3  0 34 30.0000000  0 10G24G31G16G27G13G 8G 3G 1G 2G10
  24898638.5494                                  130843225.50744
        35.0004
  24503586.2794                                  128767230.62945
        36.0004
  23701449.1964                   23701441.2154  124551975.80945  97053462.23244
        38.0004         35.0004
  21147087.4324                   21147079.1204  111128741.76348  86593819.89448
        48.0004         46.0004
  20316894.9304                   20316885.3154  106766032.09449  83194298.36048
        49.0004         47.0004
  22754053.2534                   22754045.8014  119573390.58647  93174047.82346
        43.0004         40.0004
  23732764.4674                   23732757.5244  124716529.54445  97181701.03245
        38.0004         36.0004
  21684920.6824                   21684912.7624  113955059.19448  88796140.87647
        47.0004         44.0004
  22665204.8674                   22665197.0984  119106492.35648  92810223.17547
        46.0004         43.0004
  24052363.7934                   24052358.7224  126396023.33445  98490391.07354
        38.0004         33.0004
 03  8  3  0 35  0.0000000  0 10G24G31G16G27G13G 8G 3G 1G 2G10
  24910731.7564                                  130906775.36444
        35.0004
  24484694.9444                                  128667956.18144
        34.0004
  23718871.0184                   23718863.0404  124643528.28946  97124801.87845
        39.0004         36.0004
  21138006.1344                   21137997.8074  111081019.34448  86556633.62648
        48.0004         46.0004
  20321711.5854                   20321701.9704  106791343.78649  83214021.75648
        49.0004         47.0004
  22736396.6504                   22736389.1574  119480604.76347  93101747.25346
        43.0004         40.0004
  23720861.1654                   23720854.2454  124653977.20445  97132958.90644
        38.0004         35.0004
  21698737.1374                   21698729.2304  114027665.15548  88852716.93847
        46.0004         44.0004
  22676133.2174                   22676125.4504  119163921.15648  92854972.88447
        47.0004         43.0004
  24035827.5444                   24035821.2424  126309124.76045  98422677.98044
        38.0004         35.0004
 03  8  3  0 35 30.0000000  0 10G24G31G16G27G13G 8G 3G 1G 2G10
  24922886.1904                                  130970646.34744
        35.0004
  24465823.8224                                  128568789.45044
        35.0004
  23736348.4224                   23736340.4454  124735372.35146  97196368.61844
        39.0004         35.0004
  21128977.1074                   21128968.7944  111033571.54748  86519661.32648
        48.0004         46.0004
  20326615.1944                   20326605.5934  106817112.48648  83234101.26948
        48.0004         47.0004
  22718776.3734                   22718768.8654  119388009.82847  93029595.41446
        44.0004         40.0004
  23709032.9764                   23709026.0394  124591819.96445  97084524.75345
        38.0004         36.0004
  21712613.8674                   21712605.9744  114100587.73548  88909539.70147
        47.0004         44.0004
  22687128.0874                   22687120.3244  119221699.52948  92899994.99247
        46.0004         43.0004
  24019360.3264                   24019354.0324  126222588.82345  98355247.38344
        38.0004         35.0004
 03  8  3  0 36  0.0000000  0 10G24G31G16G27G13G 8G 3G 1G 2G10
  24935100.6964                                  131034834.81944
        34.0004
  24446974.0854                                  128469732.97644
        35.0004
  23753880.6414                   23753872.7064  124827504.59945  97268159.92144
        38.0004         35.0004
  21120000.2424                   21119991.9164  110986397.86948  86482902.63448
        48.0004         46.0004
  20331605.6394                   20331596.0394  106843337.38848  83254536.25048
        48.0004         47.0004
  22701192.4924                   22701184.9584  119295606.03947  92957592.50546
        43.0004         40.0004
  23697280.2714                   23697273.3094  124530059.58545  97036399.91744
        38.0004         35.0004
  21726550.5004                   21726542.6194  114173825.17548  88966607.80747
        46.0004         44.0004
  22698188.9784                   22698181.2134  119279824.83848  92945287.42447
        46.0004         43.0004
  24002962.3434                   24002955.9524  126136417.21545  98288100.73644
        38.0004         34.0004
 03  8  3  0 36 30.0000000  0 10G24G31G16G27G13G 8G 3G 1G 2G10
  24947375.9424                                  131099342.11244
        34.0004
  24428146.3074                                  128370793.96444
        35.0004
  23771467.9234                   23771460.0034  124919926.39045  97340176.90045
        38.0004         36.0004
  21111076.3994                   21111068.0864  110939502.81948  86446361.04548
        48.0004         46.0004
  20336683.6414                   20336674.0534  106870022.53549  83275329.87048
        49.0004         47.0004
  22683645.9194                   22683638.3834  119203398.35947  92885742.40246
        42.0004         40.0004
  23685604.4944                   23685597.5474  124468702.70846  96988589.30845
        39.0004         36.0004
  21740547.6604                   21740539.7804  114247380.68548  89023923.77647
        47.0004         44.0004
  22709316.2874                   22709308.5354  119338299.24248  92990851.88447
        46.0004         43.0004
  23986634.8374                   23986628.5454  126050616.21445  98221242.92244
        37.0004         34.0004
 03  8  3  0 37  0.0000000  0 10G24G31G16G27G13G 8G 3G 1G 2G10
  24959710.7824                                  131164161.94444
        34.0004
  24409341.0014                                  128271971.97745
        36.0004
  23789109.2204                   23789101.2884  125012631.65446  97412414.70145
        39.0004         36.0004
  21102204.8924                   21102196.5674  110892882.80048  86410033.78048
        48.0004         46.0004
  20341848.4984                   20341838.9114  106897164.04348  83296479.10148
        48.0004         47.0004
  22666136.1594                   22666128.6064  119111384.26647  92814043.16646
        42.0004         40.0004
  23674005.2104                   23673998.2494  124407748.31146  96941092.43545
        39.0004         36.0004
  21754604.4794                   21754596.6124  114321249.70448  89081484.03047
        47.0004         44.0004
  22720508.9504                   22720501.1974  119397117.08248  93036683.96447
        46.0004         42.0004
  23970377.6924                   23970371.1594  125965184.90545  98154673.20644
        38.0004         35.0004
 03  8  3  0 37 30.0000000  0 10G24G31G16G27G13G 8G 3G 1G 2G10
  24972104.9624                                  131229293.61544
        34.0004
  24390558.9974                                  128173272.06644
        35.0004
  23806804.2494                   23806796.3454  125105619.59845  97484872.81244
        38.0004         35.0004
  21093386.2084                   21093377.8684  110846540.36149  86373922.80848
        49.0004         46.0004
  20347100.5844                   20347090.9834  106924763.87948  83317985.45548
        48.0004         47.0004
  22648663.8244                   22648656.2554  119019566.77547  92742497.12546
        42.0004         40.0004
  23662483.4114                   23662476.4054  124347200.97245  96893912.72245
        38.0004         36.0004
  21768721.1474                   21768713.2814  114395433.23448  89139289.36747
        47.0004         44.0004
  22731767.0484                   22731759.2964  119456278.72348  93082783.93547
        46.0004         42.0004
  23954191.9334                   23954185.4054  125880128.23145  98088395.31344
        38.0004         35.0004
 03  8  3  0 38  0.0000000  0 10G24G31G16G27G13G 8G 3G 1G 2G10
  24984558.1544                                  131294734.70544
        35.0004
  24371800.6954                                  128074698.02244
        34.0004
  23824552.6584                   23824544.7674  125198888.05145  97557549.51144
        38.0004         35.0004
  21084620.4964                   21084612.1424  110800476.29649  86338028.74948
        49.0004         46.0004
  20352439.9754                   20352430.3734  106952822.56449  83339849.36648
        49.0004         47.0004
  22631229.1494                   22631221.5794  118927947.12747  92671105.22846
        43.0004         40.0004
  23651039.7004                   23651032.7084  124287063.93245  96847052.69445
        38.0004         36.0004
  21782897.6294                   21782889.7634  114469931.02248  89197339.56547
        47.0004         44.0004
  22743090.3514                   22743082.5864  119515782.95748  93129150.85347
        46.0004         42.0004
  23938077.9314                   23938071.4974  125795449.13746  98022411.74044
        39.0004         34.0004
 03  8  3  0 38 30.0000000  0 10G24G31G16G27G13G 8G 3G 1G 2G10
  24997069.3104                                  131360481.46245
        36.0004
  24353067.0364                                  127976252.04445
        36.0004
  23842353.7904                   23842345.9104  125292433.57345  97630442.08844
        38.0004         35.0004
  21075907.5574                   21075899.2164  110754689.49748  86302350.71248
        48.0004         46.0004
  20357866.4274                   20357856.8394  106981338.76649  83362069.77348
        49.0004         47.0004
  22613832.1704                   22613824.5634  118836525.38347  92599867.54346
        44.0004         40.0004
  23639674.2914                   23639667.2914  124227338.61345  96800513.52845
        38.0004         36.0004
  21797133.5044                   21797125.6374  114544740.98948  89255633.02947
        46.0004         44.0004
  22754478.2574                   22754470.4924  119575626.80948  93175782.42447
        46.0004         42.0004
  23922036.1824                   23922029.6464  125711149.17945  97956723.48045
        38.0004         36.0004
 03  8  3  0 39  0.0000000  0 10G24G31G16G27G13G 8G 3G 1G 2G10
  25009637.7304                                  131426528.70145
        36.0004
  24334358.3414                                  127877935.00245
        37.0004
  23860206.6264                   23860198.7384  125386250.98145  97703546.56244
        38.0004         35.0004
  21067247.0904                   21067238.7504  110709178.55748  86266887.67648
        48.0004         46.0004
  20363379.4724                   20363369.8984  107010310.01249  83384644.76748
        49.0004         47.0004
  22596472.5894                   22596464.9684  118745300.29647  92528783.09146
        44.0004         41.0004
  23628387.3104                   23628380.3494  124168025.25246  96754295.32245
        39.0004         36.0004
  21811428.1784                   21811420.3134  114619859.88248  89314167.21147
        46.0004         43.0004
  22765930.0374                   22765922.2754  119635806.19748  93222675.43447
        45.0004         43.0004
  23906066.5374                   23906059.9734  125627228.50246  97891330.77544
        39.0004         35.0004
 03  8  3  0 39 30.0000000  0 10G24G31G16G27G13G 8G 3G 1G 2G10
  25022234.0234                                  131492722.79544
        35.0004
  24315645.6734                                  127779598.82745
        37.0004
  23878082.0454                   23878074.1854  125480186.63145  97776743.09144
        38.0004         34.0004
  21058610.2934                   21058601.9534  110663792.00749  86231521.56248
        49.0004         46.0004
  20368950.3524                   20368940.7794  107039585.12049  83407456.53148
        49.0004         47.0004
  22579121.8024                   22579114.1684  118654121.60447  92457734.83946
        43.0004         40.0004
  23617150.3434                   23617143.3674  124108975.09246  96708282.32244
        39.0004         35.0004
  21825752.7034                   21825744.8514  114695135.64448  89372823.61147
        47.0004         44.0004
  22777416.5274                   22777408.7764  119696168.10548  93269710.67647
        46.0004         43.0004
  23890140.7544                   23890134.1364  125543538.57346  97826118.01044
        39.0004         35.0004
 03  8  3  0 40  0.0000000  0 10G24G31G16G27G13G 8G 3G 1G 2G10
  25034945.3994                                  131559521.40144
        35.0004
  24297017.2974                                  127681707.73944
        34.0004
  23896067.1144                   23896059.2434  125574698.74445  97850388.89844
        38.0004         35.0004
  21050085.0164                   21050076.6764  110618991.37448  86196611.97848
        48.0004         46.0004
  20374666.7434                   20374657.1694  107069625.01849  83430864.25548
        49.0004         47.0004
  22561867.7924                   22561860.1564  118563451.29647  92387082.67046
        43.0004         40.0004
  23606051.7644                   23606044.8024  124050651.66646  96662835.49045
        39.0004         36.0004
  21840194.6174                   21840186.7524  114771028.29148  89431960.71947
        46.0004         43.0004
  22789025.1104                   22789017.3454  119757171.62048  93317245.88447
        45.0004         43.0004
  23874347.1114                   23874340.5304  125460542.73146  97761445.95945
        39.0004         36.0004
 03  8  3  0 40 30.0000000  0 10G24G31G16G27G13G 8G 3G 1G 2G10
  25047683.0744                                  131626457.20744
        35.0004
  24278386.3114                                  127583800.12445
        36.0004
  23914072.9594                   23914065.0994  125669319.97145  97924119.68044
        38.0004         35.0004
  21041582.7624                   21041574.4214  110574311.85348  86161796.79148
        48.0004         46.0004
  20380440.1594                   20380430.5734  107099964.46349  83454505.37948
        49.0004         47.0004
  22544622.2184                   22544614.5814  118472825.32047  92316465.04946
        44.0004         41.0004
  23595003.5064                   23594996.5054  123992592.61746  96617594.68945
        39.0004         36.0004
  21854665.2814                   21854657.4044  114847071.95748  89491215.49747
        46.0004         43.0004
  22800666.9504                   22800659.1984  119818349.90448  93364917.26547
        46.0004         42.0004
  23858597.6184                   23858590.9804  125377778.77646  97696954.62544
        39.0004         35.0004
 03  8  3  0 41  0.0000000  0 10G24G31G16G27G13G 8G 3G 1G 2G10
  25060476.2654                                  131693685.63445
        36.0004
  24259782.7494                                  127486037.55645
        37.0004
  23932129.7674                                  125764191.01256
        39.0004
  21033133.8334                   21033125.4784  110529912.49348  86127199.90548
        48.0004         46.0004
  20386300.6874                   20386291.1004  107130761.74749  83478503.25648
        49.0004         47.0004
  22527415.3714                   22527407.7374  118382402.97847  92246006.14646
        44.0004         41.0004
  23584036.0664                   23584029.0494  123934958.77046  96572685.28844
        40.0004         35.0004
  21869194.6074                   21869186.7154  114923424.01548  89550710.59547
        46.0004         43.0004
  22812371.8804                   22812364.1424  119879859.66548  93412846.92847
        46.0004         42.0004
  23842922.8524                   23842916.1944  125295407.76145  97632769.49444
        38.0004         35.0004
 03  8  3  0 41 30.0000000  0 10G24G31G16G27G13G 8G 3G 1G 2G10
  25073353.4334                                  131761361.23054
        34.0004
  24241236.0364                                  127388576.41945
        36.0004
  23950264.9004                                  125859492.47046
        39.0004
  21024767.4154                   21024759.0614  110485946.67049  86092940.82648
        49.0004         46.0004
  20392277.4364                   20392267.8514  107162169.71349  83502976.99148
        49.0004         47.0004
  22510276.6684                   22510269.0094  118292338.54747  92175826.11046
        44.0004         41.0004
  23573179.1954                   23573172.1984  123877905.65246  96528228.29745
        39.0004         36.0004
  21883811.5944                   21883803.7164  115000236.67748  89610564.58447
        46.0004         43.0004
  22824168.6684                   22824160.9304  119941852.07848  93461152.68047
        45.0004         43.0004
  23827352.5294                   23827345.9124  125213585.22545  97569011.66844
        38.0004         35.0004
 03  8  3  0 42  0.0000000  0 10G24G31G16G27G13G 8G 3G 1G 2G10
  25086256.8284                                  131829167.46544
        35.0004
  24222689.4334                                  127291114.11544
        35.0004
  23968420.4414                                  125954900.98346
        39.0004
  21016425.3124                   21016416.9594  110442108.68949  86058781.37548
        49.0004         47.0004
  20398312.2034                   20398302.6294  107193882.68648  83527688.40048
        48.0004         47.0004
  22493148.1064                   22493140.4184  118202327.47247  92105687.64546
        44.0004         40.0004
  23562375.1244                   23562368.1014  123821130.06346  96483987.64145
        39.0004         36.0004
  21898457.8494                   21898449.9854  115077203.26548  89670538.54347
        46.0004         43.0004
  22835998.7564                   22835991.0194  120004019.61348  93509594.91447
        45.0004         43.0004
  23811828.8214                   23811822.1424  125132007.83945  97505444.92644
        38.0004         35.0004
 03  8  3  0 42 30.0000000  0 10G24G31G16G27G13G 8G 3G 1G 2G10
  25099213.2334                                  131897255.02144
        35.0004
  24204171.8384                                  127193803.68645
        37.0004
  23986624.4564                                  126050563.60245
        38.0004
  21008136.1004                   21008127.7344  110398548.64549  86024838.51148
        49.0004         46.0004
  20404433.4554                   20404423.8824  107226050.08649  83552753.90748
        49.0004         47.0004
  22476058.2734                   22476050.5574  118112520.10747  92035707.95746
        44.0004         41.0004
  23551652.8094                   23551645.7304  123764784.17046  96440081.82345
        39.0004         36.0004
  21913161.7024                   21913153.8384  115154472.34648  89730748.17847
        46.0004         43.0004
  22847890.3564                   22847882.6334  120066510.26448  93558288.90047
        46.0004         42.0004
  23796380.7384                   23796374.0144  125050827.92645  97442187.92244
        38.0004         35.0004
 03  8  3  0 43  0.0000000  0 10G24G31G16G27G13G 8G 3G 1G 2G10
  25112222.5014                                  131965618.81544
        35.0004
  24185683.7484                                  127096645.92945
        37.0004
  24004875.7844                                  126146475.41445
        38.0004
  20999899.4074                   20999891.0414  110355264.59449  85991110.69048
        49.0004         47.0004
  20410640.6834                   20410631.1224  107258669.28849  83578171.45548
        49.0004         47.0004
  22459007.0044                   22458999.2754  118022915.20947  91965885.99646
        44.0004         41.0004
  23541012.3344                   23541005.2554  123708868.28446  96396511.04645
        39.0004         36.0004
  21927922.4674                   21927914.5914  115232040.63148  89791190.99347
        46.0004         43.0004
  22859842.6044                   22859834.8824  120129319.75048  93607231.36147
        45.0004         42.0004
  23781008.2774                   23781001.5484  124970045.59746  97379240.74445
        39.0004         36.0004
 03  8  3  0 43 30.0000000  0 10G24G31G16G27G13G 8G 3G 1G 2G10
  25125285.0484                                  132034263.14944
        35.0004
  24167226.1314                                  126999640.12255
        36.0004
  24023175.5444                                  126242638.80255
        37.0004
  20991716.6134                   20991708.2464  110312263.78348  85957603.57848
        48.0004         47.0004
  20416935.1474                   20416925.5874  107291746.91948  83603946.23748
        48.0004         47.0004
  22441995.7384                   22441987.9964  117933520.59047  91896227.90046
        44.0004         41.0004
  23530455.5124                   23530448.4364  123653391.87146  96353282.69945
        39.0004         37.0004
  21942741.3334                   21942733.4694  115309914.23248  89851871.69847
        46.0004         43.0004
  22871856.4794                   22871848.7714  120192453.09348  93656426.16447
        45.0004         43.0004
  23765713.3984                   23765706.6534  124889670.65446  97316610.95844
        39.0004         35.0004
 03  8  3  0 44  0.0000000  0 10G24G31G16G27G13G 8G 3G 1G 2G10
  25138399.8624                                  132103182.02444
        34.0004
  24148798.9314                                  126902808.28044
        35.0004
  24041522.2304                                  126339051.97645
        37.0004
  20983587.1394                   20983578.7874  110269543.17548  85924314.80048
        48.0004         46.0004
  20423316.2134                   20423306.6674  107325279.64849  83630075.62848
        49.0004         47.0004
  22425024.0604                   22425016.3184  117844334.00848  91826731.90546
        45.0004         41.0004
  23519982.0764                   23519974.9784  123598353.78146  96310395.94945
        40.0004         36.0004
  21957617.4824                   21957609.6194  115388088.79648  89912786.92147
        46.0004         43.0004
  22883931.0254                   22883923.3174  120255905.19548  93705869.35147
        45.0004         42.0004
  23750495.8804                   23750489.1254  124809702.30946  97254298.03645
        39.0004         36.0004
 03  8  3  0 44 30.0000000  0 10G24G31G16G27G13G 8G 3G 1G 2G10
  25151595.3314                                  132172525.17844
        34.0004
  24130433.2554                                  126806296.06545
        37.0004
  24059945.0024                                  126435863.67145
        37.0004
  20975540.2344                   20975531.8674  110227256.46349  85891364.13348
        49.0004         46.0004
  20429813.0824                   20429803.5354  107359420.92249  83656679.21848
        49.0004         47.0004
  22408121.3544                   22408113.5844  117755509.93948  91757518.40846
        45.0004         41.0004
  23509621.7164                   23509614.6284  123543909.78346  96267972.04745
        39.0004         36.0004
  21972579.8594                   21972572.0084  115466716.61748  89974055.33947
        45.0004         43.0004
  22896095.0884                   22896087.3964  120319827.59348  93755678.97047
        45.0004         42.0004
  23735385.3804                   23735378.5994  124730296.34646  97192423.33245
        39.0004         36.0004
 03  8  3  0 45  0.0000000  0 10G24G31G16G27G13G 8G 3G 1G 2G10
  25164813.0424                                  132241983.59744
        35.0004
  24112070.8944                                  126709799.58045
        36.0004
  24078384.9964                                  126532764.42845
        37.0004
  20967517.5664                   20967509.2124  110185097.12149  85858512.70348
        49.0004         46.0004
  20436367.2314                   20436357.6974  107393863.27549  83683517.41448
        49.0004         47.0004
  22391229.4514                   22391221.6404  117666742.38847  91688348.90946
        44.0004         41.0004
  23499316.4554                   23499309.3364  123489755.52046  96225773.97545
        39.0004         36.0004
  21987569.9564                   21987562.1074  115545490.05048  90035437.22447
        46.0004         43.0004
  22908289.8844                   22908282.1914  120383911.67848  93805614.62047
        45.0004         42.0004
  23720323.9754                   23720317.1794  124651148.44146  97130749.71245
        39.0004         36.0004
 03  8  3  0 45 30.0000000  0 10G24G31G16G27G13G 8G 3G 1G 2G10
  25178051.1744                                  132311549.57245
        36.0004
  24093710.5454                                  126613317.60745
        37.0004
  24096839.9274                                  126629747.06045
        37.0004
  20959518.2814                   20959509.9134  110143060.65649  85825757.03448
        49.0004         46.0004
  20442977.7754                   20442968.2554  107428601.85149  83710586.42048
        49.0004         47.0004
  22374347.5574                   22374339.7324  117578027.68748  91619220.63146
        45.0004         41.0004
  23489065.9024                   23489058.8254  123435888.81246  96183799.97245
        39.0004         36.0004
  22002586.6924                   22002578.8554  115624403.40248  90096928.11047
        46.0004         43.0004
  22920514.2074                   22920506.5444  120448150.86548  93855671.11347
        45.0004         42.0004
  23705311.2654                   23705304.4564  124572256.30646  97069275.37045
        39.0004         36.0004
 03  8  3  0 46  0.0000000  0 10G24G31G16G27G13G 8G 3G 1G 2G10
  25191398.7184                                  132381691.39045
        36.0004
  24075443.3414                                  126517324.11845
        36.0004
  24115399.7864                                  126727279.40045
        38.0004
  20951632.0654                   20951623.6854  110101618.31349  85793464.31448
        49.0004         46.0004
  20449734.2014                   20449724.6804  107464107.11249  83738252.85248
        49.0004         47.0004
  22357565.4974                   22357557.6714  117489837.55448  91550501.08646
        45.0004         41.0004
  23478960.1044                   23478953.0404  123382782.67646  96142418.59845
        39.0004         36.0004
  22017719.4024                   22017711.5544  115703926.20948  90158893.91947
        46.0004         42.0004
  22932857.2014                   22932849.5524  120513013.86448  93906213.73047
        45.0004         42.0004
  23690437.3194                   23690430.5114  124494093.19046  97008369.05245
        39.0004         36.0004
 03  8  3  0 46 30.0000000  0 10G24G31G16G27G13G 8G 3G 1G 2G10
  25204795.5884                                  132452092.60344
        35.0004
  24057210.3424                                  126421509.05945
        36.0004
  24134004.1484                                  126825045.92345
        37.0004
  20943799.2724                   20943790.9064  110060456.77049  85761390.39048
        49.0004         46.0004
  20456576.8364                   20456567.3154  107500065.40249  83766272.29848
        49.0004         47.0004
  22340823.8394                   22340815.9874  117401859.67348  91481946.93546
        45.0004         41.0004
  23468939.8794                   23468932.8484  123330126.03946  96101387.46145
        40.0004         37.0004
  22032908.2854                   22032900.4354  115783744.26348  90221089.78647
        45.0004         42.0004
  22945258.9774                   22945251.3374  120578185.63648  93956996.90347
        45.0004         42.0004
  23675642.8814                   23675636.0614  124416348.20646  96947788.62645
        39.0004         36.0004
 03  8  3  0 47  0.0000000  0 10G24G31G16G27G13G 8G 3G 1G 2G10
  25218212.4484                                  132522598.05744
        34.0004
  24038983.0564                                  126325723.65345
        37.0004
  24152623.7984                                  126922891.90345
        37.0004
  20935991.0464                   20935982.6664  110019424.33149  85729417.07848
        49.0004         46.0004
  20463476.6994                   20463467.1904  107536324.42649  83794526.07148
        49.0004         47.0004
  22324093.7754                   22324085.9094  117313942.77648  91413440.31446
        45.0004         41.0004
  23458976.7114                   23458969.6994  123277769.29946  96060590.03345
        39.0004         37.0004
  22048124.2014                   22048116.3504  115863704.37848  90283396.35347
        45.0004         42.0004
  22957690.2594                   22957682.6214  120643512.27548  94007900.74447
        45.0004         42.0004
  23660899.5754                   23660892.6994  124338871.86246  96887417.52245
        40.0004         36.0004
 03  8  3  0 47 30.0000000  0 10G24G31G16G27G13G 8G 3G 1G 2G10
  25231677.4764                                  132593356.56644
        35.0004
  24020790.9374                                  126230122.42045
        37.0004
  24171287.0474                   24171280.2744  127020966.06745  98977352.07554
        36.0004         34.0004
  20928236.2674                   20928227.8874  109978672.75448  85697662.61948
        48.0004         46.0004
  20470462.5274                   20470453.0204  107573035.20249  83823131.87548
        49.0004         47.0004
  22307404.3044                   22307396.4394  117226239.33147  91345100.03647
        44.0004         42.0004
  23449099.8274                   23449092.8294  123225866.10846  96020146.02445
        40.0004         37.0004
  22063395.7614                   22063387.9234  115943956.90547  90345930.76547
        44.0004         42.0004
  22970179.3504                   22970171.7254  120709142.95248  94059041.54047
        45.0004         42.0004
  23646236.6594                   23646229.7814  124261817.90246  96827375.51445
        39.0004         36.0004
 03  8  3  0 48  0.0000000  0 10G24G31G16G27G13G 8G 3G 1G 2G10
  25245219.7424                                  132664521.53044
        35.0004
  24002663.5534                                  126134864.99944
        35.0004
  24190022.3174                   24190015.3994  127119422.44945  99054071.40244
        37.0004         33.0004
  20920564.7324                   20920556.3384  109938358.62748  85666249.03248
        48.0004         46.0004
  20477564.0214                   20477554.5254  107610353.86348  83852211.35348
        48.0004         47.0004
  22290785.4124                   22290777.5344  117138906.65248  91277048.64847
        45.0004         42.0004
  23439339.5224                   23439332.5004  123174575.29946  95980179.17045
        40.0004         37.0004
  22078752.5224                   22078744.7004  116024657.23248  90408814.13847
        45.0004         42.0004
  22982755.7694                   22982748.1714  120775232.35847  94110539.73247
        44.0004         42.0004
  23631684.3944                   23631677.4994  124185345.35846  96767786.54045
        40.0004         36.0004
 03  8  3  0 48 30.0000000  0 10G24G31G16G27G13G 8G 3G 1G 2G10
  25258779.9774                                  132735782.23344
        35.0004
  23984544.2104                                  126039646.83545
        38.0004
  24208771.6214                   24208764.5774  127217950.39445  99130846.40144
        37.0004         35.0004
  20912917.8944                   20912909.4864  109898174.28549  85634936.57948
        49.0004         46.0004
  20484722.5514                   20484713.0574  107647972.13349  83881524.28248
        49.0004         47.0004
  22274178.6914                   22274170.7874  117051637.80448  91209046.98347
        45.0004         42.0004
  23429637.5344                   23429630.5134  123123591.00946  95940451.15745
        39.0004         37.0004
  22094135.6904                   22094127.8684  116105496.19848  90471805.51747
        46.0004         42.0004
  22995360.5254                   22995352.9154  120841470.73648  94162154.05247
        45.0004         42.0004
  23617184.5424                   23617177.6234  124109148.56346  96708412.53345
        39.0004         36.0004
 03  8  3  0 49  0.0000000  0  9G24G31G16G27G13G 8G 3G 1G10
  25272387.3754                                  132807289.97044
        35.0004
  23966462.2524                                  125944625.44145
        37.0004
  24227563.4084                   24227556.1374  127316701.46545  99207795.13744
        37.0004         34.0004
  20905325.1904                   20905316.7684  109858274.41849  85603845.79048
        49.0004         47.0004
  20491967.3634                   20491957.8704  107686043.87849  83911190.57848
        49.0004         47.0004
  22257613.6444                   22257605.7274  116964588.08348  91141216.08247
        45.0004         42.0004
  23420023.5824                   23420016.5494  123073069.72446  95901084.01945
        40.0004         36.0004
  22109574.4404                   22109566.6194  116186627.19048  90535024.43347
        46.0004         42.0004
  23602767.0054                   23602760.0864  124033384.01646  96649375.25445
        40.0004         37.0004
 03  8  3  0 49 30.0000000  0 10G24G31G16G27G13G 8G 3G 1G 2G10
  25286070.4804                                  132879194.42344
        35.0004
  23948447.0204                                  125849956.44745
        36.0004
  24246425.9894                                  127415825.74645
        36.0004
  20897815.6644                   20897807.2564  109818811.71649  85573095.65748
        49.0004         47.0004
  20499327.4404                   20499317.9454  107724721.28149  83941328.79448
        49.0004         47.0004
  22241119.4914                   22241111.5614  116877910.91148  91073675.47847
        45.0004         42.0004
  23410527.3134                   23410520.2814  123023166.24146  95862198.13945
        40.0004         37.0004
  22125097.5184                   22125089.6964  116268201.51648  90598588.83947
        46.0004         42.0004
  23020770.6524                   23020763.2004  120974965.85058  94266177.23457
        45.0004         42.0004
  23588461.2364                   23588454.3004  123958206.94446  96590795.76645
        39.0004         36.0004
 03  8  3  0 50  0.0000000  0 10G24G31G16G27G13G 8G 3G 1G 2G10
  25299769.9734                                  132951185.43045
        36.0004
  23930441.2794                                  125755336.07345
        36.0004
  24265300.8934                                  127515013.34645
        36.0004
  20890330.8984                   20890322.4754  109779479.06748  85542446.85448
        48.0004         46.0004
  20506744.1984                   20506734.7034  107763696.60849  83971699.17648
        49.0004         47.0004
  22224637.9144                   22224629.9724  116791299.82648  91006186.37647
        45.0004         42.0004
  23401090.4774                   23401083.4464  122973575.64646  95823556.19145
        40.0004         37.0004
  22140646.3314                   22140638.5114  116349910.89248  90662258.44847
        45.0004         42.0004
  23033546.0054                   23033538.4604  121042100.22548  94318489.72446
        45.0004         41.0004
  23574209.1594                   23574202.1674  123883312.39946  96532436.53645
        39.0004         36.0004
 03  8  3  0 50 30.0000000  0  9G24G16G27G13G 8G 3G 1G 2G10
  25313514.9614                                  133023414.83044
        35.0004
  24284216.6044                                  127614416.26645
        36.0004
  20882900.4114                   20882892.0024  109740431.65749  85512020.31048
        49.0004         46.0004
  20514247.0384                   20514237.5574  107803124.29549  84002422.04948
        50.0004         47.0004
  22208198.5824                   22208190.6264  116704910.67948  90938870.19047
        45.0004         42.0004
  23391743.0304                   23391736.0104  122924454.85546  95785280.31645
        39.0004         37.0004
  22156250.0474                   22156242.2124  116431908.97448  90726153.06047
        45.0004         42.0004
  23046377.5214                   23046370.0174  121109530.23048  94371032.55846
        45.0004         41.0004
  23560040.8914                   23560033.9134  123808857.52246  96474419.71845
        39.0004         36.0004
 03  8  3  0 51  0.0000000  0 10G24G31G16G27G13G 8G 3G 1G 2G10
  25327333.5704                                  133096031.42044
        34.0004
  23894577.5864                                  125566854.34855
        37.0004
  24303201.8974                                  127714183.77945
        36.0004
  20875553.0344                   20875544.6104  109701821.05949  85481934.15648
        49.0004         46.0004
  20521864.7164                   20521855.2214  107843155.46349  84033615.17048
        49.0004         47.0004
  22191830.4624                   22191822.4924  116618895.87548  90871845.73347
        45.0004         42.0004
  23382514.3104                   23382507.3284  122875957.54246  95747490.15545
        39.0004         37.0004
  22171937.3444                   22171929.5234  116514346.14947  90790389.78547
        44.0004         42.0004
  23059293.8144                   23059286.2814  121177405.31148  94423922.18746
        45.0004         41.0004
  23545985.4524                   23545978.4444  123734996.12846  96416865.48545
        40.0004         36.0004
 03  8  3  0 51 30.0000000  0 10G24G31G16G27G13G 8G 3G 1G 2G10
  25341166.7794                                  133168725.29944
        34.0004
  23876690.9624                                  125472859.31445
        36.0004
  24322197.2394                                  127814005.54255
        36.0004
  20868230.4694                   20868222.0444  109663340.77948  85451949.53648
        48.0004         46.0004
  20529538.7654                   20529529.2834  107883482.86249  84065039.11148
        49.0004         47.0004
  22175475.3864                   22175467.4164  116532949.49848  90804874.55547
        45.0004         42.0004
  23373346.2434                   23373339.2514  122827779.27646  95709948.72245
        40.0004         36.0004
  22187649.6134                   22187641.8024  116596914.61748  90854728.81847
        45.0004         42.0004
  23072235.9604                   23072228.4754  121245416.99747  94476918.30746
        44.0004         41.0004
  23531985.0854                   23531978.0784  123661423.89446  96359536.51545
        40.0004         36.0004
 03  8  3  0 52  0.0000000  0 10G24G31G16G27G13G 8G 3G 1G 2G10
  25355072.8504                                  133241803.00844
        34.0004
  23858874.6354                                  125379234.82145
        36.0004
  24341261.6784                                  127914190.34445
        37.0004
  20860991.6904                   20860983.2664  109625300.80348  85422308.01248
        48.0004         46.0004
  20537328.0324                   20537318.5514  107924415.73749  84096934.85948
        49.0004         47.0004
  22159192.4094                   22159184.4274  116447382.12548  90738198.75147
        46.0004         42.0004
  23364298.1284                   23364291.1364  122780231.48646  95672898.57945
        40.0004         37.0004
  22203445.5374                   22203437.7414  116679922.75847  90919410.48647
        44.0004         42.0004
  23085262.4204                                  121313873.81657
        44.0004
  23518099.1144                   23518092.1224  123588452.62246  96302675.78445
        40.0004         37.0004
 03  8  3  0 52 30.0000000  0  9G31G16G27G13G 8G 3G 1G 2G10
  23841069.8984                                  125285666.98755
        38.0004
  24360335.2654                                  128014421.59345
        36.0004
  20853777.1314                   20853768.6934  109587388.16648  85392765.72948
        48.0004         47.0004
  20545172.8454                   20545163.3764  107965640.51149  84129058.04548
        49.0004         46.0004
  22142922.1794                   22142914.1864  116361881.61848  90671575.02047
        46.0004         42.0004
  23355310.9294                   23355303.9094  122733003.31346  95636097.38945
        40.0004         37.0004
  22219265.3494                   22219257.5794  116763056.36847  90984189.88847
        44.0004         42.0004
  23098313.9704                   23098306.1564  121382458.86447  94583699.36456
        44.0004         41.0004
  23504268.2924                   23504261.2614  123515771.53946  96246041.28045
        39.0004         37.0004
 03  8  3  0 53  0.0000000  0  9G31G16G27G13G 8G 3G 1G 2G10
  23823337.1874                                  125192480.83345
        37.0004
  24379476.9914                                  128115010.48145
        36.0004
  20846646.6014                   20846638.1514  109549916.91349  85363567.34948
        49.0004         46.0004
  20553132.7634                   20553123.3084  108007470.22249  84161652.63548
        49.0004         47.0004
  22126724.5454                   22126716.5524  116276762.66448  90605248.60247
        46.0004         42.0004
  23346444.6734                   23346437.6574  122686410.82146  95599791.57045
        41.0004         37.0004
  22235168.5014                   22235160.7434  116846627.99947  91049310.62347
        44.0004         42.0004
  23111449.2394                   23111441.3634  121451484.79247  94637485.77946
        44.0004         41.0004
  23490552.9564                   23490545.9394  123443696.95846  96189879.26845
        40.0004         36.0004
 03  8  3  0 53 30.0000000  0  9G31G16G27G13G 8G 3G 1G 2G10
  23805618.0974                                  125099366.32545
        37.0004
  24398626.7684                                  128215645.23645
        36.0004
  20839541.2274                   20839532.7774  109512577.98449  85334472.09448
        49.0004         46.0004
  20561148.9554                   20561139.4994  108049595.59848  84194477.59848
        48.0004         47.0004
  22110540.8464                   22110532.8384  116191717.00048  90538979.31147
        46.0004         43.0004
  23337640.8784                   23337633.8504  122640146.69346  95563741.63945
        40.0004         37.0004
  22251095.9294                   22251088.1814  116930327.19548  91114530.76047
        45.0004         42.0004
  23124609.1284                   23124601.3204  121520640.47548  94691373.28946
        45.0004         41.0004
  23476894.5324                   23476887.4874  123371921.89746  96133950.75345
        39.0004         37.0004
 03  8  3  0 54  0.0000000  0 10G31G16G27G13G 8G 3G 1G 2G22G10
  23787970.4334                                  125006630.22445
        36.0004
  24417842.8644                                  128316626.88045
        36.0004
  20832518.8294                   20832510.3784  109475675.09849  85305716.60948
        49.0004         47.0004
  20569279.0254                   20569269.5834  108092319.40449  84227768.87148
        49.0004         47.0004
  22094428.9884                   22094420.9524  116107048.74148  90473004.08347
        46.0004         42.0004
  23328957.7424                   23328950.6884  122594516.56446  95528185.72945
        40.0004         37.0004
  22267105.2094                   22267097.4744  117014456.34147  91180085.88546
        44.0004         41.0004
  23137851.0924                   23137843.3324  121590227.40448  94745596.86546
        45.0004         41.0004
  22094429.3704                                  116107012.74655
        36.0004
  23463351.3874                   23463344.3534  123300752.24846  96078493.88345
        39.0004         36.0004
 03  8  3  0 54 30.0000000  0 10G31G16G27G13G 8G 3G 1G 2G22G10
  23770338.4344                                  124913972.25945
        38.0004
  24437066.8344                                  128417649.14845
        36.0004
  20825521.6924                   20825513.2424  109438904.95749  85277064.57048
        49.0004         46.0004
  20577465.0784                   20577455.6364  108135337.46649  84261289.44948
        49.0004         47.0004
  22078331.4344                   22078323.4024  116022455.58548  90407087.37147
        46.0004         42.0004
  23320337.8304                   23320330.7344  122549218.80946  95492888.83245
        40.0004         37.0004
  22283138.2774                   22283130.5534  117098710.74947  91245738.66447
        44.0004         42.0004
  23151116.9454                   23151109.1894  121659939.93347  94799918.33346
        44.0004         41.0004
  22078331.9574                                  116022419.58145
        36.0004
  23449866.0084                   23449858.9194  123229886.60646  96023274.03345
        40.0004         36.0004
 03  8  3  0 55  0.0000000  0 10G31G16G27G13G 8G 3G 1G 2G22G10
  23752780.6174                   23752774.1334  124821706.11745  97263640.82554
        37.0004         35.0004
  24456357.1724                                  128519019.99445
        37.0004
  20818608.9544                   20818600.5034  109402578.39649  85248758.18248
        49.0004         46.0004
  20585766.1324                   20585756.6874  108178959.79749  84295280.86748
        49.0004         47.0004
  22062307.3894                   22062299.3584  115938248.91148  90341471.83647
        45.0004         42.0004
  23311840.6604                   23311833.5634  122504566.13246  95458094.58845
        40.0004         37.0004
  22299254.1074                   22299246.3964  117183399.88347  91311730.16146
        44.0004         41.0004
  23164465.5024                   23164457.7144  121730086.94848  94854578.30946
        45.0004         41.0004
  22062307.7634                                  115938212.87845
        36.0004
  23436498.1064                   23436491.0014  123159637.93146  95968534.83245
        40.0004         36.0004
 03  8  3  0 55 30.0000000  0 10G31G16G27G13G 8G 3G 1G 2G22G10
  23735239.4194                   23735232.0744  124729525.31545  97191811.71444
        37.0004         34.0004
  24475654.2664                                  128620427.03645
        36.0004
  20811721.7194                   20811713.2684  109366385.73249  85220556.10848
        49.0004         47.0004
  20594123.1594                   20594113.7294  108222876.27149  84329501.49348
        49.0004         47.0004
  22046298.1384                   22046290.0914  115854119.85248  90275916.75347
        46.0004         42.0004
  23303407.7224                   23303400.6114  122460250.68146  95423563.06045
        40.0004         37.0004
  22315393.4594                   22315385.7624  117268212.68547  91377818.04246
        44.0004         41.0004
  23177837.4464                   23177829.6164  121800356.80247  94909334.01346
        43.0004         41.0004
  22046298.4834                                  115854083.85545
        36.0004
  23423189.0794                   23423181.9774  123089698.58346  95914036.66645
        40.0004         36.0004
 03  8  3  0 56  0.0000000  0 10G31G16G27G13G 8G 3G 1G 2G22G10
  23717773.2834                   23717766.1454  124637742.33645  97120292.65444
        37.0004         34.0004
  24495016.4914                                  128722177.21245
        36.0004
  20804918.8584                   20804910.4074  109330636.58349  85192699.65448
        49.0004         46.0004
  20602594.9194                   20602585.4884  108267395.66949  84364191.93148
        49.0004         47.0004
  22030362.6424                   22030354.5814  115770378.50848  90210663.81447
        46.0004         43.0004
  23295098.1774                   23295091.0244  122416584.04146  95389537.19045
        41.0004         37.0004
  22331614.9964                   22331607.3004  117353457.24747  91444242.33947
        44.0004         42.0004
  23191291.2204                   23191283.4304  121871056.85947  94964424.94546
        44.0004         41.0004
  22030363.0014                                  115770342.51745
        37.0004
  23409998.1304                   23409990.9734  123020380.05646  95860022.33545
        40.0004         37.0004
 03  8  3  0 56 30.0000000  0 10G31G16G27G13G 8G 3G 1G 2G22G10
  23700325.0834                   23700317.8954  124546051.17745  97048845.04944
        37.0004         34.0004
  24514384.8334                                  128823958.91244
        35.0004
  20798141.6034                   20798133.1544  109295021.86749  85164947.93448
        49.0004         47.0004
  20611122.3964                   20611112.9644  108312207.86349  84399110.52148
        49.0004         46.0004
  22014442.3014                   22014434.2114  115686716.61448  90145472.75047
        45.0004         43.0004
  23286853.6384                   23286846.4604  122373258.63346  95355777.13945
        41.0004         38.0004
  22347859.6264                   22347851.9594  117438823.23347  91510761.25246
        44.0004         41.0004
  23204767.6444                   23204759.8974  121941876.00848  95019608.69946
        45.0004         41.0004
  22014442.5854                                  115686680.60745
        36.0004
  23396866.9944                   23396859.8354  122951375.40646  95806252.46045
        39.0004         37.0004
 03  8  3  0 57  0.0000000  0 10G31G16G27G13G 8G 3G 1G 2G22G10
  23682952.4204                   23682945.2794  124454757.46745  96977707.09044
        38.0004         34.0004
  24533816.3994                                  128926071.54345
        36.0004
  20791447.5334                   20791439.0574  109259844.29249  85137536.85148
        49.0004         47.0004
  20619763.0564                   20619753.6374  108357614.90249  84434492.63148
        49.0004         47.0004
  21998594.7684                   21998586.6784  115603437.45248  90080579.94047
        45.0004         43.0004
  23278731.8654                   23278724.6474  122330578.67646  95322520.11345
        40.0004         38.0004
  22364184.6584                   22364177.0054  117524611.72847  91577609.39946
        44.0004         41.0004
  23218323.9334                   23218316.1874  122013114.60247  95075119.25546
        44.0004         41.0004
  21998595.1014                                  115603401.45345
        36.0004
  23383853.4404                   23383846.2524  122882989.15746  95752964.57345
        40.0004         37.0004
 03  8  3  0 57 30.0000000  0 10G31G16G27G13G 8G 3G 1G 2G22G10
  23665627.7514                   23665620.6524  124363716.15545  96906765.95344
        38.0004         34.0004
  24553282.4184                                  129028364.66345
        36.0004
  20784808.4264                   20784799.9644  109224955.61348  85110350.87448
        48.0004         47.0004
  20628488.6064                   20628479.1994  108403467.97349  84470222.28848
        50.0004         46.0004
  21982792.0074                   21982783.9164  115520393.63148  90015870.51847
        46.0004         43.0004
  23270705.1474                   23270697.9184  122288398.17946  95289652.24945
        40.0004         37.0004
  22380561.6464                   22380553.9954  117610673.25947  91644670.31146
        44.0004         41.0004
  23231931.3834                   23231923.6764  122084622.29747  95130839.52146
        44.0004         41.0004
  21982792.4254                                  115520357.64145
        37.0004
  23370929.8104                   23370922.6214  122815075.45946  95700044.90145
        40.0004         37.0004
 03  8  3  0 58  0.0000000  0 10G31G16G27G13G 8G 3G 1G 2G22G10
  23648322.0454                   23648314.9364  124272774.86845  96835902.68644
        38.0004         35.0004
  24572752.5414                                  129130680.10045
        36.0004
  20778194.7904                   20778186.3124  109190200.78149  85083269.20248
        49.0004         46.0004
  20637269.3334                   20637259.9134  108449611.00549  84506177.90648
        49.0004         46.0004
  21967004.6424                   21966996.5394  115437430.59548  89951224.03647
        46.0004         43.0004
  23262744.2754                   23262737.0624  122246563.51446  95257053.81045
        40.0004         38.0004
  22396960.7854                   22396953.1494  117696851.12647  91711821.85646
        44.0004         41.0004
  23245560.1074                   23245552.4014  122156241.66147  95186646.81146
        44.0004         41.0004
  21967005.0694                                  115437394.58845
        36.0004
  23358066.9414                   23358059.7704  122747480.81646  95647373.80345
        40.0004         36.0004
 03  8  3  0 58 30.0000000  0 10G31G16G27G13G 8G 3G 1G 2G22G10
  23631094.6274                   23631087.6234  124182244.36645  96765359.47044
        37.0004         35.0004
  24592284.6184                                  129233322.66945
        37.0004
  20771665.1414                   20771656.6634  109155887.30849  85056531.44448
        49.0004         47.0004
  20646163.5994                   20646154.1784  108496350.68949  84542598.43648
        49.0004         46.0004
  21951291.3304                   21951283.2274  115354856.71048  89886880.77847
        46.0004         43.0004
  23254908.0094                   23254900.7964  122205383.90746  95224965.86245
        41.0004         37.0004
  22413440.3434                   22413432.7074  117783451.66547  91779302.76746
        43.0004         41.0004
  23259268.1724                   23259260.4634  122228278.02947  95242779.03046
        43.0004         40.0004
  21951291.6464                                  115354820.74545
        38.0004
  23345323.7104                   23345316.5104  122680514.93546  95595192.65745
        41.0004         37.0004
 03  8  3  0 59  0.0000000  0 10G31G16G27G13G 8G 3G 1G 2G22G10
  23613917.3524                   23613910.2474  124091977.11446  96695021.42444
        39.0004         35.0004
  24611850.2054                                  129336139.14944
        35.0004
  20765190.8054                   20765182.3264  109121864.50748  85030020.17748
        48.0004         47.0004
  20655142.5844                   20655133.1764  108543535.57448  84579365.86948
        48.0004         46.0004
  21935623.5404                   21935615.4234  115272522.04348  89822723.92547
        46.0004         42.0004
  23247168.0834                   23247160.8284  122164710.32246  95193272.17345
        40.0004         38.0004
  22429971.3834                   22429963.7614  117870322.73747  91846994.48146
        44.0004         41.0004
  23273026.5134                   23273018.7744  122300578.60247  95299117.13946
        44.0004         40.0004
  21935624.0434                                  115272486.06145
        37.0004
  23332671.8204                   23332664.5764  122614029.11446  95543385.60345
        41.0004         37.0004
                            4  1
RINEX FILE SPLICE; other post-header comments skipped       COMMENT
 03  8  3  1  0  0.0000000  0 10G31G16G27G13G 8G 3G 1G 2G22G10
  23579684.8654                   23579677.6724  123912084.24245  96554845.25244
        38.0004         34.0004
  24651047.7994                                  129542123.02345
        36.0004
  20752377.7644                   20752369.2714  109054531.58049  84977552.98448
        49.0004         47.0004
  20673323.7004                   20673314.3204  108639078.04449  84653814.54948
        49.0004         46.0004
  21904394.6624                   21904386.5294  115108413.49048  89694847.20147
        47.0004         43.0004
  23231948.0354                   23231940.7484  122084728.49046  95130948.74345
        40.0004         37.0004
  22463156.3944                   22463148.7844  118044710.96347  91982881.35546
        43.0004         41.0004
  23300662.0824                   23300654.3824  122445804.43447  95412280.08546
        44.0004         40.0004
  21904395.0834                                  115108377.45445
        37.0004
  23307613.2474                   23307605.9604  122482345.73746  95440775.25945
        41.0004         37.0004
 03  8  3  1  0 30.0000000  0 10G31G16G27G13G 8G 3G 1G 2G22G10
  23562659.7114                   23562652.5394  123822617.07846  96485130.67744
        39.0004         35.0004
  24670707.9624                                  129645437.31344
        35.0004
  20746068.0964                   20746059.6054  109021374.11748  84951716.01748
        48.0004         47.0004
  20682554.5094                   20682545.1304  108687586.21149  84691613.10948
        49.0004         46.0004
  21888862.8064                   21888854.6754  115026793.22748  89631247.04347
        46.0004         43.0004
  23224497.5514                   23224490.2384  122045575.87046  95100440.20945
        41.0004         38.0004
  22479838.8274                   22479831.2294  118132377.73747  92051193.11446
        43.0004         41.0004
  23314567.5074                   23314559.8334  122518877.74747  95469220.27046
        44.0004         41.0004
  21888863.1144                                  115026757.21745
        37.0004
  23295236.3094                   23295229.0114  122417304.67746  95390093.97245
        41.0004         37.0004
 03  8  3  1  1  0.0000000  0 10G31G16G27G13G 8G 3G 1G 2G22G10
  23545687.1784                   23545680.0454  123733426.18845  96415631.40244
        38.0004         35.0004
  24690398.9654                                  129748915.79345
        36.0004
  20739813.9274                   20739805.4224  108988508.23749  84926106.24648
        50.0004         47.0004
  20691869.5984                   20691860.2174  108736537.39749  84729756.89948
        49.0004         46.0004
  21873377.2314                   21873369.0874  114945416.10648  89567836.33647
        46.0004         43.0004
  23217144.7744                   23217137.4464  122006937.01546  95070332.07045
        41.0004         38.0004
  22496571.8554                   22496564.2824  118220310.27047  92119711.91846
        43.0004         41.0004
  23328521.7534                   23328514.0934  122592207.80347  95526360.57146
        44.0004         40.0004
  21873377.5504                                  114945380.09345
        37.0004
  23282952.4054                   23282945.0694  122352752.51546  95339793.65845
        41.0004         37.0004
 03  8  3  1  1 30.0000000  0 10G31G16G27G13G 8G 3G 1G 2G22G10
  23528767.8704                   23528760.6934  123644514.81145  96346349.86045
        38.0004         36.0004
  24710121.2734                                  129852555.78745
        36.0004
  20733615.3624                   20733606.8444  108955934.55549  84900724.16948
        49.0004         47.0004
  20701268.8494                   20701259.4814  108785930.79749  84768245.24948
        50.0004         46.0004
  21857938.0644                   21857929.9204  114864282.79548  89504615.59047
        46.0004         43.0004
  23209890.1014                   23209882.7844  121968813.70446  95040625.62745
        41.0004         37.0004
  22513355.2194                   22513347.6554  118308507.31647  92188436.83846
        43.0004         41.0004
  23342524.5304                   23342516.9004  122665792.64247  95583699.34946
        44.0004         40.0004
  21857938.4904                                  114864246.78545
        37.0004
  23270761.9924                   23270754.6404  122288691.46046  95289875.95145
        40.0004         37.0004
 03  8  3  1  2  0.0000000  0 10G31G16G27G13G 8G 3G 1G 2G22G10
  23511872.6824                   23511865.5254  123555729.87745  96277166.78244
        38.0004         35.0004
  24729843.6854                                  129956198.44644
        35.0004
  20727442.6314                   20727434.1274  108923496.69849  84875447.92548
        49.0004         47.0004
  20710722.4134                   20710713.0454  108835609.61049  84806956.01448
        50.0004         46.0004
  21842515.7594                   21842507.5734  114783238.15948  89441463.97247
        46.0004         43.0004
  23202704.1454                   23202696.8414  121931051.43546  95011200.51945
        40.0004         37.0004
  22530158.9094                   22530151.3584  118396811.36947  92257245.19546
        43.0004         40.0004
  23356545.6844                   23356538.0704  122739474.12047  95641113.44546
        44.0004         40.0004
  21842516.3044                                  114783202.15045
        37.0004
  23258635.6774                   23258628.2784  122224967.56046  95240221.02945
        41.0004         38.0004
 03  8  3  1  2 30.0000000  0 10G31G16G27G13G 8G 3G 1G 2G22G10
  23495061.0804                   23495053.8504  123467384.37646  96208326.15945
        39.0004         36.0004
  24749625.2824                                  130060151.25344
        35.0004
  20721354.8364                   20721346.3044  108891505.11949  84850519.43348
        50.0004         46.0004
  20720289.0964                   20720279.7274  108885882.86649  84846129.97748
        50.0004         46.0004
  21827169.4054                   21827161.2194  114702592.71448  89378623.40447
        47.0004         43.0004
  23195646.2384                   23195638.9634  121893961.82246  94982299.49945
        41.0004         38.0004
  22547041.7244                   22547034.2024  118485530.90847  92326377.24046
        43.0004         41.0004
  23370643.8204                   23370636.2194  122813560.07147  95698842.69846
        44.0004         40.0004
  21827169.7384                                  114702556.71645
        37.0004
  23246632.7574                   23246625.3154  122161892.16346  95191071.46445
        40.0004         37.0004
 03  8  3  1  3  0.0000000  0 10G31G16G27G13G 8G 3G 1G 2G22G10
  23478333.2834                   23478326.0514  123379479.64545  96139829.05845
        38.0004         36.0004
  24769465.1704                                  130164409.88144
        35.0004
  20715351.5774                   20715343.0594  108859957.84449  84825937.14948
        49.0004         47.0004
  20729968.3714                   20729959.0024  108936747.80049  84885764.99048
        49.0004         46.0004
  21811898.8554                   21811890.6674  114622345.61748  89316093.23347
        47.0004         43.0004
  23188716.2654                   23188708.9794  121857544.94146  94953922.81345
        41.0004         38.0004
  22564002.9944                   22563995.4724  118574662.92347  92395830.74646
        43.0004         40.0004
  23384818.1754                   23384810.5894  122888046.74647  95756884.24946
        43.0004         40.0004
  21811899.1884                                  114622309.62245
        37.0004
  23234753.4034                   23234745.9484  122099465.79746  95142427.56845
        40.0004         37.0004
 03  8  3  1  3 30.0000000  0 10G31G16G27G13G 8G 3G 1G 2G22G10
  23461630.9004                   23461623.6484  123291708.21946  96071435.82145
        39.0004         36.0004
  24789303.5884                                  130268661.21944
        35.0004
  20709373.7804                   20709365.2494  108828544.31049  84801459.07748
        49.0004         47.0004
  20739701.0094                   20739691.6524  108987893.16049  84925618.50548
        49.0004         46.0004
  21796645.1544                   21796636.9544  114542186.94148  89253631.95347
        46.0004         43.0004
  23181855.5124                   23181848.2284  121821491.56746  94925829.30745
        40.0004         38.0004
  22580983.4204                   22580975.9144  118663895.41047  92465362.50246
        43.0004         41.0004
  23399009.2694                   23399001.6554  122962621.32547  95814994.29246
        43.0004         40.0004
  21796645.4744                                  114542150.93845
        37.0004
  23222938.8054                   23222931.3534  122037379.79146  95094048.89945
        41.0004         38.0004
 03  8  3  1  4  0.0000000  0 10G31G16G27G13G 8G 3G 1G 2G22G10
  23444984.5864                   23444977.3434  123204231.37045  96003272.04945
        37.0004         36.0004
  24809170.0874                                  130373060.68844
        35.0004
  20703451.6084                   20703443.0764  108797423.14948  84777208.83348
        48.0004         46.0004
  20749516.9864                   20749507.6294  109039476.46649  84965813.28748
        49.0004         46.0004
  21781438.5604                   21781430.3614  114462275.87748  89191363.62247
        46.0004         43.0004
  23175094.2964                   23175087.0224  121785961.39046  94898143.48845
        41.0004         38.0004
  22598012.7854                   22598005.2684  118753385.20747  92535094.79846
        44.0004         41.0004
  23413246.8474                   23413239.2484  123037440.11547  95873294.60646
        43.0004         40.0004
  21781438.7784                                  114462239.89745
        37.0004
  23211219.4734                   23211212.0174  121975794.47446  95046060.36645
        40.0004         38.0004
 03  8  3  1  4 30.0000000  0 10G31G16G27G13G 8G 3G 1G 2G22G10
  23428395.0624                   23428387.8234  123117053.02246  95935340.92444
        39.0004         35.0004
  24829064.5704                                  130477606.65344
        35.0004
  20697585.1814                   20697576.6504  108766594.92649  84753186.86048
        49.0004         47.0004
  20759416.2224                   20759406.8794  109091497.30449  85006349.00148
        49.0004         46.0004
  21766279.3534                   21766271.1404  114382613.89448  89129289.39547
        47.0004         44.0004
  23168433.1184                   23168425.8144  121750956.84846  94870867.26645
        41.0004         38.0004
  22615090.9964                   22615083.4954  118843131.55947  92605026.96946
        43.0004         41.0004
  23427530.6274                   23427523.0304  123112501.69847  95931784.11746
        42.0004         40.0004
  21766279.7214                                  114382577.89145
        37.0004
  23199595.8894                   23199588.3774  121914712.56446  94998464.18845
        41.0004         37.0004
 03  8  3  1  5  0.0000000  0 11G28G31G16G27G13G 8G 3G 1G 2G22G10
  25197757.7504                                  132415113.45654
        34.0004
  23411862.5814                   23411855.2994  123030174.62346  95867643.56645
        39.0004         37.0004
  24848986.5484                                  130582294.91944
        35.0004
  20691774.2364                   20691765.7044  108736058.26849  84729392.07248
        49.0004         47.0004
  20769398.2704                   20769388.9264  109143953.31949  85047223.81248
        49.0004         46.0004
  21751167.3794                   21751159.1644  114303200.12548  89067408.56647
        47.0004         43.0004
  23161872.0124                   23161864.7124  121716478.06946  94844000.71445
        40.0004         38.0004
  22632217.4394                   22632209.9234  118933131.49747  92675156.76746
        43.0004         40.0004
  23441859.8914                   23441852.2784  123187802.42647  95990459.99246
        43.0004         40.0004
  21751167.7694                                  114303164.10745
        37.0004
  23188068.1994                   23188060.6874  121854134.08547  94951260.16645
        42.0004         38.0004
 03  8  3  1  5 30.0000000  0 11G28G31G16G27G13G 8G 3G 1G 2G22G10
  25176569.4384                                  132303769.87444
        33.0004
  23395387.8364                   23395380.5564  122943599.25445  95800182.24444
        38.0004         35.0004
  24868934.1794                                  130687123.05044
        34.0004
  20686018.8074                   20686010.2624  108705813.28349  84705824.56148
        49.0004         47.0004
  20779462.9954                   20779453.6654  109196843.80949  85088437.17548
        50.0004         46.0004
  21736102.8064                   21736094.5904  114224035.38348  89005721.78047
        47.0004         43.0004
  23155411.2244                   23155403.9664  121682526.45946  94817544.91445
        41.0004         37.0004
  22649391.9164                   22649384.4174  119023383.67347  92745483.07546
        43.0004         40.0004
  23456234.3104                   23456226.7234  123263340.44747  96049320.75546
        42.0004         40.0004
  21736103.0544                                  114223999.37545
        38.0004
  23176636.6494                   23176629.1264  121794061.07146  94904450.08245
        41.0004         38.0004
 03  8  3  1  6  0.0000000  0 11G28G31G16G27G13G 8G 3G 1G 2G22G10
  25155387.6654                                  132192458.53244
        33.0004
  23378971.8994                   23378964.5744  122857333.10846  95732961.92045
        39.0004         36.0004
  24888909.0924                                  130792091.36444
        34.0004
  20680319.4834                   20680310.9394  108675863.13648  84682486.78548
        48.0004         47.0004
  20789610.8144                   20789601.4974  109250170.95849  85129990.78948
        49.0004         46.0004
  21721086.3484                   21721078.1184  114145123.48948  88944232.02647
        47.0004         43.0004
  23149051.5784                   23149044.2774  121649106.54346  94791503.48945
        40.0004         38.0004
  22666614.6554                   22666607.1524  119113889.77747  92816007.29746
        42.0004         40.0004
  23470654.0824                   23470646.5224  123339116.73647  96108367.16746
        43.0004         40.0004
  21721086.7074                                  114145087.49745
        37.0004
  23165302.2334                   23165294.7104  121734498.43546  94858037.66945
        41.0004         38.0004
 03  8  3  1  6 30.0000000  0 12G28G31G16G27G13G 8G 3G 1G17G 2G22G10
  25134182.5364                                  132081023.82744
        33.0004
  23362585.3854                   23362578.0604  122771221.96246  95665862.44645
        39.0004         36.0004
  24908879.8904                                  130897040.30444
        34.0004
  20674646.3524                   20674637.7944  108646050.69149  84659256.32948
        49.0004         47.0004
  20799811.6384                   20799802.3084  109303776.58649  85171761.40448
        49.0004         46.0004
  21706088.2744                   21706080.0314  114066308.14148  88882817.49247
        47.0004         43.0004
  23142763.5604                   23142756.2864  121616062.59846  94765754.90445
        41.0004         38.0004
  22683855.5794                   22683848.1044  119204491.25547  92886605.79946
        42.0004         40.0004
  25248607.3814                                  132682331.25654
        34.0004
  23485088.8584                   23485081.3124  123414971.87147  96167475.03346
        43.0004         40.0004
  21706088.6544                                  114066272.13545
        37.0004
  23154035.3844                   23154027.8474  121675290.99546  94811902.06045
        41.0004         38.0004
 03  8  3  1  7  0.0000000  0 12G28G31G16G27G13G 8G 3G 1G17G 2G22G10
  25113013.1734                                  131969779.38544
        33.0004
  23346288.4834                   23346281.1594  122685580.66246  95599128.86244
        40.0004         35.0004
  24928906.1854                                  131002278.82144
        34.0004
  20669058.7454                   20669050.1874  108616687.68349  84636376.07548
        49.0004         47.0004
  20810124.4824                   20810115.1504  109357970.94549  85213990.76848
        50.0004         46.0004
  21691167.9714                   21691159.7284  113987901.60348  88821721.53247
        47.0004         43.0004
  23136606.6174                   23136599.3294  121583707.76846  94740543.38145
        41.0004         38.0004
  22701173.6524                   22701166.1744  119295498.21847  92957520.27646
        42.0004         40.0004
  25243648.4774                                  132656271.66344
        32.0004
  23499597.5594                   23499590.0244  123491215.54347  96226885.66146
        43.0004         40.0004
  21691168.3854                                  113987865.59345
        38.0004
  23142895.7934                   23142888.2304  121616752.17746  94766287.44245
        41.0004         38.0004
 03  8  3  1  7 30.0000000  0 12G28G31G16G27G13G 8G 3G 1G17G 2G22G10
  25091851.1194                                  131858571.29244
        34.0004
  23330051.7294                   23330044.3804  122600256.63046  95532642.77945
        40.0004         36.0004
  24948957.7194                                  131107648.71544
        34.0004
  20663527.1374                   20663518.5654  108587618.88848  84613725.06948
        48.0004         47.0004
  20820519.7194                   20820510.3874  109412598.28549  85256557.52448
        49.0004         46.0004
  21676296.0874                   21676287.8304  113909749.45048  88760823.78247
        47.0004         44.0004
  23130551.4594                   23130544.1704  121551888.07646  94715748.89245
        41.0004         38.0004
  22718539.0274                   22718531.5634  119386753.81847  93028628.51446
        43.0004         40.0004
  25238790.6744                                  132630732.29954
        34.0004
  23514150.1774                   23514142.6554  123567690.13147  96286476.25146
        42.0004         40.0004
  21676296.4704                                  113909713.46545
        38.0004
  23131854.2084                   23131846.6174  121558728.38146  94721074.13445
        41.0004         38.0004
 03  8  3  1  8  0.0000000  0 12G28G31G16G27G13G 8G 3G 1G17G 2G22G10
  25070696.8304                                  131747406.00244
        34.0004
  23313876.9784                   23313869.5914  122515257.61945  95466409.78245
        38.0004         36.0004
  24969034.3094                                  131213152.28344
        34.0004
  20658052.3534                   20658043.7834  108558848.70349  84591306.75248
        49.0004         47.0004
  20830998.0404                   20830988.7084  109467662.23449  85299464.49948
        49.0004         46.0004
  21661473.5524                   21661465.3094  113831856.69348  88700128.16347
        47.0004         44.0004
  23124599.3034                   23124591.9984  121520609.34847  94691375.86945
        42.0004         38.0004
  22735952.3034                   22735944.8394  119478261.01547  93099932.78446
        43.0004         40.0004
  25234037.8634                                  132605752.11144
        33.0004
  23528747.2774                   23528739.7564  123644398.03247  96346248.56346
        42.0004         40.0004
  21661473.8984                                  113831820.70045
        38.0004
  23120911.7964                   23120904.1774  121501225.74147  94676266.92245
        42.0004         38.0004
 03  8  3  1  8 30.0000000  0 12G28G31G16G27G13G 8G 3G 1G17G 2G22G10
  25049580.0724                                  131636438.18644
        34.0004
  23297793.6694                   23297786.2404  122430739.63246  95400551.71345
        39.0004         37.0004
  24989164.8584                                  131318940.09444
        34.0004
  20652663.5344                   20652654.9624  108530530.33249  84569240.49748
        49.0004         47.0004
  20841588.3444                   20841579.0124  109523314.59549  85342829.95948
        49.0004         46.0004
  21646729.7154                   21646721.4454  113754377.36848  88639754.69447
        47.0004         44.0004
  23118779.5234                   23118772.2454  121490026.25946  94667544.89045
        41.0004         38.0004
  22753442.3194                   22753434.8824  119570171.54547  93171551.33446
        43.0004         40.0004
  25229417.1014                                  132581467.65444
        33.0004
  23543417.4984                   23543410.0184  123721490.43947  96406320.52246
        43.0004         39.0004
  21646730.1764                                  113754341.35545
        38.0004
  23110098.0194                   23110090.3854  121444399.27446  94631986.62246
        41.0004         39.0004
 03  8  3  1  9  0.0000000  0 12G28G31G16G27G13G 8G 3G 1G17G 2G22G10
  25028442.2464                                  131525358.35244
        35.0004
  23281743.2644                   23281735.7934  122346394.49946  95334828.31345
        39.0004         36.0004
  25009290.1544                                  131424698.30144
        34.0004
  20647301.4964                   20647292.9244  108502352.69449  84547283.90748
        49.0004         47.0004
  20852231.2054                   20852221.8744  109579243.14449  85386410.63848
        49.0004         46.0004
  21632005.4344                   21631997.1524  113677000.81048  88579461.30047
        47.0004         44.0004
  23113033.1074                   23113025.8034  121459828.76247  94644014.42045
        42.0004         38.0004
  22770949.5624                   22770942.1204  119662172.78647  93243240.61146
        43.0004         39.0004
  25224869.2304                                  132557568.43344
        33.0004
  23558101.2674                   23558093.7864  123798654.10747  96466448.03546
        42.0004         40.0004
  21632005.9334                                  113676964.80845
        38.0004
  23099353.9744                   23099346.3424  121387939.18646  94587991.81245
        41.0004         38.0004
 03  8  3  1  9 30.0000000  0 12G28G31G16G27G13G 8G 3G 1G17G 2G22G10
  25007341.0694                                  131414473.04444
        34.0004
  23265784.3974                   23265776.9004  122262530.33346  95269479.69145
        39.0004         36.0004
  25029466.9104                                  131530729.31144
        34.0004
  20642024.3084                   20642015.7374  108474620.88249  84525674.70848
        49.0004         47.0004
  20862984.4934                   20862975.1744  109635752.11649  85430443.60348
        49.0004         46.0004
  21617358.9064                   21617350.6224  113600032.97748  88519486.39347
        47.0004         43.0004
  23107418.4344                   23107411.1184  121430323.33146  94621023.16045
        40.0004         38.0004
  22788531.8874                   22788524.4494  119754568.21947  93315236.99646
        43.0004         40.0004
  25220452.9324                                  132534360.00144
        32.0004
  23572856.2394                   23572848.7994  123876191.94447  96526867.09846
        42.0004         39.0004
  21617359.2704                                  113599996.94945
        38.0004
  23088738.1434                   23088730.5244  121332152.61647  94544521.75345
        42.0004         38.0004
 03  8  3  1 10  0.0000000  0 11G28G31G16G27G13G 8G 3G 1G 2G22G10
  24986219.5084                                  131303478.36644
        34.0004
  23249859.4134                   23249851.9154  122178844.35346  95204269.91345
        39.0004         36.0004
  25049637.2874                                  131636724.79344
        33.0004
  20636773.7424                   20636765.1704  108447029.03349  84504174.57648
        49.0004         47.0004
  20873789.8294                   20873780.5234  109692534.47949  85474689.57948
        49.0004         46.0004
  21602732.1364                   21602723.8534  113523168.90348  88459592.34547
        47.0004         44.0004
  23101877.5354                   23101870.2194  121401205.77546  94598334.16845
        41.0004         38.0004
  22806130.7904                   22806123.3524  119847050.76647  93387301.25046
        43.0004         40.0004
  23587623.8194                   23587616.3814  123953796.22647  96587338.00046
        43.0004         39.0004
  21602732.5764                                  113523132.90545
        38.0004
  23078192.5734                   23078184.9404  121276735.58647  94501339.72245
        42.0004         38.0004
 03  8  3  1 10 30.0000000  0 11G28G31G16G27G13G 8G 3G 1G 2G22G10
  24965076.9494                                  131192373.34444
        35.0004
  23233968.4504                   23233960.9434  122095336.84546  95139199.16745
        40.0004         37.0004
  25069799.6214                                  131742679.76144
        33.0004
  20631549.3514                   20631540.7804  108419574.67148  84482781.57548
        48.0004         47.0004
  20884646.5334                   20884637.2264  109749586.84049  85519145.96348
        49.0004         46.0004
  21588124.7304                   21588116.4214  113446406.53148  88399777.53947
        47.0004         44.0004
  23096410.0444                   23096402.7254  121372474.22946  94575946.00645
        41.0004         38.0004
  22823745.4094                   22823737.9724  119939616.08547  93459430.05046
        43.0004         39.0004
  23602403.1744                   23602395.7484  124031462.19547  96647856.91446
        42.0004         39.0004
  21588125.2414                                  113446370.52746
        39.0004
  23067717.1984                   23067709.5634  121221687.11646  94458444.80445
        41.0004         38.0004
 03  8  3  1 11  0.0000000  0 12G28G31G16G27G13G 8G 3G 1G17G 2G22G10
  24944002.2204                                  131081624.89344
        35.0004
  23218200.5224                   23218193.0334  122012476.19646  95074632.52045
        39.0004         36.0004
  25090042.5124                                  131849057.05844
        34.0004
  20626439.6924                   20626431.1084  108392723.23649  84461858.38548
        49.0004         47.0004
  20895642.9434                   20895633.6394  109807373.24149  85564174.30848
        49.0004         46.0004
  21573625.3824                   21573617.0754  113370211.94348  88340405.14347
        47.0004         44.0004
  23091104.8984                   23091097.5834  121344595.31247  94554222.15145
        42.0004         38.0004
  22841464.0674                   22841456.6314  120032727.88847  93531984.62046
        42.0004         39.0004
  25207730.9544                                  132467519.86854
        33.0004
  23617282.3774                   23617274.9374  124109652.93947  96708784.76946
        43.0004         39.0004
  21573625.8814                                  113370175.94245
        38.0004
  23057400.7224                   23057393.0574  121167473.92246  94416200.81245
        41.0004         38.0004
 03  8  3  1 11 30.0000000  0 11G28G31G16G27G13G 8G 3G 1G 2G22G10
  24922907.9974                                  130970775.38145
        36.0004
  23202468.8554                   23202461.3194  121929806.04446  95010214.28445
        39.0004         36.0004
  25110277.8724                                  131955394.72044
        34.0004
  20621357.3414                   20621348.7564  108366015.29749  84441047.00348
        49.0004         46.0004
  20906691.4064                   20906682.0994  109865433.30649  85609415.90748
        49.0004         46.0004
  21559146.8014                   21559138.4934  113294126.67348  88281117.95847
        48.0004         44.0004
  23085874.8554                   23085867.5424  121317111.18447  94532805.94245
        42.0004         38.0004
  22859198.9964                   22859191.5774  120125925.38147  93604606.01046
        43.0004         39.0004
  23632173.6434                   23632166.2334  124187906.94547  96769761.88446
        42.0004         39.0004
  21559147.2444                                  113294090.68845
        38.0004
  23047156.1934                   23047148.5104  121113638.62146  94374251.23245
        41.0004         38.0004
 03  8  3  1 12  0.0000000  0 11G28G31G27G13G 8G 3G 1G17G 2G22G10
  24901853.3334                                  130860132.62344
        35.0004
  23186832.3514                   23186824.7884  121847635.78546  94946185.55145
        39.0004         36.0004
  20616360.5774                   20616351.9904  108339757.25249  84420586.20648
        49.0004         47.0004
  20917850.0964                   20917840.7914  109924072.61649  85655108.88348
        49.0004         46.0004
  21544747.4464                   21544739.1244  113218457.61748  88222155.07247
        47.0004         44.0004
  23080778.4384                   23080771.0864  121290329.39846  94511937.05945
        41.0004         38.0004
  22877008.2484                   22877000.8284  120219513.44847  93677531.72846
        42.0004         39.0004
  25199795.0504                                  132425814.54054
        33.0004
  23647134.9024                   23647127.5204  124266528.70547  96831025.54346
        43.0004         39.0004
  21544747.9564                                  113218421.60745
        38.0004
  23037042.1734                   23037034.4784  121060489.33646  94332836.27345
        41.0004         38.0004
 03  8  3  1 12 30.0000000  0 12G28G31G16G27G13G 8G 3G 1G17G 2G22G10
  24880750.8134                                  130749238.44745
        36.0004
  23171203.8834                   23171196.2844  121765508.13146  94882190.06645
        40.0004         37.0004
  25150811.5944                                  132168411.92754
        32.0004
  20611361.9454                   20611353.3614  108313489.20349  84400117.59248
        49.0004         47.0004
  20929031.2024                   20929021.8964  109982829.72449  85700893.63948
        49.0004         46.0004
  21530339.8684                   21530331.5454  113142745.46948  88163158.63447
        47.0004         44.0004
  23075728.2974                   23075720.9314  121263790.72447  94491257.58245
        42.0004         38.0004
  22894803.9194                   22894796.5134  120313030.32947  93750402.01946
        42.0004         39.0004
  25195938.7304                                  132405553.62954
        34.0004
  23662078.1224                   23662070.7524  124345055.85447  96892215.51746
        42.0004         39.0004
  21530340.2114                                  113142709.45745
        38.0004
  23026971.4064                   23026963.6944  121007567.34746  94291598.40845
        41.0004         38.0004
 03  8  3  1 13  0.0000000  0 12G28G31G16G27G13G 8G 3G 1G17G 2G22G10
  24859717.3494                                  130638707.97145
        36.0004
  23155700.8734                   23155693.2234  121684039.51546  94818708.12345
        40.0004         37.0004
  25171138.1294                                  132275227.90544
        33.0004
  20606478.0904                   20606469.5044  108287824.43348  84380119.07848
        48.0004         46.0004
  20940351.2734                   20940341.9804  110042317.10349  85747247.42748
        49.0004         46.0004
  21516040.9764                   21516032.6544  113067604.34848  88104607.12547
        48.0004         44.0004
  23070841.4094                   23070834.0194  121238110.14246  94471246.80445
        41.0004         38.0004
  22912702.5644                   22912695.1994  120407088.03147  93823693.64946
        42.0004         39.0004
  25192244.4334                                  132386138.65544
        32.0004
  23677119.7364                   23677112.3654  124424099.94247  96953808.28246
        42.0004         39.0004
  21516041.2854                                  113067568.34446
        39.0004
  23017060.9234                   23017053.2114  120955487.59446  94251016.82545
        41.0004         38.0004
 03  8  3  1 13 30.0000000  0 11G28G31G27G13G 8G 3G 1G17G 2G22G10
  24838696.0284                                  130528240.68344
        35.0004
  23140266.3084                   23140258.6514  121602930.82646  94755506.63145
        39.0004         36.0004
  20601651.5834                   20601642.9954  108262461.03049  84360355.39148
        49.0004         46.0004
  20951752.6074                   20951743.3274  110102231.51749  85793933.97848
        49.0004         46.0004
  21501793.3904                   21501785.0534  112992732.90448  88046265.77247
        47.0004         44.0004
  23066060.6214                   23066053.2204  121212986.62346  94451669.98345
        41.0004         38.0004
  22930646.2774                   22930638.8984  120501382.75147  93897170.03146
        42.0004         39.0004
  25188654.2284                                  132367272.81344
        34.0004
  23692201.8084                   23692194.4274  124503356.76847  97015566.86546
        42.0004         39.0004
  21501793.8204                                  112992696.91045
        37.0004
  23007253.5814                   23007245.8834  120903949.85347  94210857.58045
        42.0004         38.0004
 03  8  3  1 14  0.0000000  0 12G28G31G16G27G13G 8G 3G 1G17G 2G22G10
  24817627.6874                                  130417526.36645
        36.0004
  23124841.5584                   23124833.8884  121521873.15746  94692344.80545
        39.0004         37.0004
  25211792.7594                                  132488862.30054
        33.0004
  20596823.0814                   20596814.4944  108237087.14349  84340583.54948
        49.0004         47.0004
  20963175.6314                   20963166.3524  110162259.84849  85840709.29248
        49.0004         46.0004
  21487537.9334                   21487529.5834  112917819.97248  87987892.06847
        48.0004         44.0004
  23061326.5644                   23061319.1204  121188109.29647  94432285.13445
        42.0004         38.0004
  22948575.4554                   22948568.0884  120595601.15646  93970586.94546
        41.0004         39.0004
  25185109.4564                                  132348644.71944
        34.0004
  23707264.6274                   23707257.2574  124582512.35547  97077246.51246
        42.0004         39.0004
  21487538.4344                                  112917783.98045
        38.0004
  22997490.3744                   22997482.6764  120852643.79246  94170878.81845
        41.0004         38.0004
 03  8  3  1 14 30.0000000  0 12G28G31G16G27G13G 8G 3G 1G17G 2G22G10
  24796659.2044                                  130307337.30644
        35.0004
  23109573.7074                   23109566.0384  121441640.11746  94629825.57345
        40.0004         37.0004
  25232206.8154                                  132596141.26544
        32.0004
  20592139.2354                   20592130.6614  108212473.36849  84321403.97348
        49.0004         47.0004
  20974766.7774                   20974757.4864  110223171.67149  85888173.04848
        49.0004         46.0004
  21473421.3584                   21473413.0094  112843636.99148  87930087.18047
        48.0004         44.0004
  23056786.3044                   23056778.8604  121164249.94446  94413693.40546
        41.0004         39.0004
  22966636.5414                   22966629.1724  120690512.61846  94044543.87546
        41.0004         39.0004
  25181756.6024                                  132331025.22844
        33.0004
  23722454.4924                   23722447.1334  124662335.44246  97139446.26546
        41.0004         39.0004
  21473421.8344                                  112843600.99345
        38.0004
  22987918.2004                   22987910.5004  120802341.86447  94131682.54546
        42.0004         39.0004
 03  8  3  1 15  0.0000000  0 12G28G31G16G27G13G 8G 3G 1G17G 2G22G10
  24775614.7624                                  130196748.57945
        36.0004
  23094286.8744                   23094279.1914  121361307.77046  94567229.05345
        39.0004         36.0004
  25252551.3624                                  132703049.64354
        33.0004
  20587423.6654                   20587415.0784  108187692.88049  84302094.51248
        49.0004         47.0004
  20986349.4614                   20986340.1814  110284039.14949  85935602.25048
        49.0004         46.0004
  21459267.4364                   21459259.0874  112769257.69348  87872129.30047
        47.0004         44.0004
  23052263.5144                   23052256.0494  121140482.58447  94395173.43646
        42.0004         39.0004
  22984652.7794                   22984645.4384  120785188.46446  94118317.22445
        41.0004         38.0004
  25178419.0684                                  132313487.68444
        33.0004
  23737594.5144                   23737587.1944  124741896.73447  97201442.03446
        42.0004         39.0004
  21459267.9144                                  112769221.70345
        38.0004
  22978360.9454                   22978353.2304  120752118.21647  94092547.24846
        42.0004         39.0004
 03  8  3  1 15 30.0000000  0 12G28G31G16G27G13G 8G 3G 1G17G 2G22G10
  24754641.8234                                  130086535.73245
        36.0004
  23079129.1114                   23079121.4434  121281653.12546  94505160.48345
        40.0004         37.0004
  25272973.1934                                  132810365.14844
        33.0004
  20582823.6604                   20582815.0704  108163519.74949  84283258.31248
        49.0004         47.0004
  20998070.7944                   20998061.5294  110345635.10849  85983599.08448
        49.0004         46.0004
  21445223.6054                   21445215.2434  112695456.98748  87814622.29147
        48.0004         44.0004
  23047905.7804                   23047898.3144  121117582.54047  94377329.24046
        42.0004         39.0004
  23002771.2054                   23002763.8884  120880401.18047  94192508.87146
        42.0004         39.0004
  25175244.5274                                  132296806.41944
        32.0004
  23752831.6774                   23752824.3714  124821968.31846  97263835.41446
        41.0004         39.0004
  21445224.0934                                  112695420.99146
        39.0004
  22968966.1684                   22968958.4554  120702748.51547  94054077.39946
        42.0004         39.0004
 03  8  3  1 16  0.0000000  0 11G28G31G16G27G13G 8G 3G 1G 2G22G10
  24733682.5964                                  129976394.43545
        36.0004
  23064042.5674                   23064034.9264  121202372.86346  94443383.65645
        40.0004         37.0004
  25293412.5434                                  132917776.16044
        33.0004
  20578280.9914                   20578272.4164  108139647.92848  84264656.90448
        48.0004         47.0004
  21009872.2674                   21009863.0014  110407652.26349  86031924.14048
        49.0004         46.0004
  21431231.7694                   21431223.4054  112621929.45548  87757328.11747
        48.0004         44.0004
  23043654.9834                   23043647.4894  121095244.44646  94359922.94545
        40.0004         38.0004
  23020933.2514                   23020925.9744  120975843.19246  94266879.20246
        41.0004         39.0004
  23768107.2854                   23768099.9894  124902242.24347  97326386.51646
        42.0004         39.0004
  21431232.1034                                  112621893.46246
        39.0004
  22959675.9684                   22959668.2284  120653928.24547  94016035.66346
        42.0004         39.0004
 03  8  3  1 16 30.0000000  0 11G28G31G27G13G 8G 3G 1G17G 2G22G10
  24712707.1804                                  129866168.44045
        36.0004
  23048997.7944                   23048990.1144  121123312.36246  94381778.16745
        40.0004         37.0004
  20573765.6744                   20573757.0864  108115919.71249  84246167.38448
        49.0004         46.0004
  21021723.6894                   21021714.4404  110469931.78649  86080453.61248
        49.0004         46.0004
  21417262.0224                   21417253.6434  112548518.06648  87700124.46747
        48.0004         44.0004
  23039481.3434                   23039473.8324  121073311.94647  94342832.70745
        43.0004         38.0004
  23039108.6054                   23039101.3384  121071355.25846  94341304.15646
        41.0004         39.0004
  25169179.5344                                  132264922.54354
        33.0004
  23783391.0134                   23783383.7004  124982558.65047  97388970.69646
        42.0004         39.0004
  21417262.3054                                  112548482.05445
        38.0004
  22950460.5764                   22950452.8384  120605501.09847  93978300.24146
        42.0004         39.0004
 03  8  3  1 17  0.0000000  0 10G28G31G27G13G 8G 3G 1G 2G22G10
  24691775.1644                                  129756169.76945
        36.0004
  23034054.4084                   23034046.6814  121044784.71346  94320587.86945
        41.0004         37.0004
  20569336.7304                   20569328.1424  108092645.52049  84228031.65748
        49.0004         47.0004
  21033683.8184                   21033674.5694  110532782.62149  86129428.27748
        49.0004         45.0004
  21403373.5624                   21403365.1844  112475533.83848  87643253.67147
        48.0004         44.0004
  23035444.1564                   23035436.6204  121052096.19947  94326300.93446
        42.0004         39.0004
  23057356.0154                   23057348.7604  121167246.04446  94416024.23746
        40.0004         39.0004
  23798741.4394                   23798734.1134  125063225.62046  97451828.07246
        41.0004         39.0004
  21403373.9434                                  112475497.84146
        40.0004
  22941379.3674                   22941371.5864  120557779.21147  93941114.40946
        42.0004         39.0004
 03  8  3  1 17 30.0000000  0 11G28G31G27G13G 8G 3G 1G17G 2G22G10
  24670828.4034                                  129646094.54745
        36.0004
  23019154.8334                   23019147.0924  120966487.22746  94259576.91545
        40.0004         36.0004
  20564936.0874                   20564927.4974  108069520.04548  84210011.81648
        48.0004         47.0004
  21045694.2634                   21045685.0034  110595897.87449  86178608.99748
        49.0004         45.0004
  21389508.3784                   21389500.0004  112402671.86848  87586478.12547
        48.0004         44.0004
  23031485.3294                   23031477.7794  121031292.55047  94310090.33346
        42.0004         39.0004
  23075617.0564                   23075609.8274  121263208.33646  94490800.00345
        41.0004         38.0004
  25163533.7474                                  132235264.73254
        33.0004
  23814100.0344                   23814092.7504  125143935.39346  97514718.74846
        41.0004         39.0004
  21389508.6754                                  112402635.86946
        39.0004
  22932374.4854                   22932366.7204  120510458.23247  93904240.92646
        42.0004         39.0004
 03  8  3  1 18  0.0000000  0 11G28G31G27G13G 8G 3G 1G17G 2G22G10
  24649925.8654                                  129536250.72145
        36.0004
  23004357.9524                   23004350.2114  120888729.09546  94198986.16445
        41.0004         37.0004
  20560621.9244                   20560613.3464  108046849.03148  84192346.09048
        48.0004         47.0004
  21057813.1684                   21057803.9074  110659583.14949  86228233.88448
        49.0004         45.0004
  21375724.8934                   21375716.5014  112330239.28948  87530037.18847
        48.0004         44.0004
  23027663.4434                   23027655.8794  121011208.34147  94294440.28946
        42.0004         39.0004
  23093949.7264                   23093942.5214  121359546.98046  94565869.00946
        41.0004         39.0004
  25160882.4364                                  132221332.12344
        34.0004
  23829524.7254                   23829517.4394  125224992.50546  97577880.08345
        41.0004         38.0004
  21375725.2064                                  112330203.31046
        39.0004
  22923504.3904                   22923496.6304  120463845.75847  93867919.57546
        42.0004         39.0004
 03  8  3  1 18 30.0000000  0 11G28G31G27G13G 8G 3G 1G17G 2G22G10
  24629008.7594                                  129426331.39945
        36.0004
  22989605.4794                   22989597.6844  120811204.63746  94138577.59345
        40.0004         37.0004
  20556335.6064                   20556327.0154  108024324.27449  84174794.34348
        49.0004         47.0004
  21069981.5564                   21069972.2934  110723528.39749  86278061.33048
        49.0004         45.0004
  21361964.5124                   21361956.1204  112257928.12448  87473690.85047
        47.0004         44.0004
  23023919.8624                   23023912.2724  120991535.75247  94279111.03245
        42.0004         38.0004
  23112294.9494                   23112287.7734  121455951.59046  94640989.43645
        41.0004         38.0004
  25158306.1724                                  132207795.07744
        34.0004
  23844956.3434                   23844949.0684  125306086.20646  97641069.96245
        41.0004         38.0004
  21361964.9294                                  112257892.13245
        38.0004
  22914710.6904                   22914702.9594  120417634.55147  93831910.84146
        42.0004         39.0004
 03  8  3  1 19  0.0000000  0 11G28G31G27G13G 8G 3G 1G17G 2G22G10
  24608107.1774                                  129316493.71745
        37.0004
  22974927.5874                   22974919.7624  120734071.98546  94078474.27045
        40.0004         37.0004
  20552106.6624                   20552098.0724  108002101.02449  84157477.52748
        49.0004         47.0004
  21082228.7054                   21082219.4584  110787887.47448  86328211.23348
        48.0004         45.0004
  21348256.9844                   21348248.5794  112185894.57948  87417560.82447
        48.0004         44.0004
  23020284.4054                   23020276.8164  120972431.23146  94264224.38445
        41.0004         38.0004
  23130681.9754                   23130674.8414  121552575.81746  94716280.96845
        41.0004         38.0004
  25155835.1714                                  132194809.06544
        33.0004
  23860424.1124                   23860416.8244  125387369.63147  97704407.64745
        42.0004         38.0004
  21348257.3654                                  112185858.58046
        40.0004
  22906023.1584                   22906015.4144  120371981.51547  93796337.10746
        42.0004         39.0004
 03  8  3  1 19 30.0000000  0 11G28G31G27G13G 8G 3G 1G17G 2G22G10
  24587250.8154                                  129206892.98545
        37.0004
  22960354.1204                   22960346.2834  120657487.89946  94018798.37045
        41.0004         37.0004
  20547964.3774                   20547955.7744  107980333.17349  84140515.57348
        49.0004         47.0004
  21094583.6364                   21094574.3754  110852813.07749  86378802.61748
        49.0004         45.0004
  21334631.5974                   21334623.1794  112114292.81348  87361767.27747
        48.0004         44.0004
  23016786.4064                   23016778.8024  120954049.18546  94249900.72645
        41.0004         38.0004
  23149139.7824                   23149132.6604  121649571.99646  94791862.33946
        41.0004         39.0004
  25153498.7034                                  132182529.22054
        33.0004
  23875956.8614                   23875949.5864  125468994.58846  97768011.46445
        41.0004         38.0004
  21334631.9414                                  112114256.81146
        39.0004
  22897471.4094                   22897463.6654  120327041.77247  93761319.12746
        42.0004         39.0004
 03  8  3  1 20  0.0000000  0 11G28G31G27G13G 8G 3G 1G17G 2G22G10
  24566381.0754                                  129097221.50645
        36.0004
  22945826.6324                   22945818.7494  120581145.68046  93959310.98745
        40.0004         37.0004
  20543849.8394                   20543841.2244  107958711.06448  84123667.17848
        48.0004         46.0004
  21106987.2524                   21106978.0044  110917994.58149  86429593.40448
        49.0004         46.0004
  21321029.6614                   21321021.2424  112042814.21848  87306069.68448
        48.0004         45.0004
  23013367.1204                   23013359.5524  120936080.77946  94235899.34745
        41.0004         38.0004
  23167609.1784                   23167602.0704  121746629.14246  94867491.23645
        40.0004         38.0004
  25151236.6714                                  132170643.72344
        33.0004
  23891495.3444                   23891488.0784  125550649.61646  97831638.67945
        41.0004         38.0004
  21321030.0754                                  112042778.20846
        39.0004
  22888996.7234                   22888988.9674  120282507.24647  93726616.96846
        43.0004         39.0004
 03  8  3  1 20 30.0000000  0 11G28G31G27G13G 8G 3G 1G17G 2G22G10
  24545586.2464                                  128987944.88345
        36.0004
  22931434.0644                   22931426.1654  120505512.34946  93900375.94745
        41.0004         37.0004
  20539851.3964                   20539842.7814  107937699.16949  84107294.28548
        49.0004         47.0004
  21119527.6374                   21119518.3904  110983894.75048  86480944.18948
        48.0004         45.0004
  21307539.6584                   21307531.2264  111971923.83848  87250830.44948
        48.0004         45.0004
  23010115.0834                   23010107.5404  120918991.39547  94222582.96245
        42.0004         38.0004
  23186178.2224                   23186171.1554  121844209.87347  94943528.09845
        42.0004         38.0004
  25149138.5724                                  132159618.01244
        34.0004
  23907127.4644                   23907120.2184  125632796.71446  97895649.36445
        41.0004         38.0004
  21307540.1224                                  111971887.83746
        39.0004
  22880687.7624                   22880680.0064  120238843.35847  93692593.15946
        43.0004         40.0004
 03  8  3  1 21  0.0000000  0 11G28G31G27G13G 8G 3G 1G17G 2G22G10
  24524749.6374                                  128878448.26045
        37.0004
  22917059.5324                   22917051.5934  120429973.98646  93841514.97945
        40.0004         37.0004
  20535851.7034                   20535843.0864  107916680.63748  84090916.20248
        48.0004         47.0004
  21132087.1984                   21132077.9514  111049895.56449  86532373.36748
        49.0004         45.0004
  21294044.3074                   21294035.8754  111901005.41748  87195569.36748
        48.0004         45.0004
  23006913.1044                   23006905.5624  120902164.88347  94209471.39745
        42.0004         38.0004
  23204729.1844                   23204722.1364  121941695.58946  95019490.94945
        41.0004         38.0004
  25147086.4364                                  132148830.15154
        33.0004
  23922735.4554                   23922728.2534  125714817.07246  97959561.28545
        41.0004         38.0004
  21294044.7874                                  111900969.43746
        39.0004
  22872427.3394                   22872419.5724  120195434.54447  93658768.12546
        43.0004         39.0004
 03  8  3  1 21 30.0000000  0 11G28G31G27G13G 8G 3G 1G17G 2G22G10
  24503930.7234                                  128769044.94645
        36.0004
  22902763.0114                   22902755.0594  120354845.45146  93782973.31045
        41.0004         38.0004
  20531910.0984                   20531901.4814  107895967.43048  84074776.05148
        48.0004         46.0004
  21144725.0404                   21144715.8064  111116307.99748  86584123.33148
        48.0004         45.0004
  21280603.1474                   21280594.7014  111830371.70548  87140530.13048
        48.0004         45.0004
  23003820.6384                   23003813.0654  120885913.86847  94196808.26346
        43.0004         39.0004
  23223321.1744                   23223314.0994  122039396.84246  95095621.74445
        41.0004         38.0004
  25145140.3254                                  132138602.27044
        32.0004
  23938378.3404                   23938371.1774  125797020.80046  98023616.06845
        40.0004         38.0004
  21280603.6244                                  111830335.71146
        39.0004
  22864275.0814                   22864267.3134  120152594.20347  93625386.05046
        43.0004         39.0004
 03  8  3  1 22  0.0000000  0 11G28G31G27G13G 8G 3G 1G17G 2G22G10
  24483188.0934                                  128660041.87745
        36.0004
  22888603.0704                   22888595.0884  120280434.64546  93724990.90845
        40.0004         38.0004
  20528084.6734                   20528076.0554  107875864.74748  84059111.63548
        48.0004         47.0004
  21157499.0854                   21157489.8524  111183435.93149  86636430.78848
        49.0004         45.0004
  21267274.3644                   21267265.9194  111760328.54248  87085951.05948
        48.0004         45.0004
  23000895.9064                   23000888.3504  120870544.48346  94184832.17046
        41.0004         39.0004
  23242011.9274                   23242004.8584  122137617.03746  95172156.90245
        41.0004         38.0004
  25143357.6484                                  132129233.98744
        33.0004
  23954113.8204                   23954106.6684  125879711.05646  98088049.96345
        41.0004         38.0004
  21267274.7554                                  111760292.53246
        39.0004
  22856289.3014                   22856281.5034  120110628.82947  93592685.80746
        43.0004         39.0004
 03  8  3  1 22 30.0000000  0 11G28G31G27G13G 8G 3G 1G17G 2G22G10
  24462404.5474                                  128550823.29345
        37.0004
  22874462.7624                   22874454.7964  120206126.82446  93667088.71745
        41.0004         38.0004
  20524257.9584                   20524249.3414  107855755.15949  84043441.81848
        49.0004         47.0004
  21170291.4514                   21170282.2164  111250660.20649  86688813.32248
        49.0004         45.0004
  21253940.5934                   21253932.1484  111690259.16148  87031351.55748
        48.0004         45.0004
  22998021.5454                   22998014.0404  120855439.80347  94173062.28945
        42.0004         38.0004
  23260683.6114                   23260676.5414  122235737.02646  95248613.94645
        40.0004         38.0004
  25141620.9444                                  132120108.29644
        33.0004
  23969823.9544                   23969816.8284  125962268.23946  98152380.19045
        41.0004         38.0004
  21253940.9734                                  111690223.16246
        40.0004
  22848352.7284                   22848344.9304  120068922.04547  93560187.05446
        42.0004         39.0004
 03  8  3  1 23  0.0000000  0 11G28G31G27G13G 8G 3G 1G17G 2G22G10
  24441639.3744                                  128441701.94445
        37.0004
  22860401.7694                   22860393.7764  120132236.06046  93609511.56345
        41.0004         38.0004
  20520489.1154                   20520480.4854  107835949.75549  84028009.04248
        49.0004         47.0004
  21183161.0874                   21183151.8654  111318290.66448  86741512.38048
        48.0004         45.0004
  21240661.1744                   21240652.7304  111620475.40748  86976974.62248
        48.0004         45.0004
  22995256.9634                   22995249.4474  120840911.88747  94161741.86745
        42.0004         38.0004
  23279395.0864                   23279388.0154  122334066.24046  95325234.05645
        40.0004         37.0004
  25139989.3434                                  132111530.80254
        33.0004
  23985567.5994                   23985560.4654  126045001.59446  98216847.75045
        41.0004         37.0004
  21240661.5174                                  111620439.40045
        38.0004
  22840524.8154                   22840516.9924  120027786.14947  93528133.14446
        42.0004         39.0004
 03  8  3  1 23 30.0000000  0 11G28G31G27G13G 8G 3G 1G17G 2G22G10
  24420951.7604                                  128332988.79845
        38.0004
  22846479.4904                   22846471.4824  120059074.04946  93552502.22045
        40.0004         38.0004
  20516836.9774                   20516828.3454  107816757.70449  84013054.20448
        49.0004         46.0004
  21196166.6464                   21196157.4224  111386635.27348  86794767.90048
        48.0004         45.0004
  21227495.0384                   21227486.5924  111551287.02348  86923061.61348
        48.0004         45.0004
  22992661.0654                   22992653.5674  120827270.22947  94151111.98545
        42.0004         38.0004
  23298204.9054                   23298197.8224  122432912.25446  95402256.88245
        39.0004         38.0004
  25138522.5144                                  132103820.56244
        32.0004
  24001403.1764                   24001396.0664  126128217.98447  98281691.64245
        42.0004         37.0004
  21227495.3824                                  111551251.01446
        39.0004
  22832864.6034                   22832856.7964  119987531.52747  93496765.92246
        42.0004         39.0004
 03  8  3  1 24  0.0000000  0 11G28G31G27G13G 8G 3G 1G17G 2G22G10
  24400224.3484                                  128224066.32745
        37.0004
  22832578.6194                   22832570.6154  119986024.72947  93495580.74745
        42.0004         38.0004
  20513183.7554                   20513175.1234  107797559.89349  83998094.87148
        49.0004         47.0004
  21209190.0334                   21209180.8104  111455073.57149  86848096.43348
        49.0004         45.0004
  21214324.5934                   21214316.1484  111482075.86548  86869130.84748
        48.0004         45.0004
  22990116.1034                   22990108.6324  120813896.48346  94140690.90146
        41.0004         39.0004
  23316994.9864                   23316987.9074  122531654.42446  95479198.76345
        40.0004         37.0004
  25137101.4624                                  132096353.51244
        33.0004
  24017212.5084                   24017205.3984  126211296.40046  98346428.02645
        40.0004         37.0004
  21214324.9604                                  111482039.85946
        39.0004
  22825254.5524                   22825246.7734  119947540.37747  93465603.96246
        42.0004         39.0004
 03  8  3  1 24 30.0000000  0 11G28G31G27G13G 8G 3G 1G17G 2G22G10
  24379516.3134                                  128115224.30855
        37.0004
  22818758.4054                   22818750.3634  119913399.02047  93438989.31045
        42.0004         38.0004
  20509588.0894                   20509579.4584  107778664.54048  83983371.22448
        48.0004         47.0004
  21222289.6394                   21222280.4164  111523912.40449  86901737.06848
        49.0004         45.0004
  21201208.5214                   21201200.0624  111413150.62948  86815422.91848
        48.0004         45.0004
  22987680.9414                   22987673.5064  120801099.68646  94130719.40546
        41.0004         39.0004
  23335823.5644                   23335816.4714  122630599.20346  95556298.58645
        40.0004         37.0004
  25135785.0554                                  132089437.49744
        32.0004
  24033053.8274                   24033046.7164  126294542.96646  98411295.45045
        40.0004         37.0004
  21201208.8404                                  111413114.62046
        39.0004
  22817753.4814                   22817745.7174  119908122.17047  93434888.51646
        42.0004         39.0004
 03  8  3  1 25  0.0000000  0 11G28G31G27G13G 8G 3G 1G17G 2G22G10
  24358886.5494                                  128006815.78945
        38.0004
  22805078.4934                   22805070.4234  119841510.84347  93382972.62145
        42.0004         38.0004
  20506109.3234                   20506100.6924  107760383.50249  83969126.26048
        49.0004         47.0004
  21235524.4444                   21235515.2064  111593461.70848  86955931.32048
        48.0004         45.0004
  21188206.2574                   21188197.8104  111344823.20848  86762180.74348
        48.0004         45.0004
  22985414.8644                   22985407.4594  120789191.55746  94121440.38746
        41.0004         39.0004
  23354749.6944                   23354742.6314  122730056.19146  95633797.42445
        40.0004         37.0004
  25134633.1664                                  132083383.52944
        33.0004
  24048985.9894                   24048978.8364  126378267.16646  98476535.12945
        41.0004         37.0004
  21188206.5434                                  111344787.21146
        39.0004
  22810420.9224                   22810413.1454  119869589.30947  93404862.92446
        42.0004         39.0004
 03  8  3  1 25 30.0000000  0 11G28G31G27G13G 8G 3G 1G17G 2G22G10
  24338247.5744                                  127898357.68145
        37.0004
  22791451.0814                   22791443.0014  119769898.56046  93327170.91545
        41.0004         38.0004
  20502658.9184                   20502650.2874  107742251.50149  83954997.42648
        49.0004         47.0004
  21248805.7924                   21248796.5684  111663255.66749  87010316.21548
        49.0004         45.0004
  21175229.5024                   21175221.0424  111276629.96248  86709043.17548
        48.0004         45.0004
  22983229.6214                   22983222.2894  120777708.15246  94112492.29245
        41.0004         38.0004
  23373684.5314                   23373677.4814  122829559.17946  95711332.15845
        39.0004         37.0004
  25133556.5534                                  132077727.01444
        33.0004
  24064920.3284                   24064913.2034  126462002.37446  98541783.26145
        39.0004         38.0004
  21175229.8984                                  111276593.98146
        39.0004
  22803168.5964                   22803160.8154  119831478.32947  93375166.09346
        42.0004         40.0004
 03  8  3  1 26  0.0000000  0 11G28G31G27G13G 8G 3G 1G17G 2G22G10
  24317599.9414                                  127789853.32345
        38.0004
  22777876.9844                   22777868.9484  119698566.20147  93271587.25045
        42.0004         38.0004
  20499237.1974                   20499228.5524  107724270.30149  83940986.11848
        49.0004         47.0004
  21262133.7224                   21262124.5084  111733294.34549  87064891.77748
        49.0004         45.0004
  21162278.6864                   21162270.2264  111208573.03148  86656011.81248
        48.0004         45.0004
  22981125.5404                   22981118.4094  120766651.63546  94103876.94445
        39.0004         37.0004
  23392628.0614                   23392621.0404  122929108.04046  95788902.67545
        40.0004         37.0004
  25132555.9244                                  132072468.91944
        34.0004
  24080856.6254                   24080849.5294  126545747.86446  98607039.41645
        40.0004         37.0004
  21162279.1234                                  111208537.01246
        39.0004
  22795997.0664                   22795989.2984  119793791.74947  93345799.92946
        43.0004         40.0004
 03  8  3  1 26 30.0000000  0 11G28G31G27G13G 8G 3G 1G17G 2G22G10
  24296973.0814                                  127681459.88245
        37.0004
  22764386.2574                   22764378.2354  119627672.07446  93216345.09746
        41.0004         39.0004
  20495873.7914                   20495865.1464  107706595.41949  83927213.47148
        49.0004         47.0004
  21275537.5184                   21275528.3054  111803731.77249  87119778.08748
        49.0004         45.0004
  21149383.5384                   21149375.0654  111140808.63349  86603208.40648
        49.0004         45.0004
  22979132.4694                   22979125.5144  120756177.72346  94095715.36945
        40.0004         38.0004
  23411609.6154                   23411602.6034  123028856.52646  95866628.69145
        39.0004         37.0004
  25131660.9694                                  132067770.65154
        33.0004
  24096824.0344                   24096816.9504  126629657.10646  98672423.20745
        39.0004         37.0004
  21149383.9514                                  111140772.61546
        39.0004
  22788936.0954                   22788928.3294  119756686.09447  93316886.44246
        43.0004         39.0004
 03  8  3  1 27  0.0000000  0 11G28G31G27G13G 8G 3G 1G17G 2G22G10
  24276397.0254                                  127573331.53845
        37.0004
  22751008.5134                   22751000.4824  119557371.55946  93161565.49845
        41.0004         38.0004
  20492597.7014                   20492589.0704  107689379.51349  83913798.48948
        49.0004         47.0004
  21289046.0054                   21289036.8044  111874719.34848  87175093.06948
        48.0004         45.0004
  21136573.2364                   21136564.7614  111073490.03748  86550752.35448
        48.0004         45.0004
  22977279.3304                   22977272.2364  120746439.53946  94088127.19345
        41.0004         38.0004
  23430657.8954                   23430650.8924  123128955.78946  95944628.06445
        39.0004         36.0004
  25130900.1904                                  132063772.60744
        34.0004
  24112851.3754                   24112844.2924  126713880.97646  98738052.11945
        40.0004         37.0004
  21136573.6414                                  111073454.04246
        39.0004
  22782014.9024                   22782007.1484  119720315.10447  93288545.42746
        43.0004         39.0004
 03  8  3  1 27 30.0000000  0 11G28G31G27G13G 8G 3G 1G17G 2G22G10
  24255871.7734                                  127465470.79945
        38.0004
  22737744.3864                   22737736.3404  119487668.28746  93107251.30645
        41.0004         38.0004
  20489409.1054                   20489400.4724  107672623.38749  83900741.77548
        49.0004         47.0004
  21302659.0794                   21302649.8644  111946256.47148  87230836.27448
        48.0004         45.0004
  21123848.0794                   21123839.5934  111006618.88748  86498644.97848
        48.0004         45.0004
  22975566.5234                   22975559.3784  120737438.74047  94081113.57945
        42.0004         38.0004
  23449772.7604                   23449765.8024  123229404.95946  96022900.11045
        40.0004         36.0004
  25130273.7894                                  132060481.21944
        34.0004
  24128938.2994                   24128931.2164  126798418.20346  98803925.26045
        40.0004         37.0004
  21123848.4274                                  111006582.90346
        39.0004
  22775233.9624                   22775226.2104  119684681.08847  93260778.68246
        43.0004         39.0004
 03  8  3  1 28  0.0000000  0 11G28G31G27G13G 8G 3G 1G17G 2G22G10
  24235338.4154                                  127357567.14945
        38.0004
  22724534.9954                   22724526.9734  119418252.65646  93053161.21945
        41.0004         38.0004
  20486248.7504                   20486240.1044  107656015.61348  83887800.65648
        48.0004         46.0004
  21316317.0404                   21316307.8404  112018029.48148  87286763.27548
        48.0004         45.0004
  21111148.7774                   21111140.2894  110939883.66949  86446643.51748
        49.0004         45.0004
  22973934.7704                   22973927.5804  120728863.69647  94074431.69946
        42.0004         39.0004
  23468894.5394                   23468887.6094  123329890.08646  96101200.09045
        40.0004         37.0004
  25129722.2524                                  132057583.93844
        34.0004
  24145025.0664                   24145017.9974  126882954.79646  98869797.93945
        40.0004         37.0004
  21111149.1004                                  110939847.67746
        40.0004
  22768533.9784                   22768526.2264  119649472.49447  93233343.42846
        44.0004         40.0004
 03  8  3  1 28 30.0000000  0 11G28G31G27G13G 8G 3G 1G17G 2G22G10
  24214827.1444                                  127249781.06845
        38.0004
  22711411.1294                   22711403.1334  119349286.46146  92999421.35245
        41.0004         38.0004
  20483146.6914                   20483138.0574  107639714.18248  83875098.23348
        48.0004         46.0004
  21330049.8624                   21330040.6614  112090195.88449  87342996.81948
        49.0004         45.0004
  21098505.7494                   21098497.2634  110873444.17249  86394872.49848
        49.0004         45.0004
  22972414.2784                   22972407.0434  120720873.70546  94068205.79146
        41.0004         39.0004
  23488053.0214                   23488046.1034  123430568.52646  96179650.79645
        39.0004         36.0004
  25129276.1734                                  132055239.33844
        34.0004
  24161141.5944                   24161134.5574  126967647.59946  98935792.30945
        40.0004         37.0004
  21098506.1154                                  110873408.15846
        40.0004
  22761945.4194                   22761937.6544  119614849.38647  93206364.39246
        43.0004         40.0004
 03  8  3  1 29  0.0000000  0 11G28G31G27G13G 8G 3G 1G17G 2G22G10
  24194309.2494                                  127141959.11745
        38.0004
  22698343.7524                   22698335.7454  119280616.99546  92945912.70545
        41.0004         38.0004
  20480073.4804                   20480064.8334  107623564.34749  83862513.95448
        49.0004         47.0004
  21343827.7714                   21343818.5834  112162599.28548  87399415.04647
        48.0004         44.0004
  21085889.5584                   21085881.0864  110807145.76448  86343211.42448
        48.0004         45.0004
  22970975.7034                   22970968.4254  120713313.94446  94062315.08145
        41.0004         38.0004
  23507218.4824                   23507211.5484  123531283.39046  96258129.83945
        39.0004         36.0004
  25128905.8234                                  132053292.07544
        35.0004
  24177257.9534                   24177250.9504  127052339.39146  99001785.87045
        39.0004         37.0004
  21085889.9484                                  110807109.75046
        39.0004
  22755438.9064                   22755431.1414  119580657.42947  93179721.30946
        43.0004         40.0004
 03  8  3  1 29 30.0000000  0 11G28G31G27G13G 8G 3G 1G17G 2G22G10
  24173837.1614                                   98987823.47354
        34.0004
  22685393.0234                   22685385.0564  119212560.51647  92892881.67445
        42.0004         38.0004
  20477088.7604                   20477080.1144  107607879.54048  83850292.03048
        48.0004         46.0004
  21357710.2094                   21357701.0224  112235551.79949  87456261.12448
        49.0004         45.0004
  21073360.0434                   21073351.5694  110741302.71649  86291905.15048
        49.0004         45.0004
  22969678.7424                   22969671.4204  120706498.24246  94057004.12546
        41.0004         39.0004
  23526450.1554                   23526443.2594  123632346.44945  96336880.22945
        38.0004         36.0004
  25128670.3724                                  132052055.02044
        34.0004
  24193433.4634                   24193426.4994  127137341.76646  99068021.35045
        39.0004         37.0004
  21073360.3674                                  110741266.73446
        40.0004
  22749074.2824                   22749066.5044  119547211.16847  93153659.30946
        43.0004         40.0004
 03  8  3  1 30  0.0000000  0 11G28G31G27G13G 8G 3G 1G17G 2G22G10
  24153402.2594                                  126926985.62256
        39.0004
  22672528.7064                   22672520.7534  119144958.32346  92840204.68945
        41.0004         38.0004
  20474161.8694                   20474153.2234  107592498.62549  83838306.90048
        49.0004         47.0004
  21371666.0724                   21371656.8874  112308890.29149  87513407.99748
        49.0004         45.0004
  21060886.5984                   21060878.1134  110675754.32248  86240828.49248
        48.0004         45.0004
  22968492.6734                   22968485.3354  120700265.46847  94052147.42745
        42.0004         38.0004
  23545717.0974                   23545710.2094  123733594.72946  96415774.92045
        39.0004         36.0004
  25128539.1124                                  132051366.49444
        34.0004
  24209636.8934                   24209629.9564  127222491.24446  99134371.54645
        39.0004         37.0004
  21060887.0004                                  110675718.30846
        40.0004
  22742821.0584                   22742813.2684  119514350.18847  93128053.35146
        43.0004         39.0004
 03  8  3  1 30 30.0000000  0 11G28G31G27G13G 8G 3G 1G17G 2G22G10
  24132984.2744                                  126819687.57345
        38.0004
  22659751.9384                   22659743.9684  119077816.14247  92787886.14246
        42.0004         39.0004
  20471293.3544                   20471284.7064  107577424.53848  83826560.86548
        48.0004         47.0004
  21385695.7814                   21385686.6114  112382616.85149  87570857.24548
        49.0004         45.0004
  21048469.9424                   21048461.4414  110610504.41448  86189984.42448
        48.0004         45.0004
  22967418.2354                   22967410.8824  120694619.13546  94047747.65945
        40.0004         38.0004
  23565019.5454                   23565012.6734  123835029.65346  96494815.09645
        39.0004         36.0004
  25128512.8784                                  132051228.94644
        33.0004
  24225868.5724                   24225861.6324  127307789.03846  99200837.29945
        39.0004         36.0004
  21048470.3074                                  110610468.39946
        40.0004
  22736679.9364                   22736672.1474  119482078.43747  93102906.55246
        43.0004         39.0004
 03  8  3  1 31  0.0000000  0 11G28G31G27G13G 8G 3G 1G17G 2G22G10
  24112590.1204                                  126712515.88146
        39.0004
  22647063.3324                   22647055.3634  119011137.06847  92735928.42545
        42.0004         38.0004
  20468483.3394                   20468474.6774  107562657.80949  83815054.33048
        49.0004         47.0004
  21399799.1404                   21399789.9584  112456730.37548  87628608.03047
        48.0004         44.0004
  21036110.2794                   21036101.7804  110545554.01449  86139373.73948
        49.0004         45.0004
  22966455.5114                   22966448.1334  120689560.10947  94043805.61346
        42.0004         39.0004
  23584357.3304                   23584350.4384  123936649.89746  96573999.57345
        39.0004         36.0004
  25128591.3264                                  132051642.19244
        33.0004
  24242128.1994                   24242121.2614  127393233.64446  99267417.45045
        39.0004         37.0004
  21036110.7084                                  110545518.01946
        39.0004
  22730651.2144                   22730643.4004  119450397.48147  93078220.15046
        43.0004         40.0004
 03  8  3  1 31 30.0000000  0 11G28G31G27G13G 8G 3G 1G17G 2G22G10
  24092220.3734                                  126605472.14146
        39.0004
  22634463.2624                   22634455.2664  118944923.44446  92684333.44745
        41.0004         38.0004
  20465731.8174                   20465723.1574  107548198.46549  83803787.31348
        49.0004         47.0004
  21413975.7634                   21413966.5824  112531229.03448  87686658.93747
        48.0004         44.0004
  21023807.7574                   21023799.2604  110480903.82248  86088996.97648
        48.0004         45.0004
  22965604.6514                   22965597.2874  120685088.68747  94040321.35446
        42.0004         39.0004
  23603729.9624                   23603723.0714  124038453.70346  96653327.20245
        39.0004         36.0004
  25128774.8204                                  132052604.21354
        33.0004
  24258415.3664                   24258408.4364  127478823.03346  99334110.39545
        40.0004         37.0004
  21023808.1284                                  110480867.83446
        39.0004
  22724735.0454                   22724727.2454  119419307.86347  93053994.48746
        43.0004         40.0004
 03  8  3  1 32  0.0000000  0 11G28G31G27G13G 8G 3G 1G17G 2G22G10
  24071874.9054                                  126498557.17045
        38.0004
  22621952.1654                   22621944.1554  118879177.37047  92633102.78846
        42.0004         39.0004
  20463038.6214                   20463029.9584  107534045.68648  83792759.17748
        48.0004         47.0004
  21428225.2304                   21428216.0604  112606110.48648  87745008.10448
        48.0004         45.0004
  21011562.3704                   21011553.8724  110416553.94048  86038854.22248
        48.0004         45.0004
  22964865.4814                   22964858.0874  120681204.44547  94037294.70546
        42.0004         39.0004
  23623137.1234                   23623130.2304  124140438.77346  96732796.02845
        40.0004         36.0004
  25129062.6364                                  132054117.32144
        32.0004
  24274729.5834                   24274722.6534  127564554.69746  99400914.26045
        40.0004         37.0004
  21011562.8694                                  110416517.93846
        40.0004
  22718931.4744                   22718923.6464  119388809.89047  93030229.84246
        43.0004         39.0004
 03  8  3  1 32 30.0000000  0 10G28G31G27G13G 8G 3G 1G 2G22G10
  24051555.2244                                  126391776.65346
        40.0004
  22609531.3004                   22609523.2934  118813905.28646  92582241.43446
        41.0004         39.0004
  20460404.5394                   20460395.8644  107520203.43048  83781973.00348
        48.0004         46.0004
  21442548.0724                   21442538.9164  112681377.40648  87803657.62048
        48.0004         45.0004
  20999374.9734                   20999366.4504  110352508.86448  85988949.01848
        48.0004         45.0004
  22964238.8154                   22964231.4344  120677911.35546  94034728.66745
        41.0004         38.0004
  23642579.1544                   23642572.2334  124242607.20946  96812407.77745
        39.0004         36.0004
  24291071.2024                   24291064.2434  127650430.48446  99467830.46345
        40.0004         37.0004
  20999375.4944                                  110352472.85246
        39.0004
  22713241.3644                   22713233.5234  119358908.16347  93006929.80246
        42.0004         40.0004
 03  8  3  1 33  0.0000000  0 11G28G31G27G13G 8G 3G 1G17G 2G22G10
  24031260.9524                   24031253.6694  126285131.40645  98403978.97154
        38.0004         35.0004
  22597200.9074                   22597192.8924  118749108.75846  92531750.69246
        39.0004         39.0004
  20457829.3724                   20457820.6974  107506670.83748  83771428.12548
        48.0004         47.0004
  21456943.7844                   21456934.6434  112757027.32148  87862605.59148
        48.0004         45.0004
  20987245.5614                   20987237.0634  110288768.37148  85939281.08148
        48.0004         45.0004
  22963724.4974                   22963717.1334  120675208.47146  94032622.49945
        41.0004         38.0004
  23662055.6224                   23662048.7314  124344956.30346  96892160.21845
        39.0004         37.0004
  25129953.6314                                  132058797.27754
        32.0004
  24307439.7524                   24307432.7654  127736447.54646  99534856.70345
        39.0004         37.0004
  20987245.9284                                  110288732.36646
        39.0004
  22707664.6844                   22707656.8464  119329602.76247  92984094.49146
        42.0004         40.0004
 03  8  3  1 33 30.0000000  0 11G28G31G27G13G 8G 3G 1G17G 2G22G10
  24010992.7164                   24010985.3074  126178621.41845  98320984.23044
        37.0004         34.0004
  22584961.2654                   22584953.2484  118684789.00446  92481631.39646
        41.0004         39.0004
  20455312.8134                   20455304.1514  107493446.29048  83761123.28848
        48.0004         46.0004
  21471411.8474                   21471402.6934  112833057.44148  87921849.83447
        47.0004         44.0004
  20975173.9304                   20975165.4204  110225331.64848  85889849.90748
        48.0004         46.0004
  22963322.3514                   22963314.9894  120673095.05746  94030975.66246
        41.0004         39.0004
  23681565.8024                   23681558.9374  124447482.92645  96972051.06445
        38.0004         36.0004
  25130555.9514                                  132061962.80444
        34.0004
  24323834.5174                   24323827.5304  127822602.36745  99601990.27445
        38.0004         36.0004
  20975174.2274                                  110225295.64946
        39.0004
  22702201.3504                   22702193.4964  119300892.74847  92961723.05046
        43.0004         40.0004
 03  8  3  1 34  0.0000000  0 11G28G31G27G13G 8G 3G 1G17G 2G22G10
  23990750.8274                   23990743.2204  126072249.51145  98238097.20444
        38.0004         34.0004
  22572812.9764                   22572804.9414  118620949.62746  92431886.48446
        41.0004         39.0004
  20452855.1444                   20452846.4824  107480531.15448  83751059.54648
        48.0004         47.0004
  21485952.1394                   21485942.9994  112909467.12948  87981389.83247
        47.0004         44.0004
  20963160.4664                   20963151.9424  110162200.59348  85840656.91148
        48.0004         46.0004
  22963032.5104                   22963025.1164  120671572.18147  94029789.05945
        42.0004         38.0004
  23701109.7184                   23701102.8684  124550186.52445  97052079.75845
        38.0004         36.0004
  25131263.1674                                  132065677.75044
        35.0004
  24340255.3434                   24340248.4074  127908894.26645  99669230.64445
        37.0004         36.0004
  20963160.8834                                  110162164.60046
        40.0004
  22696851.6254                   22696843.7824  119272780.06447  92939817.11546
        43.0004         40.0004
 03  8  3  1 34 30.0000000  0 11G28G31G27G13G 8G 3G 1G17G 2G22G10
  23970535.4784                   23970527.7974  125966017.26146  98155318.86444
        39.0004         35.0004
  22560756.6014                   22560748.5654  118557593.13747  92382517.82646
        42.0004         39.0004
  20450456.3534                   20450447.6884  107467925.48148  83741236.94848
        48.0004         46.0004
  21500564.4364                   21500555.2964  112986255.20648  88041224.68347
        48.0004         44.0004
  20951205.3024                   20951196.7794  110099375.78349  85791702.51748
        49.0004         46.0004
  22962855.1264                   22962847.7444  120670640.08446  94029062.74645
        41.0004         38.0004
  23720686.9254                   23720680.1004  124653065.38046  97132245.06245
        39.0004         36.0004
  25132074.7144                                  132069941.64844
        34.0004
  24356701.8834                   24356694.9614  127995321.16945  99736576.22145
        38.0004         36.0004
  20951205.6824                                  110099339.77846
        40.0004
  22691615.8594                   22691608.0024  119245265.80247  92918377.40946
        43.0004         40.0004
 03  8  3  1 35  0.0000000  0 11G28G31G27G13G 8G 3G 1G17G 2G22G10
  23950347.1484                   23950339.3654  125859927.37345  98072651.54844
        38.0004         35.0004
  22548792.7974                   22548784.7484  118494722.98347  92333528.12346
        42.0004         39.0004
  20448116.6394                   20448107.9754  107455630.20448  83731656.21448
        47.0004         46.0004
  21515248.5484                   21515239.4094  113063420.73548  88101353.67048
        47.0004         45.0004
  20939308.7474                   20939300.2244  110036859.08949  85742988.23948
        49.0004         45.0004
  22962790.3574                   22962782.9874  120670299.71947  94028797.51645
        42.0004         38.0004
  23740297.4004                   23740290.5884  124756118.68346  97212546.23145
        39.0004         36.0004
  25132990.5504                                  132074754.64944
        34.0004
  24373173.9184                   24373166.9964  128081882.23146  99804026.38845
        39.0004         36.0004
  20939309.1664                                  110036823.10346
        40.0004
  22686494.1944                   22686486.3364  119218351.20747  92897404.98346
        43.0004         40.0004
 03  8  3  1 35 30.0000000  0 11G28G31G27G13G 8G 3G 1G17G 2G22G10
  23930215.2994                   23930207.5424  125754133.66745  97990214.84744
        38.0004         35.0004
  22536950.9574                   22536942.9054  118432494.00547  92285038.06746
        42.0004         39.0004
  20445864.9544                   20445856.2914  107443797.52048  83722435.94448
        48.0004         47.0004
  21530033.2024                   21530024.0634  113141114.61848  88161894.35847
        48.0004         44.0004
  20927499.9314                   20927491.4084  109974803.40349  85694633.17248
        49.0004         46.0004
  22962867.1874                   22962859.7774  120670703.65247  94029112.33445
        42.0004         38.0004
  23759969.6904                   23759962.9214  124859497.07945  97293100.77344
        38.0004         35.0004
  25134039.5154                                  132080268.36744
        33.0004
  24389700.0764                   24389693.1674  128168727.84145  99871698.29445
        38.0004         36.0004
  20927500.2894                                  109974767.41246
        40.0004
  22681515.7454                   22681507.8574  119192189.47147  92877019.25646
        43.0004         40.0004
 03  8  3  1 36  0.0000000  0 11G28G31G27G13G 8G 3G 1G17G 2G22G10
  23910081.7954                   23910073.9754  125648332.01445  97907772.13044
        38.0004         35.0004
  22525173.3924                   22525165.3244  118370602.61247  92236811.03146
        42.0004         39.0004
  20443643.0754                   20443634.4254  107432121.53048  83713337.77448
        46.0004         47.0004
  21544859.8774                   21544850.7384  113219029.12948  88222606.92647
        47.0004         44.0004
  20915720.7384                   20915712.2164  109912903.39449  85646399.41348
        49.0004         46.0004
  22963027.4694                   22963020.0624  120671545.87747  94029768.61046
        42.0004         39.0004
  23779645.3004                   23779638.5874  124962892.92045  97373668.89944
        38.0004         35.0004
  25135163.9804                                  132086176.10144
        34.0004
  24406221.8324                   24406214.9494  128255550.19546  99939352.04245
        39.0004         36.0004
  20915721.0804                                  109912867.37846
        40.0004
  22676622.5134                   22676614.6254  119166475.36447  92856982.28646
        43.0004         40.0004
 03  8  3  1 36 30.0000000  0 11G28G31G27G13G 8G 3G 1G17G 2G22G10
  23889975.8574                   23889967.9124  125542675.22146  97825442.29044
        39.0004         35.0004
  22513489.3734                   22513481.2934  118309202.86547  92188967.12546
        43.0004         39.0004
  20441479.8584                   20441471.2084  107420753.81148  83704479.82448
        46.0004         46.0004
  21559757.0634                   21559747.9264  113297314.31148  88283608.35847
        48.0004         44.0004
  20904000.1424                   20903991.6334  109851311.30749  85598405.58648
        49.0004         46.0004
  22963299.9394                   22963292.5184  120672977.77847  94030884.39746
        42.0004         39.0004
  23799352.7334                   23799346.0494  125066455.74145  97454367.09944
        38.0004         35.0004
  25136391.2924                                  132092628.60444
        34.0004
  24422767.6944                   24422760.7974  128342498.91045 100007104.21244
        38.0004         35.0004
  20904000.5374                                  109851275.32246
        40.0004
  22671843.3584                   22671835.4434  119141360.79647  92837412.52346
        43.0004         40.0004
 03  8  3  1 37  0.0000000  0 11G28G31G27G13G 8G 3G 1G17G 2G22G10
  23869869.3494                   23869861.3304  125437015.05846  97743109.75944
        39.0004         35.0004
  22501870.8734                   22501862.7534  118248147.23247  92141391.33646
        42.0004         39.0004
  20439346.7714                   20439338.1224  107409544.36148  83695745.19348
        45.0004         46.0004
  21574696.0014                   21574686.8784  113375818.83348  88344780.68447
        47.0004         44.0004
  20892309.7214                   20892301.1854  109789877.85649  85550535.40448
        49.0004         46.0004
  22963656.0994                   22963648.6874  120674849.41546  94032342.78945
        41.0004         38.0004
  23819063.0434                   23819056.3864  125170033.93345  97535077.31844
        38.0004         35.0004
  25137694.1014                                  132099475.15944
        33.0004
  24439308.6474                   24439301.7894  128429421.89245 100074836.30945
        37.0004         36.0004
  20892310.0814                                  109789841.87046
        40.0004
  22667149.8444                   22667141.9284  119116696.39947  92818193.55346
        43.0004         40.0004
 03  8  3  1 37 30.0000000  0 11G28G31G27G13G 8G 3G 1G17G 2G22G10
  23849821.0194                   23849812.9284  125331661.00046  97661015.84445
        39.0004         36.0004
  22490376.8204                   22490368.7164  118187745.76746  92094325.29946
        41.0004         39.0004
  20437302.3524                   20437293.6894  107398800.86947  83687373.64748
        42.0004         46.0004
  21589734.8324                   21589725.6964  113454848.42348  88406362.19147
        48.0004         44.0004
  20880708.1794                   20880699.6544  109728911.40449  85503029.07648
        49.0004         46.0004
  22964154.4574                   22964147.0154  120677468.42547  94034383.60846
        42.0004         39.0004
  23838834.4474                   23838827.7874  125273933.42145  97616037.96544
        38.0004         35.0004
  25139130.8424                                  132107022.66444
        33.0004
  24455902.7824                   24455895.8944  128516624.85045 100142786.70945
        38.0004         36.0004
  20880708.5134                                  109728875.40746
        40.0004
  22662600.7414                   22662592.8274  119092790.64347  92799565.68046
        43.0004         40.0004
 03  8  3  1 38  0.0000000  0 10G28G31G27G13G 8G 3G 1G 2G22G10
  23829830.6654                   23829822.5534  125226611.10446  97579158.84745
        40.0004         36.0004
  22479007.0974                   22478998.9924  118127997.52946  92047768.24446
        40.0004         39.0004
  20435345.9774                   20435337.2984  107388520.04548  83679362.61548
        45.0004         47.0004
  21604872.7804                   21604863.6454  113534398.62648  88468349.31247
        48.0004         43.0004
  20869194.9544                   20869186.4294  109668409.05648  85455884.40448
        48.0004         46.0004
  22964794.4734                   22964787.0184  120680831.60846  94037004.25146
        41.0004         39.0004
  23858666.0584                   23858659.4424  125378149.05345  97697244.90144
        38.0004         34.0004
  24472549.3514                   24472542.5054  128604102.59846 100210951.04645
        39.0004         36.0004
  20869195.2864                                  109668373.05246
        41.0004
  22658195.4124                   22658187.4974  119069640.60847  92781526.71446
        44.0004         40.0004
 03  8  3  1 38 30.0000000  0 10G28G31G27G13G 8G 3G 1G 2G22G10
  23809869.7194                   23809861.5244  125121716.24946  97497422.77145
        39.0004         36.0004
  22467733.4084                   22467725.2674  118068754.14746  92001604.66046
        41.0004         39.0004
  20433448.9504                   20433440.2724  107378551.10448  83671594.61048
        46.0004         46.0004
  21620080.6874                   21620071.5514  113614316.72148  88530623.14547
        48.0004         44.0004
  20857741.5314                   20857732.9924  109608220.91748  85408984.55948
        48.0004         46.0004
  22965547.3794                   22965539.8864  120684788.09347  94040087.24746
        42.0004         39.0004
  23878528.8124                   23878522.2354  125482528.21945  97778579.21744
        37.0004         35.0004
  24489219.1384                   24489212.3314  128691702.54346 100279210.63545
        39.0004         36.0004
  20857741.9114                                  109608184.90946
        39.0004
  22653905.3324                   22653897.4014  119047096.14847  92763959.61746
        43.0004         40.0004
 03  8  3  1 39  0.0000000  0 11G28G31G27G13G 8G 3G 1G17G 2G22G10
  23789909.4594                   23789901.2414  125016824.75446  97415689.24845
        40.0004         37.0004
  22456527.1454                   22456519.0044  118009864.89647  91955716.94846
        42.0004         39.0004
  20431582.1024                   20431573.4394  107368740.75148  83663950.17848
        47.0004         47.0004
  21635329.1524                   21635320.0024  113694447.94249  88593063.06447
        49.0004         43.0004
  20846318.8984                   20846310.3464  109548194.57449  85362210.79648
        50.0004         46.0004
  22966384.0244                   22966376.4884  120689184.75347  94043513.24046
        42.0004         39.0004
  23898393.1944                   23898386.7004  125586916.12645  97859920.38244
        38.0004         34.0004
  25144119.0564                                  132133237.52754
        32.0004
  24505882.6344                   24505875.8284  128779269.62045 100347444.68444
        38.0004         35.0004
  20846319.2314                                  109548158.57446
        41.0004
  22649701.3784                   22649693.4204  119025004.27947  92746745.20546
        43.0004         40.0004
 03  8  3  1 39 30.0000000  0 11G28G31G27G13G 8G 3G 1G17G 2G22G10
  23769950.4864                   23769942.2144  124911940.07946  97333961.05745
        40.0004         36.0004
  22445389.0004                   22445380.8584  117951333.73647  91910108.29246
        43.0004         39.0004
  20429745.7954                   20429737.1324  107359090.89348  83656430.80948
        48.0004         47.0004
  21650618.2104                   21650609.0594  113774792.36148  88655669.07247
        48.0004         43.0004
  20834927.4434                   20834918.9034  109488332.19949  85315564.80248
        49.0004         46.0004
  22967304.7414                   22967297.2064  120694023.03047  94047283.30046
        42.0004         39.0004
  23918259.2424                   23918252.7794  125691312.72545  97941268.34044
        38.0004         35.0004
  25145941.0234                                  132142809.84244
        32.0004
  24522539.7834                   24522532.9594  128866803.58845 100415652.97644
        38.0004         35.0004
  20834927.7164                                  109488296.19446
        40.0004
  22645584.0574                   22645576.0974  119003367.67847  92729885.51846
        43.0004         40.0004
 03  8  3  1 40  0.0000000  0 11G28G31G27G13G 8G 3G 1G17G 2G22G10
  23750050.9174                   23750042.6204  124807367.45046  97252475.98445
        40.0004         37.0004
  22434377.3124                   22434369.1724  117893466.92647  91865017.27646
        42.0004         40.0004
  20427997.8334                   20427989.1724  107349905.29149  83649273.20448
        49.0004         47.0004
  21666005.3334                   21665996.1954  113855652.23648  88718676.75947
        48.0004         44.0004
  20823625.1794                   20823616.6274  109428938.46549  85269283.99548
        49.0004         46.0004
  22968367.2254                   22968359.7024  120699606.48646  94051634.04346
        41.0004         39.0004
  23938184.5004                   23938178.0824  125796019.97545  98022858.25044
        38.0004         35.0004
  25147894.3934                                  132153076.93244
        33.0004
  24539248.1944                   24539241.3694  128954606.44345 100484070.68344
        38.0004         35.0004
  20823625.4544                                  109428902.47046
        40.0004
  22641611.2684                   22641603.3094  118982490.65347  92713617.73846
        43.0004         40.0004
 03  8  3  1 40 30.0000000  0 10G28G31G27G13G 8G 3G 1G 2G22G10
  23730210.9834                   23730202.6144  124703108.01746  97171234.91445
        40.0004         37.0004
  22423492.3134                   22423484.1324  117836266.12447  91820445.29546
        43.0004         39.0004
  20426338.0954                   20426329.4334  107341183.37249  83642476.91348
        49.0004         47.0004
  21681490.1094                   21681480.9564  113937025.21948  88782084.26547
        48.0004         44.0004
  20812412.0854                   20812403.5324  109370013.31849  85223368.30848
        49.0004         46.0004
  22969571.3634                   22969563.8504  120705934.33746  94056564.82945
        41.0004         38.0004
  23958168.2614                   23958161.8334  125901035.28645  98104688.37144
        38.0004         35.0004
  24556007.3154                   24556000.4774  129042675.78145 100552696.05644
        38.0004         35.0004
  20812412.3844                                  109369977.32546
        40.0004
  22637782.9564                   22637775.0244  118962372.73747  92697941.42746
        44.0004         40.0004
 03  8  3  1 41  0.0000000  0 10G28G31G27G13G 8G 3G 1G 2G22G10
  23710403.0364                   23710394.6514  124599016.86546  97090124.99345
        40.0004         36.0004
  22412706.6324                   22412698.4654  117779587.10947  91776279.85446
        42.0004         39.0004
  20424738.7434                   20424730.0824  107332778.71949  83635927.83848
        49.0004         47.0004
  21697044.3884                   21697035.2334  114018763.44548  88845776.36847
        48.0004         43.0004
  20801260.4364                   20801251.8834  109311411.07048  85177704.23148
        48.0004         46.0004
  22970889.2874                   22970881.7344  120712860.07547  94061961.53346
        42.0004         39.0004
  23978182.5734                   23978176.1494  126006210.77045  98186643.21144
        38.0004         35.0004
  24572788.7994                   24572781.9634  129130863.07445 100621413.43544
        38.0004         34.0004
  20801260.7834                                  109311375.07946
        40.0004
  22634071.3454                   22634063.4024  118942868.02947  92682742.95546
        43.0004         40.0004
 03  8  3  1 41 30.0000000  0 10G28G31G27G13G 8G 3G 1G 2G22G10
  23690568.2134                   23690559.8044  124494784.41746  97008904.98545
        40.0004         36.0004
  22401961.4934                   22401953.3544  117723121.08847  91732280.35846
        42.0004         40.0004
  20423140.5154                   20423131.8674  107324379.97548  83629383.35448
        48.0004         47.0004
  21712608.5664                   21712599.4124  114100553.69348  88909509.01647
        48.0004         43.0004
  20790111.1284                   20790102.5754  109252821.06148  85132049.68348
        48.0004         46.0004
  22972261.7594                   22972254.1784  120720072.27446  94067581.39745
        41.0004         38.0004
  23998167.8184                   23998161.3924  126111233.56345  98268479.06544
        38.0004         34.0004
  24589533.3054                   24589526.5194  129218855.42245 100689978.78044
        38.0004         35.0004
  20790111.4744                                  109252785.06746
        40.0004
  22630417.2204                   22630409.2914  118923665.53347  92667779.98146
        44.0004         40.0004
 03  8  3  1 42  0.0000000  0 10G28G31G27G13G 8G 3G 1G 2G22G10
  23670794.6654                   23670786.2304  124390874.34846  96927936.25345
        41.0004         36.0004
  22391345.2774                   22391337.1234  117667332.61947  91688808.85746
        43.0004         39.0004
  20421631.3874                   20421622.7264  107316449.51649  83623203.79748
        49.0004         47.0004
  21728270.3304                   21728261.1774  114182856.69448  88973641.20047
        47.0004         43.0004
  20779052.2534                   20779043.6874  109194706.34449  85086765.50748
        49.0004         46.0004
  22973776.6174                   22973769.0064  120728032.90446  94073784.49146
        41.0004         39.0004
  24018211.5264                   24018205.0894  126216563.83845  98350554.59444
        38.0004         34.0004
  24606328.2434                   24606321.4734  129307113.04245 100758750.87344
        38.0004         35.0004
  20779052.4714                                  109194670.36446
        40.0004
  22626908.6474                   22626900.7334  118905227.86047  92653412.95946
        43.0004         40.0004
 03  8  3  1 42 30.0000000  0 10G28G31G27G13G 8G 3G 1G 2G22G10
  23651082.4284                   23651073.9614  124287286.02846  96847218.12045
        40.0004         36.0004
  22380857.8944                   22380849.7284  117612221.36347  91645865.10046
        42.0004         39.0004
  20420210.9294                   20420202.2824  107308984.89748  83617387.19348
        48.0004         47.0004
  21744028.9024                   21744019.7224  114265668.42248  89038169.80847
        47.0004         43.0004
  20768083.4504                   20768074.8994  109137064.95849  85041850.15348
        49.0004         46.0004
  22975433.3654                   22975425.7404  120736739.23847  94080568.66545
        42.0004         38.0004
  24038313.0974                   24038306.6934  126322197.55245  98432866.42644
        37.0004         34.0004
  24623172.8514                   24623166.1114  129395631.74345 100827726.41244
        38.0004         35.0004
  20768083.7494                                  109137028.96346
        40.0004
  22623545.2254                   22623537.2954  118887553.14647  92639640.49446
        44.0004         40.0004
 03  8  3  1 43  0.0000000  0 10G28G31G27G13G 8G 3G 1G 2G22G10
  23631403.0354                   23631394.5784  124183870.37046  96766634.52545
        40.0004         36.0004
  22370471.2644                   22370463.1004  117557639.19147  91603333.53446
        42.0004         39.0004
  20418850.4834                   20418841.8234  107301835.70249  83611816.40148
        49.0004         47.0004
  21759855.3354                   21759846.1414  114348836.76648  89102976.28847
        47.0004         43.0004
  20757176.2414                   20757167.6884  109079747.24749  84997187.01348
        49.0004         46.0004
  22977203.4124                   22977195.7734  120746040.71347  94087816.52946
        42.0004         39.0004
  24058443.3094                   24058436.9194  126427982.40545  98515296.14944
        37.0004         34.0004
  24640038.2034                   24640031.4684  129484259.14445 100896786.60345
        38.0004         36.0004
  20757176.5514                                  109079711.25446
        40.0004
  22620298.4554                   22620290.4964  118870491.25547  92626345.52146
        43.0004         40.0004
 03  8  3  1 43 30.0000000  0 10G28G31G27G13G 8G 3G 1G 2G22G10
  23611697.8824                   23611689.4264  124080319.21946  96685945.34745
        40.0004         36.0004
  22360126.7614                   22360118.5854  117503278.52447  91560974.59746
        42.0004         40.0004
  20417491.0634                   20417482.4044  107294691.90349  83606249.80948
        49.0004         47.0004
  21775690.3264                   21775681.1344  114432050.20348  89167817.93447
        47.0004         43.0004
  20746271.7944                   20746263.2404  109022444.05849  84952535.18348
        49.0004         46.0004
  22979027.6584                   22979020.0414  120755627.37646  94095286.66345
        41.0004         38.0004
  24078542.9934                   24078536.5754  126533606.70945  98597600.75344
        37.0004         35.0004
  24656864.9004                   24656858.1934  129572683.65545 100965688.73044
        38.0004         35.0004
  20746272.1504                                  109022408.05446
        40.0004
  22617109.4104                   22617101.4534  118853732.64747  92613286.86046
        44.0004         40.0004
 03  8  3  1 44  0.0000000  0 10G28G31G27G13G 8G 3G 1G 2G22G10
  23592083.8354                   23592075.3174  123977247.45646  96605629.84645
        40.0004         36.0004
  22349941.5444                   22349933.3814  117449754.97347  91519267.95346
        44.0004         40.0004
  20416249.4534                   20416240.7934  107288167.26349  83601165.67948
        49.0004         47.0004
  21791650.2704                   21791641.0764  114515920.27548  89233171.23047
        47.0004         43.0004
  20735486.9744                   20735478.4194  108965769.50449  84908373.20648
        50.0004         46.0004
  22981022.8534                   22981015.2604  120766112.13546  94103456.56546
        41.0004         39.0004
  24098728.5134                   24098722.1234  126639682.21145  98680256.94844
        38.0004         34.0004
  24673769.3864                   24673762.6794  129661516.82745 101034909.27344
        37.0004         35.0004
  20735487.3554                                  108965733.50946
        40.0004
  22614094.8114                   22614086.8424  118837890.88547  92600942.65646
        44.0004         40.0004
 03  8  3  1 44 30.0000000  0 10G28G31G27G13G 8G 3G 1G 2G22G10
  23572503.0184                   23572494.4694  123874349.81946  96525449.92645
        40.0004         37.0004
  22339857.6294                   22339849.4374  117396763.70447  91477976.07546
        43.0004         40.0004
  20415067.2024                   20415058.5554  107281954.48848  83596324.55348
        48.0004         47.0004
  21807676.4304                   21807667.2504  114600138.18748  89298795.54847
        47.0004         43.0004
  20724763.4974                   20724754.9164  108909417.25349  84864462.37748
        49.0004         46.0004
  22983130.4174                   22983122.8374  120777187.45647  94112086.67845
        42.0004         38.0004
  24118941.1774                   24118934.7584  126745900.03945  98763023.99944
        37.0004         34.0004
  24690692.7254                   24690685.9524  129750449.88745 101104207.87444
        38.0004         34.0004
  20724763.9264                                  108909381.25946
        41.0004
  22611196.3264                   22611188.3584  118822659.24547  92589073.84946
        44.0004         40.0004
 03  8  3  1 45  0.0000000  0 10G28G31G27G13G 8G 3G 1G 2G22G10
  23552898.0404                   23552889.4504  123771325.21346  96445171.08545
        40.0004         36.0004
  22329817.8204                   22329809.6184  117344004.27847  91436864.88246
        43.0004         40.0004
  20413886.7364                   20413878.0904  107275751.16448  83591490.80648
        48.0004         47.0004
  21823710.8984                   21823701.7194  114684399.82448  89364453.95247
        46.0004         43.0004
  20714043.8914                   20714035.3104  108853085.40749  84820567.44848
        49.0004         46.0004
  22985292.7244                   22985285.1294  120788550.45546  94120940.96645
        41.0004         38.0004
  24139123.0014                   24139116.5984  126851955.73845  98845664.69844
        37.0004         35.0004
  24707577.2734                   24707570.4844  129839178.28845 101173346.77144
        38.0004         35.0004
  20714044.3194                                  108853049.40546
        40.0004
  22608356.3974                   22608348.4424  118807735.37947  92577444.86946
        44.0004         41.0004
 03  8  3  1 45 30.0000000  0 10G28G31G27G13G 8G 3G 1G 2G22G10
  23533414.9004                   23533406.2824  123668940.99546  96365391.27145
        40.0004         36.0004
  22319968.2644                   22319960.0624  117292244.57047  91396532.65946
        43.0004         40.0004
  20412853.7844                   20412845.1374  107270322.96248  83587261.03848
        48.0004         47.0004
  21839899.1224                   21839889.9694  114769469.51448  89430742.00847
        47.0004         43.0004
  20703473.9824                   20703465.4014  108797540.16349  84777285.43548
        49.0004         46.0004
  22987655.4264                   22987647.8404  120800966.41447  94130615.68445
        42.0004         38.0004
  24159419.4154                   24159413.0114  126958613.42845  98928774.42944
        37.0004         34.0004
  24724568.1794                   24724561.4074  129928465.84945 101242921.44944
        37.0004         34.0004
  20703474.3674                                  108797504.18446
        41.0004
  22605720.7854                   22605712.8434  118793885.27047  92566652.59146
        43.0004         41.0004
 03  8  3  1 46  0.0000000  0 10G28G31G27G13G 8G 3G 1G 2G22G10
  23513908.0024                   23513899.3684  123566431.61746  96285513.84345
        40.0004         37.0004
  22310163.3864                   22310155.1694  117240719.77747  91356383.51446
        43.0004         40.0004
  20411822.3924                   20411813.7604  107264902.96148  83583037.65748
        48.0004         47.0004
  21856094.7634                   21856085.6244  114854577.99748  89497060.25847
        46.0004         43.0004
  20692907.9824                   20692899.4024  108742015.45849  84734019.43848
        49.0004         46.0004
  22990072.3784                   22990064.7644  120813667.71047  94140512.83445
        42.0004         38.0004
  24179684.0724                                  127065104.10645
        37.0004
  24741519.2154                   24741512.4594  130017543.95645 101312332.92044
        36.0004         34.0004
  20692908.3124                                  108741979.44046
        41.0004
  22603143.6344                   22603135.6964  118780342.25047  92556099.60446
        44.0004         40.0004
 03  8  3  1 46 30.0000000  0 10G28G31G27G13G 8G 3G 1G 2G22G10
  23494435.3924                   23494426.7314  123464102.73846  96205777.15145
        41.0004         37.0004
  22300461.4474                   22300453.2314  117189735.80847  91316655.76046
        44.0004         40.0004
  20410850.3744                   20410841.7284  107259794.97349  83579057.41348
        49.0004         47.0004
  21872355.3144                   21872346.1884  114940027.76848  89563644.48447
        47.0004         43.0004
  20682403.8004                   20682395.2204  108686815.67149  84691006.63048
        49.0004         46.0004
  22992601.5004                   22992593.8974  120826958.14746  94150868.96145
        41.0004         38.0004
  24199974.1314                                  127171729.83345
        37.0004
  24758487.8654                   24758481.1014  130106714.75445 101381816.67244
        37.0004         34.0004
  20682404.2094                                  108686779.69446
        40.0004
  22600682.6914                   22600674.7414  118767409.96847  92546022.53446
        44.0004         40.0004
 03  8  3  1 47  0.0000000  0 10G28G31G27G13G 8G 3G 1G 2G22G10
  23475027.7714                   23475019.1014  123362115.31446  96126306.52545
        41.0004         37.0004
  22290893.2424                   22290885.0114  117139454.42447  91277475.43846
        44.0004         40.0004
  20409968.1174                   20409959.4984  107255158.74048  83575444.76648
        48.0004         47.0004
  21888710.8094                   21888701.6684  115025976.47748  89630617.50647
        46.0004         43.0004
  20671991.9744                   20671983.3804  108632101.21849  84648372.00948
        49.0004         46.0004
  22995272.9394                   22995265.3484  120840996.78046  94161808.16745
        41.0004         38.0004
  24220320.1764                                  127278648.52145
        37.0004
  24775504.1924                   24775497.4294  130196136.09545 101451495.62944
        37.0004         34.0004
  20671992.3774                                  108632065.21046
        40.0004
  22598368.3944                   22598360.4714  118755248.19047  92536545.79646
        44.0004         40.0004
 03  8  3  1 47 30.0000000  0 10G28G31G27G13G 8G 3G 1G 2G22G10
  23455597.2674                   23455588.5984  123260007.76346  96046742.30245
        41.0004         36.0004
  22281370.9314                   22281362.7274  117089414.46747  91238483.27746
        43.0004         40.0004
  20409087.4554                   20409078.8374  107250530.83049  83571838.60448
        49.0004         47.0004
  21905072.7674                   21905063.6414  115111959.02148  89697616.86347
        47.0004         42.0004
  20661584.4504                   20661575.8574  108577409.30849  84605754.94448
        49.0004         46.0004
  22997998.5364                   22997990.9464  120855319.88947  94172969.03745
        42.0004         38.0004
  24240633.2674                                  127385395.10145
        36.0004
  24792479.5914                   24792472.8264  130285342.60245 101521007.23244
        37.0004         34.0004
  20661584.7584                                  108577373.30446
        41.0004
  22596112.5514                   22596104.6304  118743393.78147  92527308.63146
        43.0004         40.0004
 03  8  3  1 48  0.0000000  0 10G28G31G27G13G 8G 3G 1G 2G22G10
  23436291.0394                   23436282.3444  123158553.09746  95967686.79245
        41.0004         37.0004
  22272041.7664                   22272033.5604  117040389.50047  91200282.02146
        44.0004         40.0004
  20408355.2064                   20408346.5884  107246682.83748  83568840.16748
        48.0004         47.0004
  21921587.6774                   21921578.5624  115198745.39748  89765242.57947
        46.0004         42.0004
  20651328.1884                   20651319.5814  108523512.29149  84563757.27048
        49.0004         46.0004
  23000924.9654                   23000917.3594  120870698.31347  94184952.21046
        42.0004         39.0004
  24261060.4734                                  127492734.23155
        36.0004
  24809560.6764                   24809553.9714  130375103.93845 101590951.03944
        37.0004         34.0004
  20651328.5574                                  108523476.29046
        40.0004
  22594062.0854                   22594054.2424  118732618.57247  92518912.38346
        42.0004         40.0004
 03  8  3  1 48 30.0000000  0 10G28G31G27G13G 8G 3G 1G 2G22G10
  23416933.2964                   23416924.6054  123056827.53646  95888420.14945
        41.0004         37.0004
  22262730.0764                   22262721.8444  116991456.30047  91162152.28846
        43.0004         40.0004
  20407595.3054                   20407586.6874  107242689.53248  83565728.50348
        48.0004         47.0004
  21938079.1374                   21938070.0244  115285408.47948  89832772.23047
        47.0004         43.0004
  20641047.2114                   20641038.6164  108469485.51349  84521658.50148
        49.0004         46.0004
  23003876.0724                   23003868.4954  120886206.30047  94197036.30445
        42.0004         38.0004
  24281424.8294                                  127599748.76745
        37.0004
  24826570.8744                   24826564.1444  130464493.19145 101660605.04244
        36.0004         34.0004
  20641047.4394                                  108469449.52546
        40.0004
  22592040.9214                   22592033.4304  118721997.22047  92510635.99446
        43.0004         40.0004
 03  8  3  1 49  0.0000000  0 10G28G31G27G13G 8G 3G 1G 2G22G10
  23397699.5984                   23397690.8394  122955754.08347  95809661.71745
        42.0004         37.0004
  22253611.5734                   22253603.3124  116943538.24347  91124813.54946
        44.0004         40.0004
  20406983.0954                   20406974.4794  107239472.34548  83563221.61148
        48.0004         47.0004
  21954722.1224                   21954713.0204  115372868.01748  89900922.51947
        46.0004         42.0004
  20630917.0234                   20630908.4254  108416251.07849  84480177.12548
        49.0004         46.0004
  23007027.0654                   23007019.4874  120902764.87747  94209939.08946
        42.0004         39.0004
  24301901.2904                                  127707353.42145
        36.0004
  24843685.2534                   24843678.4794  130554429.98545 101730685.69544
        37.0004         34.0004
  20630917.2964                                  108416215.07546
        41.0004
  22590224.3904                   22590216.8504  118712451.28747  92503197.59346
        43.0004         40.0004
 03  8  3  1 49 30.0000000  0 11G28G31G29G27G13G 8G 3G 1G 2G22G10
  23378414.8094                   23378405.9944  122854412.14647  95730694.06545
        42.0004         38.0004
  22244511.1104                   22244502.8634  116895714.98947  91087548.67046
        42.0004         40.0004
  24595973.1034                                  129252714.97755
        37.0004
  20406343.0674                   20406334.4504  107236108.97548  83560600.80048
        48.0004         47.0004
  21971340.8404                   21971331.7634  115460199.90448  89968973.30347
        46.0004         42.0004
  20620762.1914                   20620753.5964  108362887.13849  84438594.85748
        49.0004         46.0004
  23010202.3634                   23010194.8014  120919451.05647  94222941.28245
        42.0004         38.0004
  24322314.0284                                  127814624.02245
        36.0004
  24860728.0804                   24860721.3494  130643990.14945 101800472.71044
        36.0004         34.0004
  20620762.4984                                  108362851.12846
        41.0004
  22588436.9414                   22588429.3414  118703058.24147  92495878.35446
        44.0004         40.0004
 03  8  3  1 50  0.0000000  0 10G28G31G27G13G 8G 3G 1G 2G22G10
  23359255.1804                   23359246.3684  122753727.74246  95652238.72345
        41.0004         37.0004
  22235605.0584                   22235596.8084  116848913.49447  91051079.98946
        44.0004         40.0004
  20405851.1964                   20405842.5794  107233524.17848  83558586.67148
        48.0004         47.0004
  21988110.8724                   21988101.8044  115548327.08248  90037643.81847
        46.0004         42.0004
  20610758.8614                   20610750.2524  108310319.34849  84397632.96348
        49.0004         46.0004
  23013577.6954                   23013570.1324  120937188.67247  94236762.82246
        42.0004         39.0004
  24342838.9414                                  127922483.79345
        36.0004
  24877874.9284                   24877868.2104  130734096.88045 101870685.61444
        36.0004         34.0004
  20610759.1964                                  108310283.35946
        40.0004
  22586854.6364                   22586846.9774  118694743.17347  92489399.08946
        44.0004         40.0004
 03  8  3  1 50 30.0000000  0 10G28G31G27G13G 8G 3G 1G 2G22G10
  23340045.0824                   23340036.2584  122652778.24147  95573576.84645
        42.0004         38.0004
  22226717.8964                   22226709.6604  116802211.20647  91014688.60146
        44.0004         40.0004
  20405331.6014                   20405322.9834  107230793.75048  83556459.07348
        48.0004         46.0004
  22004856.0434                   22004846.9874  115636323.36148  90106212.29547
        46.0004         42.0004
  20600731.2564                   20600722.6464  108257623.99349  84356571.65548
        49.0004         46.0004
  23016977.1924                   23016969.5984  120955053.08747  94250683.13045
        42.0004         38.0004
  24363299.8044                                  128030006.16345
        36.0004
  24894949.7174                                  130823823.87545
        38.0004
  20600731.5994                                  108257587.98146
        41.0004
  22585301.5124                   22585293.8494  118686581.44947  92483039.28646
        44.0004         40.0004
 03  8  3  1 51  0.0000000  0 10G28G31G27G13G 8G 3G 1G 2G22G10
  23320961.2764                   23320952.4554  122552492.41947  95495432.11545
        42.0004         38.0004
  22218026.4544                   22218018.2184  116756537.36947  90979098.60146
        44.0004         40.0004
  20404960.7184                   20404952.1134  107228844.74548  83554940.36348
        48.0004         47.0004
  22021752.3974                   22021743.3524  115725114.42648  90175400.14647
        47.0004         42.0004
  20590855.9584                   20590847.3494  108205728.94849  84316133.96648
        49.0004         46.0004
  23020577.1624                   23020569.5824  120973970.93347  94265424.27645
        42.0004         38.0004
  24383872.5024                                  128138116.73345
        36.0004
  24912128.1364                                  130914096.82745
        37.0004
  20590856.2694                                  108205692.96146
        40.0004
  22583953.9954                   22583946.3024  118679500.32647  92477521.55846
        44.0004         40.0004
 03  8  3  1 51 30.0000000  0 10G28G31G27G13G 8G 3G 1G 2G22G10
  23301827.0754                   23301818.2434  122451941.95047  95417081.21445
        42.0004         38.0004
  22209354.1424                   22209345.8794  116710964.12647  90943587.01146
        44.0004         40.0004
  20404561.6154                   20404553.0244  107226747.50848  83553306.15848
        48.0004         47.0004
  22038622.7194                   22038613.6864  115813768.50548  90244481.22047
        46.0004         42.0004
  20580956.1274                   20580947.5044  108153705.04849  84275595.87948
        49.0004         46.0004
  23024200.4454                   23024192.8364  120993011.47346  94280261.08146
        41.0004         39.0004
  24404380.0484                                  128245883.93145
        36.0004
  24929232.8534                                  131003984.22445
        36.0004
  20580956.5784                                  108153669.04546
        40.0004
  22582635.2434                   22582627.5364  118672570.24047  92472121.49446
        44.0004         40.0004
 03  8  3  1 52  0.0000000  0 10G28G31G27G13G 8G 3G 1G 2G22G10
  23282820.4854                   23282811.6674  122352061.70847  95339252.46245
        42.0004         38.0004
  22200878.8814                   22200870.6064  116666426.45247  90908882.37046
        44.0004         40.0004
  20404311.8714                   20404303.2804  107225435.09548  83552283.49748
        48.0004         46.0004
  22055644.1774                   22055635.1584  115903216.74748  90314181.11547
        46.0004         42.0004
  20571209.4744                   20571200.8504  108102486.04249  84235684.96248
        49.0004         46.0004
  23028024.5874                   23028016.9654  121013107.29147  94295920.12745
        42.0004         38.0004
  24424999.3204                                  128354238.99845
        36.0004
  24946441.8724                                  131094417.28745
        37.0004
  20571209.9034                                  108102450.04646
        41.0004
  22581522.7154                   22581514.9804  118666723.80247  92467565.82646
        44.0004         40.0004
 03  8  3  1 52 30.0000000  0  9G28G31G27G13G 8G 3G 1G22G10
  23263792.9074                   23263784.0774  122252071.17347  95261337.78645
        42.0004         38.0004
  22192452.2674                   22192443.9764  116622144.36047  90874376.85446
        44.0004         40.0004
  20404062.7174                   20404054.1254  107224125.78248  83551263.24948
        48.0004         47.0004
  22072667.6354                   22072658.6174  115992675.49348  90383889.20747
        46.0004         42.0004
  20561467.3384                   20561458.7164  108051290.83349  84195792.61148
        50.0004         47.0004
  23031900.5594                   23031892.9354  121033475.65947  94311791.57445
        42.0004         38.0004
  24445581.3944                                  128462398.08845
        37.0004
  20561467.7084                                  108051254.84446
        41.0004
  22580467.5134                   22580459.7604  118661178.86847  92463245.12846
        44.0004         40.0004
 03  8  3  1 53  0.0000000  0 10G28G31G27G13G 8G 3G 1G 2G22G10
  23244833.8324                   23244825.0034  122152441.05947  95183704.04945
        42.0004         38.0004
  22184163.9754                   22184155.6844  116578589.02847  90840437.62446
        43.0004         40.0004
  20403903.4334                   20403894.8404  107223288.74048  83550611.00748
        48.0004         47.0004
  22089782.1074                   22089773.0904  116082612.53048  90453969.98947
        46.0004         42.0004
  20551819.1644                   20551810.5414  108000589.33649  84156284.94848
        49.0004         47.0004
  23035917.6054                   23035909.9674  121054585.37947  94328240.71446
        42.0004         39.0004
  24466215.2574                                  128570828.83545
        36.0004
  24980812.8854                                  131275060.55655
        36.0004
  20551819.4494                                  108000553.33646
        41.0004
  22579559.0564                   22579551.3024  118656404.82947  92459525.08046
        43.0004         40.0004
 03  8  3  1 53 30.0000000  0 10G28G31G27G13G 8G 3G 1G 2G22G10
  23225915.3294                   23225906.4734  122053023.78046  95106236.08145
        41.0004         38.0004
  22175985.8774                   22175977.5694  116535612.96047  90806949.79546
        44.0004         40.0004
  20403805.6184                   20403797.0254  107222774.71749  83550210.47148
        49.0004         47.0004
  22106958.8204                   22106949.8034  116172876.57448  90524305.56947
        45.0004         42.0004
  20542236.6214                   20542227.9984  107950232.79749  84117046.10148
        50.0004         46.0004
  23040047.1294                   23040039.5074  121076286.11246  94345150.36245
        41.0004         38.0004
  24486871.7914                                  128679380.08745
        36.0004
  24998034.7884                                  131365564.45545
        36.0004
  20542236.8974                                  107950196.80946
        41.0004
  22578768.8074                   22578761.0394  118652252.10347  92456289.20946
        44.0004         40.0004
 03  8  3  1 54  0.0000000  0 10G28G31G27G13G 8G 3G 1G 2G22G10
  23206978.6224                   23206969.7534  121953510.96547  95028693.69046
        42.0004         39.0004
  22167859.4284                   22167851.1064  116492908.24447  90773673.41346
        44.0004         40.0004
  20403710.3164                   20403701.7244  107222273.89949  83549820.22848
        49.0004         47.0004
  22124138.4894                   22124129.4734  116263156.21948  90594653.32447
        46.0004         42.0004
  20532660.9504                   20532652.3274  107899912.37149  84077835.38848
        49.0004         47.0004
  23044230.0154                   23044222.3794  121098267.32247  94362278.58946
        42.0004         39.0004
  24507492.2834                                  128787740.25545
        36.0004
  25015212.6084                                  131455835.69845
        36.0004
  20532661.3564                                  107899876.37846
        41.0004
  22578037.7844                   22578029.9854  118648410.55547  92453295.79246
        44.0004         40.0004
 03  8  3  1 54 30.0000000  0 10G28G31G27G13G 8G 3G 1G 2G22G10
  23188170.0484                   23188161.1784  121854671.42947  94951675.91045
        42.0004         38.0004
  22159930.9804                   22159922.6364  116451243.96647  90741207.77746
        44.0004         40.0004
  20403763.5674                   20403754.9614  107222553.73748  83550038.28748
        48.0004         47.0004
  22141466.7084                   22141457.7084  116354216.50248  90665609.36047
        45.0004         42.0004
  20523238.2904                   20523229.6674  107850395.95849  84039251.17248
        49.0004         46.0004
  23048612.1434                   23048604.4974  121121295.43846  94380222.56446
        41.0004         39.0004
  24528221.8464                                  128896674.84545
        36.0004
  25032492.1844                                  131546639.48045
        37.0004
  20523238.5884                                  107850359.95846
        40.0004
  22577511.9934                   22577504.1924  118645647.44247  92451142.69446
        44.0004         40.0004
 03  8  3  1 55  0.0000000  0 10G28G31G27G13G 8G 3G 1G 2G22G10
  23169343.2824                   23169334.3994  121755736.35747  94874583.70646
        42.0004         39.0004
  22152054.2524                   22152045.9074  116409851.36047  90708953.76546
        44.0004         40.0004
  20403818.7334                   20403810.1264  107222843.63548  83550264.17948
        48.0004         46.0004
  22158796.5454                   22158787.5584  116445285.34648  90736572.07447
        45.0004         42.0004
  20513822.1044                   20513813.4794  107800913.62849  84000693.52048
        49.0004         47.0004
  23053046.7764                   23053039.1444  121144599.52746  94398381.58046
        41.0004         39.0004
  24548913.8724                                  129005411.48845
        37.0004
  25049726.2474                                  131637204.03244
        34.0004
  20513822.3644                                  107800877.61746
        41.0004
  22577044.6844                   22577036.8544  118643191.90248  92449229.33546
        45.0004         40.0004
 03  8  3  1 55 30.0000000  0  9G28G31G27G13G 8G 3G 1G22G10
  23150557.1964                   23150548.3014  121657014.93547  94797657.96646
        43.0004         39.0004
  22144288.1004                   22144279.7694  116369040.08247  90677152.79046
        44.0004         41.0004
  20403934.3894                   20403925.7814  107223451.41048  83550737.76748
        48.0004         47.0004
  22176186.2664                   22176177.2784  116536668.88648  90807780.00647
        45.0004         42.0004
  20504471.0964                   20504462.4704  107751773.74649  83962402.70148
        49.0004         47.0004
  23057592.2804                   23057584.6304  121168486.31546  94416994.64845
        41.0004         38.0004
  24569626.7084                                  129114256.17545
        36.0004
  20504471.4044                                  107751737.74146
        41.0004
  22576694.4784                   22576686.6344  118641351.49347  92447795.24446
        44.0004         40.0004
 03  8  3  1 56  0.0000000  0 10G28G31G27G13G 8G 3G 1G 2G22G10
  23131871.1264                   23131862.2314  121558819.28647  94721141.94446
        42.0004         39.0004
  22136691.9654                   22136683.6454  116329122.36847  90646048.12146
        44.0004         40.0004
  20404169.6524                   20404161.0314  107224687.66549  83551701.07748
        49.0004         47.0004
  22193694.5644                   22193685.5864  116628675.55248  90879473.47646
        45.0004         41.0004
  20495244.4714                   20495235.8484  107703287.51049  83924621.22748
        49.0004         46.0004
  23062307.5594                   23062299.9474  121193265.33346  94436302.95945
        41.0004         38.0004
  24590418.0884                                  129223517.80345
        36.0004
  25084290.2484                                  131818836.76754
        35.0004
  20495244.8674                                  107703251.52446
        40.0004
  22576520.3164                   22576512.4714  118640436.26647  92447082.07446
        44.0004         40.0004
 03  8  3  1 56 30.0000000  0 10G28G31G27G13G 8G 3G 1G 2G22G10
  23113167.4184                   23113158.5054  121460530.88547  94644553.62746
        42.0004         39.0004
  22129148.2904                   22129139.9754  116289479.96847  90615157.92746
        43.0004         40.0004
  20404406.5414                   20404397.9334  107225932.58948  83552671.15148
        48.0004         46.0004
  22211203.0994                   22211194.1174  116720683.39648  90951167.86246
        46.0004         41.0004
  20486024.4064                   20486015.7834  107654835.80349  83886866.66348
        49.0004         47.0004
  23067074.5034                   23067066.8814  121218315.73046  94455822.75346
        40.0004         39.0004
  24611170.9914                                  129332574.35744
        35.0004
  25101561.6894                                  131909597.11845
        36.0004
  20486024.8234                                  107654799.80746
        41.0004
  22576404.1944                   22576396.3484  118639826.04247  92446606.57146
        44.0004         40.0004
 03  8  3  1 57  0.0000000  0 10G28G31G27G13G 8G 3G 1G 2G22G10
  23094505.5254                   23094496.5974  121362462.28647  94568136.60846
        42.0004         39.0004
  22121716.4804                   22121708.1774  116250425.53947  90584725.89646
        44.0004         41.0004
  20404704.2204                   20404695.6144  107227496.84248  83553890.03948
        48.0004         47.0004
  22228770.6824                   22228761.7124  116813001.73048  91023104.22647
        45.0004         42.0004
  20476870.2154                   20476861.5924  107606730.20149  83849381.78048
        49.0004         47.0004
  23071952.0664                   23071944.4594  121243947.62546  94475795.68245
        41.0004         38.0004
  24631943.3424                                  129441735.04845
        36.0004
  25118844.9754                                  132000421.02544
        35.0004
  20476870.6434                                  107606694.19946
        41.0004
  22576405.2784                   22576397.4334  118639831.80047  92446611.07546
        44.0004         40.0004
 03  8  3  1 57 30.0000000  0 10G28G31G27G13G 8G 3G 1G 2G22G10
  23075944.3824                   23075935.4414  121264923.01247  94492132.02645
        42.0004         38.0004
  22114455.5134                   22114447.1854  116212268.90148  90554993.47146
        45.0004         41.0004
  20405121.3454                   20405112.7374  107229688.84648  83555598.09148
        48.0004         47.0004
  22246455.7084                   22246446.7684  116905936.98548  91095521.26146
        45.0004         41.0004
  20467840.6434                   20467832.0074  107559279.48449  83812407.20348
        50.0004         47.0004
  23076998.6994                   23076991.0744  121270468.04546  94496460.97945
        41.0004         38.0004
  24652794.3794                                  129551306.11444
        34.0004
  25136198.6384                                  132091614.57545
        36.0004
  20467840.9644                                  107559243.47946
        41.0004
  22576582.0534                   22576574.1934  118640760.82547  92447335.00646
        44.0004         40.0004
 03  8  3  1 58  0.0000000  0 10G28G31G27G13G 8G 3G 1G 2G22G10
  23057396.3614                   23057387.4054  121167452.56547  94416181.04446
        42.0004         39.0004
  22107277.7454                   22107269.4034  116174549.53748  90525601.77946
        45.0004         40.0004
  20405569.9804                   20405561.3724  107232046.43748  83557435.17548
        48.0004         47.0004
  22264169.7544                   22264160.8264  116999024.85848  91168057.24246
        45.0004         41.0004
  20458847.8714                   20458839.2474  107512022.20749  83775583.35648
        49.0004         47.0004
  23082126.3584                   23082118.7774  121297414.01346  94517457.81445
        41.0004         38.0004
  24673634.6924                                  129660823.57044
        35.0004
  25153534.1534                                  132182713.88244
        35.0004
  20458848.1324                                  107511986.20446
        40.0004
  22576846.5414                   22576838.6944  118642150.65547  92448417.96546
        44.0004         40.0004
 03  8  3  1 58 30.0000000  0 10G28G31G27G13G 8G 3G 1G 2G22G10
  23038861.7024                   23038852.7314  121070052.52547  94340284.96446
        43.0004         39.0004
  22100183.5344                   22100175.1784  116137269.21047  90496552.17646
        44.0004         41.0004
  20406050.1424                   20406041.5344  107234569.70948  83559401.35948
        48.0004         47.0004
  22281912.5134                   22281903.5854  117092263.62448  91240710.81246
        45.0004         41.0004
  20449892.0394                   20449883.4164  107464958.99149  83738910.72348
        49.0004         47.0004
  23087334.8154                   23087327.2584  121324784.57546  94538785.48645
        41.0004         38.0004
  24694464.7644                                  129770291.58554
        34.0004
  25170851.4754                                  132273717.58744
        35.0004
  20449892.4424                                  107464922.98446
        41.0004
  22577198.6734                   22577190.8144  118644001.11847  92449859.90046
        44.0004         40.0004
 03  8  3  1 59  0.0000000  0 10G28G31G27G13G 8G 3G 1G 2G22G10
  23020370.1894                   23020361.1914  120972879.15447  94264565.51346
        42.0004         39.0004
  22093202.6164                   22093194.2614  116100584.36347  90467966.61446
        44.0004         41.0004
  20406591.2954                   20406582.6874  107237413.48848  83561617.29148
        48.0004         47.0004
  22299713.1104                   22299704.1824  117185806.26948  91313601.15746
        45.0004         41.0004
  20441002.7544                   20440994.1184  107418245.42249  83702510.53448
        49.0004         47.0004
  23092653.3584                   23092645.8184  121352733.77346  94560564.10345
        41.0004         38.0004
  24715313.2214                                  129879851.27844
        34.0004
  25188179.8344                                  132364779.10244
        35.0004
  20441003.1934                                  107418209.41846
        41.0004
  22577667.8324                   22577659.9574  118646466.56847  92451781.02646
        43.0004         40.0004
 03  8  3  1 59 30.0000000  0 10G28G31G27G13G 8G 3G 1G 2G22G10
  23001981.2554                   23001972.2584  120876244.84247  94189266.09346
        42.0004         39.0004
  22086394.4894                   22086386.1334  116064807.41547  90440088.46946
        44.0004         41.0004
  20407252.6094                   20407244.0134  107240888.71448  83564325.24748
        48.0004         47.0004
  22317630.3484                   22317621.4334  117279961.92848  91386969.17846
        45.0004         41.0004
  20432239.2704                   20432230.6214  107372193.00249  83666625.54048
        50.0004         47.0004
  23098140.9654                   23098133.4364  121381571.28146  94583034.85445
        41.0004         38.0004
  24736239.2624                                  129989817.74244
        33.0004
  25205577.8514                                  132456207.42745
        36.0004
  20432239.6504                                  107372157.00246
        41.0004
  22578313.0794                   22578305.1894  118649857.36347  92454423.20546
        44.0004         40.0004
                            4  1
RINEX FILE SPLICE; other post-header comments skipped       COMMENT
 03  8  3  2  0  0.0000000  0 10G28G31G27G13G 8G 3G 1G 2G22G10
  22983606.7564                   22983597.7294  120779686.57247  94114025.97046
        43.0004         39.0004
  22079671.0054                   22079662.6384  116029475.33047  90412557.00346
        44.0004         41.0004
  20407945.6654                   20407937.0694  107244530.74848  83567163.19548
        48.0004         47.0004
  22335575.4694                   22335566.5804  117374264.05348  91460451.30646
        45.0004         41.0004
  20423513.3414                   20423504.6934  107326337.93749  83630894.32448
        49.0004         47.0004
  23103708.9724                   23103701.4004  121410831.47846  94605835.04745
        41.0004         38.0004
  24757153.9784                                  130099724.56944
        35.0004
  25222957.0774                                  132547536.24845
        36.0004
  20423513.7234                                  107326301.94647
        42.0004
  22579045.9364                   22579038.0444  118653708.36447  92457423.93846
        43.0004         40.0004
 03  8  3  2  0 30.0000000  0 10G28G31G29G27G13G 8G 3G 2G22G10
  22965247.4414                   22965238.3984  120683207.78547  94038847.70046
        43.0004         39.0004
  22073032.8704                   22073024.5204  115994591.69147  90385374.95846
        44.0004         41.0004
  24173472.6854                                  127032452.91856
        39.0004
  20408670.8894                   20408662.2814  107248341.76448  83570132.81648
        48.0004         47.0004
  22353548.4794                   22353539.6184  117468712.79248  91534047.70446
        45.0004         41.0004
  20414825.4354                   20414816.7864  107280682.74449  83595318.85948
        49.0004         47.0004
  23109357.7024                   23109350.1054  121440515.63046  94628965.55045
        41.0004         38.0004
  25240317.6914                                  132638766.33145
        36.0004
  20414825.8274                                  107280646.74346
        41.0004
  22579866.6124                   22579858.7214  118658021.17247  92460784.59846
        44.0004         41.0004
 03  8  3  2  1  0.0000000  0 10G28G31G27G13G 8G 3G 1G 2G22G10
  22946961.6434                   22946952.5874  120587115.45447  93963970.61446
        43.0004         39.0004
  22066538.4814                   22066530.1304  115960463.51248  90358781.58046
        45.0004         41.0004
  20409486.3814                   20409477.7854  107252627.26849  83573472.16948
        49.0004         47.0004
  22371607.1254                   22371598.2934  117563611.49248  91607994.71046
        45.0004         41.0004
  20406233.8494                   20406225.2004  107235533.65649  83560137.75248
        50.0004         47.0004
  23115144.9204                   23115137.3064  121470927.66446  94652663.23545
        41.0004         38.0004
  24799006.8564                                  130319660.55054
        34.0004
  25257717.2064                                  132730201.27444
        34.0004
  20406234.2034                                  107235497.64046
        41.0004
  22580833.2154                   22580825.3264  118663100.64547  92464742.62146
        44.0004         40.0004
 03  8  3  2  1 30.0000000  0 10G28G31G27G13G 8G 3G 1G 2G22G10
  22928691.4034                   22928682.3364  120491105.00647  93889157.36346
        44.0004         39.0004
  22060129.9434                   22060121.6084  115926786.35447  90332539.62746
        44.0004         41.0004
  20410333.9484                   20410325.3534  107257081.19948  83576942.75448
        48.0004         47.0004
  22389692.8154                   22389683.9704  117658652.37147  91682052.53346
        44.0004         41.0004
  20397680.4484                   20397671.8004  107190585.29149  83525113.07248
        49.0004         47.0004
  23121012.2684                   23121004.6524  121501760.85146  94676689.09645
        41.0004         38.0004
  24819944.5144                                  130429688.43544
        34.0004
  25275096.8344                                  132821533.39944
        35.0004
  20397680.9124                                  107190549.29246
        41.0004
  22581887.3454                   22581879.4534  118668640.25847  92469059.22146
        44.0004         40.0004
 03  8  3  2  2  0.0000000  0  9G28G31G27G13G 8G 3G 2G22G10
  22910525.1434                   22910516.0794  120395640.66947  93814769.57646
        43.0004         39.0004
  22053895.4914                   22053887.1574  115894024.27747  90307010.77946
        44.0004         41.0004
  20411301.5914                   20411292.9944  107262166.19848  83580905.08548
        48.0004         47.0004
  22407893.3204                   22407884.5164  117754296.42147  91756580.29146
        44.0004         40.0004
  20389253.4434                   20389244.7844  107146301.02349  83490605.85148
        49.0004         47.0004
  23127047.5774                   23127039.9744  121533476.42746  94701402.48345
        41.0004         38.0004
  25292545.1674                                  132913223.94344
        35.0004
  20389253.8244                                  107146251.02256
        41.0004
  22583116.9854                   22583109.0924  118675102.12047  92474094.45046
        44.0004         40.0004
 03  8  3  2  2 30.0000000  0 10G28G31G27G13G 8G 3G 1G 2G22G10
  22892375.0384                   22892365.9464  120300261.53447  93740448.25446
        43.0004         39.0004
  22047747.5044                   22047739.1574  115861716.44747  90281835.87246
        44.0004         41.0004
  20412301.3934                   20412292.7964  107267420.18948  83584999.10748
        48.0004         47.0004
  22426120.1354                   22426111.3144  117850078.91947  91831215.98046
        44.0004         41.0004
  20380864.9134                   20380856.2524  107102219.06249  83456256.27648
        49.0004         47.0004
  23133162.5684                   23133154.9524  121565610.98046  94726442.42045
        41.0004         38.0004
  24861958.4314                                  130650469.49854
        33.0004
  25309973.1574                                  133004808.77544
        35.0004
  20380865.2314                                  107102169.04246
        41.0004
  22584434.0284                   22584426.1334  118682023.22948  92479487.50946
        45.0004         40.0004
 03  8  3  2  3  0.0000000  0 10G28G31G27G13G 8G 3G 1G 2G22G10
  22874270.4494                   22874261.3284  120205121.40347  93666313.12046
        44.0004         39.0004
  22041715.1844                   22041706.8384  115830016.39347  90257134.53446
        44.0004         41.0004
  20413362.2584                   20413353.6604  107272995.01248  83589343.10248
        48.0004         47.0004
  22444401.9844                   22444393.1764  117946150.49647  91906076.89946
        44.0004         40.0004
  20372543.9994                   20372535.3514  107058492.42249  83422183.57948
        50.0004         47.0004
  23139386.0994                   23139378.4994  121598315.48646  94751926.36845
        41.0004         38.0004
  24882974.8194                                  130760910.79944
        34.0004
  25327409.8104                                  133096438.75444
        35.0004
  20372544.3304                                  107058442.41546
        41.0004
  22585867.3074                   22585859.3984  118689555.09847  92485356.49246
        44.0004         40.0004
 03  8  3  2  3 30.0000000  0  9G28G31G27G13G 8G 3G 1G22G10
  22856182.5994                   22856173.4644  120110069.23347  93592246.53046
        44.0004         39.0004
  22035769.8084                   22035761.4754  115798773.29248  90232789.26946
        45.0004         41.0004
  20414455.1854                   20414446.5864  107278738.38049  83593818.45548
        49.0004         47.0004
  22462709.4974                   22462700.7174  118042357.00447  91981042.97046
        44.0004         40.0004
  20364261.8244                   20364253.1644  107014969.30349  83388269.46748
        49.0004         46.0004
  23145688.7834                   23145681.1814  121631436.31346  94777734.79845
        40.0004         38.0004
  24903977.5834                                  130871281.38444
        32.0004
  20364262.2084                                  107014919.31746
        41.0004
  22587387.6754                   22587379.7664  118697544.56347  92491582.02046
        44.0004         41.0004
 03  8  3  2  4  0.0000000  0 10G28G31G27G13G 8G 3G 1G 2G22G10
  22838170.0494                   22838160.9174  120015412.77147  93518488.28346
        44.0004         40.0004
  22029969.8944                   22029961.5514  115768294.60048  90209039.67446
        45.0004         41.0004
  20415638.5894                   20415629.9914  107284957.14949  83598664.23648
        49.0004         47.0004
  22481100.5124                   22481091.7474  118139002.37647  92056351.03546
        44.0004         40.0004
  20356076.7764                   20356068.1174  106971956.58549  83354753.06948
        50.0004         47.0004
  23152128.7344                   23152121.1184  121665278.54646  94804105.38645
        41.0004         38.0004
  24925025.2914                                  130981895.52054
        33.0004
  25362278.6954                                  133279670.67054
        35.0004
  20356077.1224                                  106971906.58946
        40.0004
  22589053.2164                   22589045.2914  118706297.10047  92498402.19046
        44.0004         40.0004
 03  8  3  2  4 30.0000000  0 10G28G31G27G13G 8G 3G 1G 2G22G10
  22820204.0314                   22820194.8724  119921000.95947  93444920.71146
        44.0004         40.0004
  22024286.7074                   22024278.3644  115738429.25448  90185767.97346
        45.0004         41.0004
  20416883.3274                   20416874.7154  107291498.29249  83603761.23748
        49.0004         46.0004
  22499545.7314                   22499536.9644  118235932.53147  92131880.99346
        44.0004         40.0004
  20347959.9584                   20347951.3004  106929302.48149  83321516.12348
        49.0004         47.0004
  23158676.7654                   23158669.1234  121699688.67846  94830918.49745
        40.0004         38.0004
  24946087.5904                                  131092579.02344
        34.0004
  25379739.7124                                  133371429.43344
        35.0004
  20347960.3974                                  106929252.47246
        41.0004
  22590834.8854                   22590826.9594  118715659.77247  92505697.76246
        44.0004         40.0004
 03  8  3  2  5  0.0000000  0  9G28G31G27G13G 8G 3G 1G 2G10
  22802255.3374                   22802246.1674  119826679.93447  93371423.82446
        44.0004         40.0004
  22018690.9514                   22018682.5934  115709023.29247  90162854.22546
        44.0004         41.0004
  20418159.8874                   20418151.2894  107298206.65849  83608988.53148
        49.0004         47.0004
  22518015.2074                   22518006.4664  118332990.09547  92207510.20446
        44.0004         40.0004
  20339881.9794                   20339873.3204  106886852.41649  83288438.14648
        49.0004         47.0004
  23165303.0504                   23165295.4074  121734510.04246  94858052.02545
        41.0004         38.0004
  24967135.0024                                  131203184.73344
        34.0004
  25397179.3624                                  133463073.09844
        35.0004
  22592702.9284                   22592694.9884  118725476.46947  92513347.15146
        44.0004         41.0004
 03  8  3  2  5 30.0000000  0 10G28G31G27G13G 8G 3G 1G 2G22G10
  22784382.8884                   22784373.7184  119732759.58347  93298239.13546
        44.0004         39.0004
  22013241.5034                   22013233.1474  115680386.31247  90140539.71846
        44.0004         41.0004
  20419526.9394                   20419518.3404  107305390.56549  83614586.37648
        49.0004         47.0004
  22536567.1904                   22536558.4764  118430481.36147  92283477.39446
        44.0004         40.0004
  20331901.5764                   20331892.9044  106844915.11449  83255759.73748
        49.0004         47.0004
  23172066.0244                   23172058.3984  121770049.65046  94885745.21745
        41.0004         38.0004
  24988226.6074                                  131314018.86944
        35.0004
  25414654.7764                                  133554908.39644
        34.0004
  20331901.8964                                  106844865.10556
        40.0004
  22594715.9254                   22594707.9874  118736054.77647  92521589.98546
        44.0004         40.0004
 03  8  3  2  6  0.0000000  0 10G28G31G27G13G 8G 3G 1G 2G22G10
  22766558.2934                   22766549.1124  119639090.95447  93225250.66546
        44.0004         40.0004
  22007910.0364                   22007901.6784  115652369.38948  90118708.36846
        45.0004         41.0004
  20420955.9104                   20420947.3264  107312899.86048  83620437.77348
        48.0004         47.0004
  22555172.7784                   22555164.0784  118528254.19647  92359663.97346
        44.0004         40.0004
  20323990.3164                   20323981.6574  106803341.16249  83223364.44348
        49.0004         47.0004
  23178936.8374                   23178929.2254  121806155.89046  94913879.91845
        41.0004         38.0004
  25009331.9194                                  131424929.59444
        34.0004
  25432138.0524                                  133646783.50744
        35.0004
  20323990.6864                                  106803291.16946
        41.0004
  22596845.0284                   22596837.0754  118747243.34847  92530308.37046
        44.0004         40.0004
 03  8  3  2  6 30.0000000  0 10G28G31G27G13G 8G 3G 1G 2G22G10
  22748780.7194                   22748771.5654  119545669.35647  93152454.64346
        44.0004         40.0004
  22002695.6764                   22002687.3194  115624967.74247  90097356.43946
        44.0004         41.0004
  20422445.6744                   20422437.0774  107320728.56049  83626538.05248
        49.0004         47.0004
  22573830.3984                   22573821.7114  118626300.65247  92436063.80046
        43.0004         40.0004
  20316147.1674                   20316138.5114  106762125.13349  83191248.06948
        50.0004         47.0004
  23185914.1154                   23185906.4924  121842821.61146  94942450.59545
        40.0004         37.0004
  25030450.5714                                  131535909.16944
        34.0004
  25449627.6574                                  133738691.18844
        34.0004
  20316147.5474                                  106762075.13446
        40.0004
  22599089.0254                   22599081.0984  118759035.50647  92539497.01746
        44.0004         40.0004
 03  8  3  2  7  0.0000000  0 10G28G31G27G13G 8G 3G 1G 2G22G10
  22731051.9164                   22731042.7494  119452503.86947  93079858.16946
        43.0004         40.0004
  21997599.9904                   21997591.6204  115598189.73647  90076490.46946
        43.0004         41.0004
  20423997.5514                   20423988.9684  107328883.72749  83632892.72448
        49.0004         47.0004
  22592541.0754                   22592532.3864  118724625.79947  92512680.76346
        44.0004         40.0004
  20308373.6044                   20308364.9484  106721274.84949  83159416.69048
        49.0004         47.0004
  23192998.9344                   23192991.2954  121880052.51946  94971461.68045
        40.0004         38.0004
  25051583.3314                                  131646962.51244
        34.0004
  25467124.3034                                  133830636.74544
        34.0004
  20308374.0074                                  106721224.84246
        41.0004
  22601449.0554                   22601441.1284  118771437.61447  92549161.00746
        44.0004         40.0004
 03  8  3  2  7 30.0000000  0 10G28G31G27G13G 8G 3G 1G 2G22G10
  22713371.4854                   22713362.3174  119359592.57547  93007459.75646
        44.0004         41.0004
  21992622.5944                   21992614.2374  115572033.46747  90056108.97846
        44.0004         41.0004
  20425611.0044                   20425602.4224  107337362.42049  83639499.48648
        49.0004         47.0004
  22611303.8884                   22611295.1994  118823224.73547  92589511.03446
        44.0004         40.0004
  20300669.2084                   20300660.5374  106680787.97449  83127868.47948
        49.0004         47.0004
  23200190.4124                   23200182.7484  121917844.17846  95000909.78845
        40.0004         37.0004
  25072728.9854                                  131758084.98744
        32.0004
  25484627.2624                                  133922615.85444
        34.0004
  20300669.5294                                  106680737.97346
        41.0004
  22603924.4424                   22603916.5154  118784445.85747  92559297.30346
        44.0004         40.0004
 03  8  3  2  8  0.0000000  0 10G28G31G27G13G 8G 3G 1G 2G22G10
  22695738.9514                   22695729.7714  119266933.04748  92935257.55446
        45.0004         41.0004
  21987763.0184                   21987754.6744  115546496.28547  90036209.88246
        44.0004         41.0004
  20427285.2674                   20427276.6834  107346160.73049  83646355.30848
        49.0004         47.0004
  22630117.6584                   22630108.9724  118922091.57747  92666550.09946
        44.0004         40.0004
  20293033.2864                   20293024.6274  106640660.99649  83096600.70548
        49.0004         47.0004
  23207487.6604                   23207480.0004  121956191.22946  95030790.56845
        40.0004         38.0004
  25093887.0644                                  131869270.88144
        34.0004
  25502135.6614                                  134014622.79744
        34.0004
  20293033.6294                                  106640610.98746
        41.0004
  22606514.2674                   22606506.3414  118798055.41847  92569902.14546
        44.0004         40.0004
 03  8  3  2  8 30.0000000  0  9G28G31G27G13G 8G 3G 2G22G10
  22678155.6444                   22678146.4784  119174532.02047  92863256.72046
        44.0004         41.0004
  21983022.4854                   21983014.1544  115521584.67948  90016798.24246
        45.0004         41.0004
  20429021.3814                   20429012.7864  107355284.00649  83653464.35748
        49.0004         47.0004
  22648983.0684                   22648974.3974  119021229.91247  92743800.73946
        44.0004         40.0004
  20285467.0494                   20285458.3904  106600900.21449  83065618.29148
        50.0004         47.0004
  23214891.3114                   23214883.6614  121995097.80046  95061107.38445
        40.0004         38.0004
  25519649.9724                                  134106661.62344
        35.0004
  20285467.4044                                  106600850.20446
        41.0004
  22609219.3594                   22609211.4344  118812270.70947  92580978.98846
        43.0004         40.0004
 03  8  3  2  9  0.0000000  0  9G28G31G27G13G 8G 3G 2G22G10
  22660621.1494                   22660611.9964  119082387.56448  92791455.82246
        46.0004         41.0004
  21978400.5974                   21978392.2524  115497296.49048  89997872.38846
        45.0004         41.0004
  20430818.6964                   20430810.0994  107364729.02249  83660824.11448
        49.0004         47.0004
  22667899.1514                   22667890.4944  119120634.28947  92821258.61746
        44.0004         40.0004
  20277969.9964                   20277961.3374  106561502.87349  83034919.05248
        50.0004         47.0004
  23222400.5404                   23222392.8774  122034559.00546  95091856.36745
        41.0004         37.0004
  25537169.9044                                  134198727.61144
        34.0004
  20277970.3304                                  106561452.87746
        41.0004
  22612038.9204                   22612030.9954  118827087.54247  92592524.55446
        44.0004         40.0004
 03  8  3  2  9 30.0000000  0  9G28G31G27G13G 8G 3G 2G22G10
  22643165.9094                   22643156.7614  118990659.78848  92719979.67646
        45.0004         41.0004
  21973927.6784                   21973919.3484  115473791.27147  89979556.65846
        44.0004         41.0004
  20432707.3884                   20432698.7794  107374654.10849  83668557.94648
        49.0004         47.0004
  22686895.5924                   22686886.9364  119220461.13147  92899045.74746
        44.0004         40.0004
  20270572.3564                   20270563.6984  106522628.07549  83004627.01648
        50.0004         47.0004
  23230045.1544                   23230037.5174  122074731.65746  95123159.70445
        41.0004         38.0004
  25554724.3754                                  134290977.60744
        34.0004
  20270572.7614                                  106522578.07546
        41.0004
  22615002.8724                   22614994.9604  118842663.21647  92604661.43746
        44.0004         40.0004
 03  8  3  2 10  0.0000000  0  9G28G31G27G13G 8G 3G 2G22G10
  22625731.2404                   22625722.0644  118899040.10448  92648587.75646
        45.0004         41.0004
  21969545.0394                   21969536.7094  115450760.40748  89961610.54646
        45.0004         41.0004
  20434628.5434                   20434619.9484  107384749.84349  83676424.74648
        49.0004         47.0004
  22705913.1384                   22705904.4834  119320398.82347  92976919.23746
        43.0004         40.0004
  20263215.3574                   20263206.6844  106483966.78349  82974501.33848
        50.0004         47.0004
  23237766.0274                   23237758.3784  122115304.99546  95154775.27745
        40.0004         38.0004
  25572254.9064                                  134383100.54144
        33.0004
  20263215.7614                                  106483916.78356
        41.0004
  22618052.1134                   22618044.1724  118858687.27247  92617147.76046
        44.0004         40.0004
 03  8  3  2 10 30.0000000  0  9G28G31G27G13G 8G 3G 2G22G10
  22608375.9804                   22608366.8044  118807837.78847  92577521.05746
        44.0004         41.0004
  21965311.4164                   21965303.0714  115428512.63247  89944274.63146
        44.0004         41.0004
  20436640.7144                   20436632.1064  107395323.81149  83684664.19948
        49.0004         47.0004
  22725009.9664                   22725001.3264  119420753.14547  93055117.36646
        43.0004         40.0004
  20255957.6754                   20255949.0054  106445827.34549  82944782.29448
        50.0004         47.0004
  23245621.3834                   23245613.7334  122156585.35746  95186941.82845
        41.0004         37.0004
  25589819.2394                                  134475402.79844
        33.0004
  20255958.2344                                  106445777.34446
        41.0004
  22621245.0494                   22621237.1074  118875466.26247  92630222.29446
        44.0004         41.0004
 03  8  3  2 11  0.0000000  0  9G28G31G27G13G 8G 3G 2G22G10
  22591041.9274                   22591032.7394  118716746.97547  92506541.27046
        44.0004         41.0004
  21961168.5384                   21961160.1814  115406741.66348  89927310.25346
        45.0004         41.0004
  20438685.3874                   20438676.7914  107406068.70049  83693036.84448
        49.0004         47.0004
  22744127.1644                   22744118.5544  119521214.50947  93133398.90646
        43.0004         39.0004
  20248740.9274                   20248732.2454  106407903.01549  82915230.86748
        49.0004         47.0004
  23253552.5774                   23253544.9284  122198263.75146  95219418.43445
        40.0004         38.0004
  25607358.9964                                  134567575.53244
        33.0004
  20248741.4134                                  106407853.00546
        40.0004
  22624522.9924                   22624515.0534  118892691.90947  92643644.87546
        44.0004         40.0004
 03  8  3  2 11 30.0000000  0 10G28G31G29G27G13G 8G 3G 2G22G10
  22573758.5014                   22573749.2984  118625922.08248  92435768.65746
        45.0004         41.0004
  21957145.7014                   21957137.3334  115385601.63448  89910837.54946
        45.0004         41.0004
  23763024.2074                                  124875537.54656
        39.0004
  20440791.7884                   20440783.1794  107417137.85148  83701662.15048
        48.0004         47.0004
  22763293.5094                   22763284.9264  119621934.20747  93211881.74346
        43.0004         39.0004
  20241594.3424                   20241585.6594  106370347.52049  82885966.85548
        49.0004         47.0004
  23261588.3164                   23261580.6794  122240491.71846  95252323.30245
        40.0004         38.0004
  25624903.2654                                  134659770.28644
        34.0004
  20241594.7464                                  106370297.52046
        41.0004
  22627914.8554                   22627906.9164  118910516.14347  92657533.86146
        44.0004         40.0004
